ftp/pub/palmer/observations_modified/2019/June/AR190419_BASE.txt

Download

Sample DateTime	Unit Id	WS Avg 2min	WD Avg 2min	WGS 10min	WGD 10min	Air Temp	Rel Humidity	Dew Point	Pyranometer	Quantum	Air Pressure	Snow Level	Rainfall	PW Current	Visibility	CBase 1	CBase 2	CBase 3	Vert Vis
2019/04/19 00:00:00	BASE	10.65	256	13.38	253	-3.3	79	-6.5	0	0	980.6	NA	0.0000		9999	1970	0	0	0
2019/04/19 00:01:00	BASE	11.77	258	14.35	252	-3.3	79	-6.4	0	0	980.6	NA	0.0000		9999	1970	0	0	0
2019/04/19 00:02:00	BASE	11.64	246	14.35	252	-3.3	79	-6.4	0	0	980.6	NA	0.0000		9999	1970	0	0	0
2019/04/19 00:03:00	BASE	10.60	235	14.35	252	-3.3	79	-6.4	0	0	980.6	NA	0.0000		9999	2070	0	0	0
2019/04/19 00:04:00	BASE	11.09	233	14.35	252	-3.3	79	-6.4	0	0	980.6	NA	0.0000		9999	2170	0	0	0
2019/04/19 00:05:00	BASE	10.98	236	14.35	252	-3.3	79	-6.4	0	0	980.6	NA	0.0000		9999	2170	0	0	0
2019/04/19 00:06:00	BASE	11.83	233	15.07	229	-3.3	79	-6.4	0	0	980.6	NA	0.0000		9999	2300	0	0	0
2019/04/19 00:07:00	BASE	12.39	225	15.07	229	-3.3	79	-6.4	0	0	980.6	NA	0.0000		9999	2330	0	0	0
2019/04/19 00:08:00	BASE	10.86	224	15.07	229	-3.3	79	-6.5	0	0	980.6	NA	0.0000		9999	2030	0	0	0
2019/04/19 00:09:00	BASE	10.03	226	15.07	229	-3.4	79	-6.5	0	0	980.7	NA	0.0000		9999	2070	0	0	0
2019/04/19 00:10:00	BASE	10.25	226	15.07	229	-3.3	79	-6.4	0	0	980.6	NA	0.0000		9999	2070	0	0	0
2019/04/19 00:11:00	BASE	11.12	221	15.07	229	-3.3	79	-6.4	0	0	980.6	NA	0.0000		9999	2230	0	0	0
2019/04/19 00:12:00	BASE	10.95	225	15.07	229	-3.3	79	-6.4	0	0	980.7	NA	0.0000		9999	2200	0	0	0
2019/04/19 00:13:00	BASE	9.55	236	15.07	229	-3.3	79	-6.4	0	0	980.7	NA	0.0000		9999	2300	0	0	0
2019/04/19 00:14:00	BASE	8.33	241	15.07	229	-3.3	79	-6.4	0	0	980.7	NA	0.0000		9999	2260	0	0	0
2019/04/19 00:15:00	BASE	8.88	240	15.07	229	-3.3	79	-6.4	0	0	980.6	NA	0.0000		9999	2130	0	0	0
2019/04/19 00:16:00	BASE	9.93	233	13.79	221	-3.3	79	-6.4	0	0	980.7	NA	0.0000		9999	2100	0	0	0
2019/04/19 00:17:00	BASE	8.76	228	13.79	221	-3.3	79	-6.4	0	0	980.7	NA	0.0000		9999	2130	0	0	0
2019/04/19 00:18:00	BASE	7.04	234	13.79	221	-3.3	79	-6.4	0	0	980.7	NA	0.0000		9999	2100	0	0	0
2019/04/19 00:19:00	BASE	7.54	239	13.79	221	-3.3	79	-6.4	0	0	980.7	NA	0.0000		9999	2070	0	0	0
2019/04/19 00:20:00	BASE	7.86	236	13.79	221	-3.3	79	-6.4	0	0	980.7	NA	0.0000		9999	2100	0	0	0
2019/04/19 00:21:00	BASE	8.52	231	12.04	230	-3.3	79	-6.4	0	0	980.6	NA	0.0000		9999	2030	0	0	0
2019/04/19 00:22:00	BASE	10.54	223	12.55	222	-3.3	79	-6.4	0	0	980.6	NA	0.0000		9999	2030	0	0	0
2019/04/19 00:23:00	BASE	10.39	221	12.55	222	-3.3	79	-6.4	0	0	980.7	NA	0.0000		9999	2030	0	0	0
2019/04/19 00:24:00	BASE	9.27	227	12.55	222	-3.3	79	-6.4	0	0	980.7	NA	0.0000		9999	2000	0	0	0
2019/04/19 00:25:00	BASE	7.82	236	12.55	222	-3.3	79	-6.4	0	0	980.7	NA	0.0000		9999	2000	0	0	0
2019/04/19 00:26:00	BASE	7.08	234	12.55	222	-3.3	79	-6.4	0	0	980.7	NA	0.0000		9999	2030	0	0	0
2019/04/19 00:27:00	BASE	8.97	234	12.55	222	-3.3	79	-6.3	0	0	980.7	NA	0.0000		9999	2130	0	0	0
2019/04/19 00:28:00	BASE	10.59	241	12.55	222	-3.2	80	-6.2	0	0	980.7	NA	0.0000		9999	2330	0	0	0
2019/04/19 00:29:00	BASE	12.88	244	16.41	252	-3.2	80	-6.2	0	0	980.6	NA	0.0000		9999	2170	0	0	0
2019/04/19 00:30:00	BASE	13.50	246	16.41	252	-3.2	80	-6.2	0	0	980.7	NA	0.0000		9999	2070	0	0	0
2019/04/19 00:31:00	BASE	11.10	250	16.41	252	-3.3	80	-6.3	0	0	980.7	NA	0.0000		9999	2430	0	0	0
2019/04/19 00:32:00	BASE	11.58	241	16.41	252	-3.3	79	-6.4	0	0	980.7	NA	0.0000		9999	2490	0	0	0
2019/04/19 00:33:00	BASE	12.69	229	16.41	252	-3.3	79	-6.5	0	0	980.7	NA	0.0000		9999	2660	0	0	0
2019/04/19 00:34:00	BASE	11.92	229	16.41	252	-3.4	78	-6.6	0	0	980.7	NA	0.0000		9999	2660	0	0	0
2019/04/19 00:35:00	BASE	11.60	230	16.41	252	-3.3	78	-6.6	0	0	980.7	NA	0.0000		9999	2260	0	0	0
2019/04/19 00:36:00	BASE	11.99	229	17.65	227	-3.3	78	-6.6	0	0	980.6	NA	0.0000		9999	2400	0	0	0
2019/04/19 00:37:00	BASE	12.56	235	17.65	227	-3.3	77	-6.6	0	0	980.7	NA	0.0000		9999	2330	0	0	0
2019/04/19 00:38:00	BASE	11.55	246	17.65	227	-3.2	77	-6.7	0	0	980.7	NA	0.0000		9999	2230	0	0	0
2019/04/19 00:39:00	BASE	9.95	244	17.65	227	-3.2	77	-6.7	0	0	980.7	NA	0.0000		9999	2200	0	0	0
2019/04/19 00:40:00	BASE	9.01	238	17.65	227	-3.2	77	-6.8	0	0	980.7	NA	0.0000		9999	2260	0	0	0
2019/04/19 00:41:00	BASE	9.13	238	17.65	227	-3.2	76	-6.8	0	0	980.7	NA	0.0000		9999	2360	0	0	0
2019/04/19 00:42:00	BASE	10.54	243	17.65	227	-3.2	76	-6.8	0	0	980.6	NA	0.0000		9999	2300	0	0	0
2019/04/19 00:43:00	BASE	11.98	243	17.65	227	-3.2	76	-6.8	0	0	980.6	NA	0.0000		9999	2130	0	0	0
2019/04/19 00:44:00	BASE	12.06	234	17.65	227	-3.2	76	-6.8	0	0	980.7	NA	0.0000		9999	2100	0	0	0
2019/04/19 00:45:00	BASE	11.17	238	17.65	227	-3.2	77	-6.7	0	0	980.7	NA	0.0000		9999	2130	0	0	0
2019/04/19 00:46:00	BASE	10.50	247	16.51	232	-3.2	77	-6.7	0	0	980.7	NA	0.0000		9999	2200	0	0	0
2019/04/19 00:47:00	BASE	9.47	247	16.51	232	-3.2	77	-6.7	0	0	980.6	NA	0.0000		9999	2170	0	0	0
2019/04/19 00:48:00	BASE	8.97	242	16.51	232	-3.2	77	-6.8	0	0	980.6	NA	0.0000		9999	2230	0	0	0
2019/04/19 00:49:00	BASE	10.14	232	16.51	232	-3.2	77	-6.8	0	0	980.5	NA	0.0000		9999	2200	0	0	0
2019/04/19 00:50:00	BASE	12.16	227	16.51	232	-3.2	77	-6.7	0	0	980.5	NA	0.0000		9999	2300	0	0	0
2019/04/19 00:51:00	BASE	13.23	223	16.51	232	-3.2	77	-6.7	0	0	980.5	NA	0.0000		9999	2300	0	0	0
2019/04/19 00:52:00	BASE	12.98	221	16.51	232	-3.2	77	-6.7	0	0	980.5	NA	0.0000		9999	2100	0	0	0
2019/04/19 00:53:00	BASE	11.98	227	14.61	224	-3.1	77	-6.6	0	0	980.5	NA	0.0000		9999	2070	0	0	0
2019/04/19 00:54:00	BASE	11.51	231	14.61	224	-3.1	77	-6.6	0	0	980.6	NA	0.0000		9999	2100	0	0	0
2019/04/19 00:55:00	BASE	10.56	234	14.61	224	-3.1	77	-6.6	0	0	980.6	NA	0.0000		9999	2170	0	0	0
2019/04/19 00:56:00	BASE	9.82	240	14.61	224	-3.2	77	-6.6	0	0	980.6	NA	0.0000		9999	2200	0	0	0
2019/04/19 00:57:00	BASE	10.08	243	14.61	224	-3.2	77	-6.6	0	0	980.6	NA	0.0000		9999	2100	0	0	0
2019/04/19 00:58:00	BASE	9.54	244	14.61	224	-3.2	77	-6.6	0	0	980.6	NA	0.0000		9999	2000	0	0	0
2019/04/19 00:59:00	BASE	9.60	241	14.46	236	-3.2	77	-6.6	0	0	980.6	NA	0.0000		9999	2100	0	0	0
2019/04/19 01:00:00	BASE	10.21	231	14.40	215	-3.2	77	-6.6	0	0	980.6	NA	0.0000		9999	2130	0	0	0
2019/04/19 01:01:00	BASE	9.14	229	13.43	221	-3.2	78	-6.6	0	0	980.6	NA	0.0000		9999	2070	0	0	0
2019/04/19 01:02:00	BASE	9.51	228	13.27	228	-3.2	78	-6.5	0	0	980.5	NA	0.0000		9999	2100	0	0	0
2019/04/19 01:03:00	BASE	11.59	228	13.27	228	-3.2	78	-6.5	0	0	980.4	NA	0.0000		9999	2130	0	0	0
2019/04/19 01:04:00	BASE	10.96	228	12.76	225	-3.2	78	-6.5	0	0	980.5	NA	0.0000		9999	2100	0	0	0
2019/04/19 01:05:00	BASE	9.77	230	12.76	225	-3.2	78	-6.5	0	0	980.5	NA	0.0000		9999	2130	0	0	0
2019/04/19 01:06:00	BASE	9.72	235	12.76	225	-3.2	78	-6.5	0	0	980.5	NA	0.0000		9999	2130	0	0	0
2019/04/19 01:07:00	BASE	8.67	238	12.76	225	-3.2	78	-6.5	0	0	980.5	NA	0.0000		9999	2130	0	0	0
2019/04/19 01:08:00	BASE	8.33	239	12.76	225	-3.2	78	-6.5	0	0	980.5	NA	0.0000		9999	2170	0	0	0
2019/04/19 01:09:00	BASE	11.01	236	14.15	232	-3.2	78	-6.5	0	0	980.5	NA	0.0000		9999	2200	0	0	0
2019/04/19 01:10:00	BASE	12.01	236	14.15	232	-3.2	78	-6.5	0	0	980.5	NA	0.0000		9999	2200	0	0	0
2019/04/19 01:11:00	BASE	10.11	236	14.15	232	-3.2	78	-6.5	0	0	980.5	NA	0.0000		9999	2170	0	0	0
2019/04/19 01:12:00	BASE	9.58	235	14.15	232	-3.2	78	-6.5	0	0	980.5	NA	0.0000		9999	2170	0	0	0
2019/04/19 01:13:00	BASE	10.00	234	14.15	232	-3.2	78	-6.5	0	0	980.6	NA	0.0000		9999	2400	0	0	0
2019/04/19 01:14:00	BASE	10.28	237	14.15	232	-3.1	78	-6.4	0	0	980.6	NA	0.0000		9999	2230	0	0	0
2019/04/19 01:15:00	BASE	10.30	235	14.15	232	-3.1	78	-6.4	0	0	980.6	NA	0.0000		9999	2130	0	0	0
2019/04/19 01:16:00	BASE	10.35	233	14.15	232	-3.1	78	-6.4	0	0	980.6	NA	0.0000		9999	2130	0	0	0
2019/04/19 01:17:00	BASE	12.41	237	16.72	235	-3.1	78	-6.4	0	0	980.5	NA	0.0000		9999	2230	0	0	0
2019/04/19 01:18:00	BASE	13.20	237	16.72	235	-3.1	78	-6.4	0	0	980.6	NA	0.0000		9999	2330	0	0	0
2019/04/19 01:19:00	BASE	12.55	235	16.72	235	-3.1	78	-6.4	0	0	980.5	NA	0.0000		9999	2660	0	0	0
2019/04/19 01:20:00	BASE	13.25	237	16.72	235	-3.1	78	-6.5	0	0	980.5	NA	0.0000		9999	2400	0	0	0
2019/04/19 01:21:00	BASE	14.40	240	17.18	236	-3.1	78	-6.5	0	0	980.5	NA	0.0000		9999	2590	0	0	0
2019/04/19 01:22:00	BASE	14.66	240	17.18	236	-3.1	77	-6.5	0	0	980.5	NA	0.0000		9999	2620	0	0	0
2019/04/19 01:23:00	BASE	13.71	241	17.18	236	-3.2	77	-6.6	0	0	980.5	NA	0.0000		9999	2490	0	0	0
2019/04/19 01:24:00	BASE	13.81	239	17.18	236	-3.2	77	-6.7	0	0	980.5	NA	0.0000		9999	2690	0	0	0
2019/04/19 01:25:00	BASE	13.79	235	17.49	222	-3.2	76	-6.8	0	0	980.5	NA	0.0000		9999	2560	0	0	0
2019/04/19 01:26:00	BASE	14.23	231	17.54	226	-3.2	76	-6.9	0	0	980.5	NA	0.0000		9999	2530	0	0	0
2019/04/19 01:27:00	BASE	15.04	228	17.54	226	-3.2	75	-7.0	0	0	980.5	NA	0.0000		9999	2560	0	0	0
2019/04/19 01:28:00	BASE	14.36	228	17.54	226	-3.2	75	-7.0	0	0	980.6	NA	0.0000		9999	2400	0	0	0
2019/04/19 01:29:00	BASE	13.16	229	17.54	226	-3.2	75	-7.1	0	0	980.6	NA	0.0000		9999	2330	0	0	0
2019/04/19 01:30:00	BASE	12.62	236	17.54	226	-3.3	75	-7.1	0	0	980.6	NA	0.0000		9999	2400	0	0	0
2019/04/19 01:31:00	BASE	11.63	242	17.54	226	-3.3	75	-7.1	0	0	980.6	NA	0.0000		9999	2460	0	0	0
2019/04/19 01:32:00	BASE	10.83	243	17.54	226	-3.3	75	-7.1	0	0	980.6	NA	0.0000		9999	2360	0	0	0
2019/04/19 01:33:00	BASE	11.45	250	17.54	226	-3.3	75	-7.1	0	0	980.6	NA	0.0000		9999	2360	0	0	0
2019/04/19 01:34:00	BASE	10.68	253	17.54	226	-3.3	75	-7.2	0	0	980.6	NA	0.0000		9999	2330	0	0	0
2019/04/19 01:35:00	BASE	9.50	255	17.54	226	-3.4	75	-7.2	0	0	980.6	NA	0.0000		9999	2400	0	0	0
2019/04/19 01:36:00	BASE	9.66	258	15.74	230	-3.4	74	-7.3	0	0	980.6	NA	0.0000		9999	2430	0	0	0
2019/04/19 01:37:00	BASE	9.68	261	15.74	230	-3.4	74	-7.4	0	0	980.5	NA	0.0000		9999	2330	0	0	0
2019/04/19 01:38:00	BASE	10.08	258	14.46	227	-3.4	73	-7.5	0	0	980.5	NA	0.0000		9999	2300	0	0	0
2019/04/19 01:39:00	BASE	10.65	242	13.89	231	-3.4	73	-7.4	0	0	980.5	NA	0.0000		9999	2460	0	0	0
2019/04/19 01:40:00	BASE	10.33	230	13.68	230	-3.4	73	-7.4	0	0	980.6	NA	0.0000		9999	2490	0	0	0
2019/04/19 01:41:00	BASE	8.76	224	13.68	230	-3.4	73	-7.5	0	0	980.6	NA	0.0000		9999	2360	0	0	0
2019/04/19 01:42:00	BASE	7.83	222	13.68	230	-3.4	73	-7.5	0	0	980.6	NA	0.0000		9999	2330	0	0	0
2019/04/19 01:43:00	BASE	7.58	226	13.68	230	-3.4	73	-7.6	0	0	980.6	NA	0.0000		9999	2460	0	0	0
2019/04/19 01:44:00	BASE	6.97	230	13.68	230	-3.4	73	-7.6	0	0	980.6	NA	0.0000		9999	2360	0	0	0
2019/04/19 01:45:00	BASE	7.50	231	13.68	230	-3.4	73	-7.5	0	0	980.6	NA	0.0000		9999	2430	0	0	0
2019/04/19 01:46:00	BASE	7.78	224	13.68	230	-3.3	73	-7.5	0	0	980.6	NA	0.0000		9999	2360	0	0	0
2019/04/19 01:47:00	BASE	8.83	219	13.68	230	-3.3	73	-7.4	0	0	980.6	NA	0.0000		9999	2200	0	0	0
2019/04/19 01:48:00	BASE	10.95	222	12.91	223	-3.3	74	-7.3	0	0	980.6	NA	0.0000		9999	2260	0	0	0
2019/04/19 01:49:00	BASE	10.28	227	12.91	223	-3.3	74	-7.3	0	0	980.6	NA	0.0000		9999	2200	0	0	0
2019/04/19 01:50:00	BASE	9.06	223	12.91	223	-3.3	74	-7.3	0	0	980.6	NA	0.0000		9999	2300	0	0	0
2019/04/19 01:51:00	BASE	9.27	219	12.91	223	-3.3	74	-7.3	0	0	980.6	NA	0.0000		9999	2230	0	0	0
2019/04/19 01:52:00	BASE	9.82	217	12.91	223	-3.3	74	-7.3	0	0	980.6	NA	0.0000		9999	2230	0	0	0
2019/04/19 01:53:00	BASE	10.27	214	12.91	223	-3.3	74	-7.2	0	0	980.6	NA	0.0000		9999	2200	0	0	0
2019/04/19 01:54:00	BASE	10.88	217	13.74	213	-3.3	75	-7.2	0	0	980.6	NA	0.0000		9999	2130	0	0	0
2019/04/19 01:55:00	BASE	10.08	220	13.74	213	-3.3	75	-7.1	0	0	980.6	NA	0.0000		9999	2070	0	0	0
2019/04/19 01:56:00	BASE	7.75	226	13.74	213	-3.3	75	-7.1	0	0	980.6	NA	0.0000		9999	2000	0	0	0
2019/04/19 01:57:00	BASE	7.28	232	13.74	213	-3.3	75	-7.0	0	0	980.7	NA	0.0000		9999	1940	0	0	0
2019/04/19 01:58:00	BASE	8.06	231	13.74	213	-3.3	76	-7.0	0	0	980.7	NA	0.0000		9999	1940	0	0	0
2019/04/19 01:59:00	BASE	9.33	224	13.74	213	-3.3	76	-6.8	0	0	980.7	NA	0.0000		9999	2030	0	0	0
2019/04/19 02:00:00	BASE	10.95	216	13.74	213	-3.2	77	-6.7	0	0	980.6	NA	0.0000		9999	2000	0	0	0
2019/04/19 02:01:00	BASE	12.26	212	13.74	213	-3.2	77	-6.6	0	0	980.6	NA	0.0000		9999	2030	0	0	0
2019/04/19 02:02:00	BASE	12.32	213	13.74	213	-3.2	78	-6.5	0	0	980.7	NA	0.0000		9999	2100	0	0	0
2019/04/19 02:03:00	BASE	10.83	225	13.74	213	-3.2	78	-6.5	0	0	980.7	NA	0.0000		9999	1900	0	0	0
2019/04/19 02:04:00	BASE	9.72	235	13.38	216	-3.3	78	-6.5	0	0	980.7	NA	0.0000		9999	2000	0	0	0
2019/04/19 02:05:00	BASE	10.80	239	13.38	216	-3.3	79	-6.5	0	0	980.7	NA	0.0000		9999	2000	0	0	0
2019/04/19 02:06:00	BASE	11.51	241	13.38	216	-3.3	79	-6.5	0	0	980.7	NA	0.0000		9999	1970	0	0	0
2019/04/19 02:07:00	BASE	11.23	243	13.38	216	-3.3	79	-6.5	0	0	980.6	NA	0.0000		9999	2070	0	0	0
2019/04/19 02:08:00	BASE	11.30	240	13.38	216	-3.3	79	-6.4	0	0	980.7	NA	0.0000		9999	2100	0	0	0
2019/04/19 02:09:00	BASE	11.73	239	13.38	248	-3.3	79	-6.5	0	0	980.7	NA	0.0000		9999	2070	0	0	0
2019/04/19 02:10:00	BASE	11.44	245	13.38	248	-3.4	79	-6.5	0	0	980.7	NA	0.0000		9999	2070	0	0	0
2019/04/19 02:11:00	BASE	11.03	248	13.48	249	-3.4	79	-6.5	0	0	980.7	NA	0.0000		9999	2130	0	0	0
2019/04/19 02:12:00	BASE	11.23	255	13.48	249	-3.4	79	-6.5	0	0	980.7	NA	0.0000		9999	2170	0	0	0
2019/04/19 02:13:00	BASE	12.36	256	15.48	245	-3.4	79	-6.5	0	0	980.7	NA	0.0000		9999	2100	0	0	0
2019/04/19 02:14:00	BASE	11.77	257	15.48	245	-3.5	79	-6.6	0	0	980.7	NA	0.0000		9999	2070	0	0	0
2019/04/19 02:15:00	BASE	10.62	258	15.48	245	-3.5	79	-6.6	0	0	980.7	NA	0.0000		9999	2070	0	0	0
2019/04/19 02:16:00	BASE	11.10	250	15.48	245	-3.5	79	-6.6	0	0	980.7	NA	0.0000		9999	2200	0	0	0
2019/04/19 02:17:00	BASE	11.97	241	15.48	245	-3.5	79	-6.6	0	0	980.7	NA	0.0000		9999	2230	0	0	0
2019/04/19 02:18:00	BASE	12.13	240	15.48	245	-3.5	79	-6.7	0	0	980.7	NA	0.0000		9999	2100	0	0	0
2019/04/19 02:19:00	BASE	9.58	243	15.48	245	-3.5	79	-6.7	0	0	980.7	NA	0.0000		9999	2070	0	0	0
2019/04/19 02:20:00	BASE	7.99	245	15.48	245	-3.6	78	-6.8	0	0	980.7	NA	0.0000		9999	2130	0	0	0
2019/04/19 02:21:00	BASE	7.74	248	15.48	245	-3.6	78	-6.9	0	0	980.7	NA	0.0000		9999	2130	0	0	0
2019/04/19 02:22:00	BASE	7.86	250	15.48	245	-3.6	77	-7.0	0	0	980.7	NA	0.0000		9999	2170	0	0	0
2019/04/19 02:23:00	BASE	7.53	249	14.35	237	-3.6	77	-7.1	0	0	980.7	NA	0.0000		9999	2200	0	0	0
2019/04/19 02:24:00	BASE	7.23	240	14.35	237	-3.6	77	-7.1	0	0	980.7	NA	0.0000		9999	2170	0	0	0
2019/04/19 02:25:00	BASE	8.23	227	14.35	237	-3.6	77	-7.1	0	0	980.7	NA	0.0000		9999	2230	0	0	0
2019/04/19 02:26:00	BASE	10.00	221	14.35	237	-3.6	77	-7.1	0	0	980.6	NA	0.0000		9999	2460	0	0	0
2019/04/19 02:27:00	BASE	10.49	217	14.35	237	-3.5	77	-7.1	0	0	980.6	NA	0.0000		9999	2360	0	0	0
2019/04/19 02:28:00	BASE	10.11	208	11.99	206	-3.5	77	-7.0	0	0	980.6	NA	0.0000		9999	2260	0	0	0
2019/04/19 02:29:00	BASE	10.13	207	11.99	206	-3.5	77	-7.0	0	0	980.6	NA	0.0000		9999	2300	0	0	0
2019/04/19 02:30:00	BASE	9.34	212	11.99	206	-3.5	76	-7.1	0	0	980.6	NA	0.0000		9999	2260	0	0	0
2019/04/19 02:31:00	BASE	8.15	211	11.99	206	-3.5	76	-7.1	0	0	980.6	NA	0.0000		9999	2300	0	0	0
2019/04/19 02:32:00	BASE	8.42	216	11.99	206	-3.5	76	-7.2	0	0	980.6	NA	0.0000		9999	2300	0	0	0
2019/04/19 02:33:00	BASE	9.33	231	11.99	206	-3.5	76	-7.2	0	0	980.6	NA	0.0000		9999	2360	0	0	0
2019/04/19 02:34:00	BASE	9.03	241	11.99	206	-3.5	76	-7.2	0	0	980.6	NA	0.0000		9999	2330	0	0	0
2019/04/19 02:35:00	BASE	8.30	242	11.99	206	-3.5	76	-7.2	0	0	980.6	NA	0.0000		9999	2360	0	0	0
2019/04/19 02:36:00	BASE	8.83	243	11.99	206	-3.4	76	-7.1	0	0	980.6	NA	0.0000		9999	2330	0	0	0
2019/04/19 02:37:00	BASE	9.79	245	11.99	206	-3.4	76	-7.0	0	0	980.6	NA	0.0000		9999	2260	0	0	0
2019/04/19 02:38:00	BASE	9.54	247	11.94	243	-3.4	76	-7.0	0	0	980.6	NA	0.0000		9999	2360	0	0	0
2019/04/19 02:39:00	BASE	10.32	248	13.07	247	-3.4	76	-7.0	0	0	980.6	NA	0.0000		9999	2330	0	0	0
2019/04/19 02:40:00	BASE	10.23	247	13.07	247	-3.4	76	-7.0	0	0	980.6	NA	0.0000		9999	2230	0	0	0
2019/04/19 02:41:00	BASE	8.71	242	13.07	247	-3.4	76	-7.0	0	0	980.6	NA	0.0000		9999	2230	0	0	0
2019/04/19 02:42:00	BASE	9.57	228	13.07	247	-3.4	76	-7.0	0	0	980.6	NA	0.0000		9999	2360	0	0	0
2019/04/19 02:43:00	BASE	10.11	221	13.07	247	-3.4	76	-7.0	0	0	980.6	NA	0.0000		9999	2260	0	0	0
2019/04/19 02:44:00	BASE	10.07	219	13.07	247	-3.4	76	-7.1	0	0	980.6	NA	0.0000		9999	2300	0	0	0
2019/04/19 02:45:00	BASE	10.72	223	13.07	247	-3.4	76	-7.1	0	0	980.6	NA	0.0000		9999	2200	0	0	0
2019/04/19 02:46:00	BASE	10.14	228	13.07	247	-3.4	75	-7.1	0	0	980.6	NA	0.0000		9999	2170	0	0	0
2019/04/19 02:47:00	BASE	8.49	234	13.07	247	-3.4	75	-7.1	0	0	980.7	NA	0.0000		9999	2200	0	0	0
2019/04/19 02:48:00	BASE	8.45	232	13.07	247	-3.3	75	-7.1	0	0	980.6	NA	0.0000		9999	2200	0	0	0
2019/04/19 02:49:00	BASE	10.47	231	13.58	229	-3.3	75	-7.0	0	0	980.6	NA	0.0000		9999	2170	0	0	0
2019/04/19 02:50:00	BASE	11.85	239	13.58	229	-3.3	76	-6.9	0	0	980.6	NA	0.0000		9999	2460	0	0	0
2019/04/19 02:51:00	BASE	12.16	235	13.58	229	-3.3	76	-6.9	0	0	980.6	NA	0.0000		9999	2530	0	0	0
2019/04/19 02:52:00	BASE	11.98	233	13.58	229	-3.2	77	-6.8	0	0	980.6	NA	0.0000		9999	2360	0	0	0
2019/04/19 02:53:00	BASE	12.16	232	16.05	232	-3.2	77	-6.7	0	0	980.6	NA	0.0000		9999	2490	0	0	0
2019/04/19 02:54:00	BASE	12.44	232	16.05	232	-3.2	77	-6.7	0	0	980.6	NA	0.0000		9999	2460	0	0	0
2019/04/19 02:55:00	BASE	11.84	238	16.05	232	-3.3	77	-6.7	0	0	980.7	NA	0.0000		9999	2260	0	0	0
2019/04/19 02:56:00	BASE	11.00	234	16.05	232	-3.3	77	-6.7	0	0	980.7	NA	0.0000		9999	2100	0	0	0
2019/04/19 02:57:00	BASE	10.35	231	16.05	232	-3.3	77	-6.7	0	0	980.7	NA	0.0000		9999	2070	0	0	0
2019/04/19 02:58:00	BASE	9.45	236	16.05	232	-3.3	77	-6.8	0	0	980.7	NA	0.0000		9999	2300	0	0	0
2019/04/19 02:59:00	BASE	8.84	236	16.05	232	-3.4	77	-6.8	0	0	980.8	NA	0.0000		9999	2170	0	0	0
2019/04/19 03:00:00	BASE	9.57	230	16.05	232	-3.4	77	-6.8	0	0	980.7	NA	0.0000		9999	2200	0	0	0
2019/04/19 03:01:00	BASE	10.11	228	16.05	232	-3.4	77	-6.8	0	0	980.8	NA	0.0000		9999	2130	0	0	0
2019/04/19 03:02:00	BASE	9.06	231	16.05	232	-3.4	77	-6.8	0	0	980.8	NA	0.0000		9999	2100	0	0	0
2019/04/19 03:03:00	BASE	9.13	228	13.89	230	-3.3	77	-6.8	0	0	980.7	NA	0.0000		9999	2100	0	0	0
2019/04/19 03:04:00	BASE	11.08	223	13.43	224	-3.3	77	-6.7	0	0	980.7	NA	0.0000		9999	2030	0	0	0
2019/04/19 03:05:00	BASE	11.76	228	13.68	225	-3.3	77	-6.7	0	0	980.7	NA	0.0000		9999	2030	0	0	0
2019/04/19 03:06:00	BASE	9.84	237	13.68	225	-3.2	78	-6.6	0	0	980.8	NA	0.0000		9999	2030	0	0	0
2019/04/19 03:07:00	BASE	9.31	237	13.68	225	-3.2	78	-6.5	0	0	980.7	NA	0.0000		9999	2030	0	0	0
2019/04/19 03:08:00	BASE	10.34	230	14.61	218	-3.2	78	-6.5	0	0	980.7	NA	0.0000		9999	2000	0	0	0
2019/04/19 03:09:00	BASE	11.91	232	16.98	223	-3.2	78	-6.4	0	0	980.6	NA	0.0000		9999	1940	0	0	0
2019/04/19 03:10:00	BASE	13.74	234	16.98	223	-3.2	79	-6.4	0	0	980.6	NA	0.0000		9999	1970	0	0	0
2019/04/19 03:11:00	BASE	12.63	234	16.98	223	-3.2	79	-6.3	0	0	980.7	NA	0.0000		9999	2300	0	0	0
2019/04/19 03:12:00	BASE	10.62	235	16.98	223	-3.2	79	-6.3	0	0	980.7	NA	0.0000		9999	2230	0	0	0
2019/04/19 03:13:00	BASE	9.24	240	16.98	223	-3.2	79	-6.3	0	0	980.7	NA	0.0000		9999	2070	0	0	0
2019/04/19 03:14:00	BASE	8.58	247	16.98	223	-3.2	79	-6.4	0	0	980.7	NA	0.0000		9999	2130	0	0	0
2019/04/19 03:15:00	BASE	8.52	244	16.98	223	-3.3	79	-6.4	0	0	980.7	NA	0.0000		9999	2170	0	0	0
2019/04/19 03:16:00	BASE	7.54	242	16.98	223	-3.3	79	-6.4	0	0	980.7	NA	0.0000		9999	2070	0	0	0
2019/04/19 03:17:00	BASE	6.81	240	16.98	223	-3.3	79	-6.4	0	0	980.7	NA	0.0000		9999	1970	0	0	0
2019/04/19 03:18:00	BASE	8.17	239	16.98	223	-3.3	79	-6.4	0	0	980.7	NA	0.0000		9999	1970	0	0	0
2019/04/19 03:19:00	BASE	9.82	234	16.31	230	-3.3	79	-6.4	0	0	980.7	NA	0.0000		9999	1940	0	0	0
2019/04/19 03:20:00	BASE	9.52	230	12.55	231	-3.3	79	-6.4	0	0	980.7	NA	0.0000		9999	2000	0	0	0
2019/04/19 03:21:00	BASE	10.43	232	13.17	236	-3.3	79	-6.4	0	0	980.7	NA	0.0000		9999	1970	0	0	0
2019/04/19 03:22:00	BASE	10.82	241	13.17	236	-3.2	79	-6.4	0	0	980.7	NA	0.0000		9999	2000	0	0	0
2019/04/19 03:23:00	BASE	9.28	250	13.17	236	-3.2	79	-6.3	0	0	980.7	NA	0.0000		9999	1970	0	0	0
2019/04/19 03:24:00	BASE	9.11	242	13.17	236	-3.2	79	-6.3	0	0	980.7	NA	0.0000		9999	1970	0	0	0
2019/04/19 03:25:00	BASE	8.74	235	13.17	236	-3.2	80	-6.3	0	0	980.7	NA	0.0000		9999	1940	0	0	0
2019/04/19 03:26:00	BASE	8.31	239	13.17	236	-3.3	80	-6.3	0	0	980.7	NA	0.0000		9999	1900	0	0	0
2019/04/19 03:27:00	BASE	8.63	241	13.17	236	-3.3	80	-6.2	0	0	980.7	NA	0.0000		9999	2000	0	0	0
2019/04/19 03:28:00	BASE	9.24	238	13.17	236	-3.3	80	-6.3	0	0	980.7	NA	0.0000		9999	2100	0	0	0
2019/04/19 03:29:00	BASE	10.25	240	13.17	236	-3.3	80	-6.3	0	0	980.7	NA	0.0000		9999	2070	0	0	0
2019/04/19 03:30:00	BASE	11.45	239	14.30	245	-3.3	80	-6.3	0	0	980.7	NA	0.0000		9999	2130	0	0	0
2019/04/19 03:31:00	BASE	11.84	243	14.30	245	-3.3	80	-6.3	0	0	980.7	NA	0.0000		9999	2130	0	0	0
2019/04/19 03:32:00	BASE	11.60	252	14.30	245	-3.3	80	-6.3	0	0	980.7	NA	0.0000		9999	2070	0	0	0
2019/04/19 03:33:00	BASE	11.86	254	14.30	245	-3.3	80	-6.3	0	0	980.7	NA	0.0000		9999	2030	0	0	0
2019/04/19 03:34:00	BASE	12.81	252	14.82	244	-3.3	79	-6.4	0	0	980.7	NA	0.0000		9999	2170	0	0	0
2019/04/19 03:35:00	BASE	12.72	254	14.82	244	-3.4	79	-6.5	0	0	980.7	NA	0.0000		9999	2130	0	0	0
2019/04/19 03:36:00	BASE	11.06	258	14.82	244	-3.4	79	-6.5	0	0	980.7	NA	0.0000		9999	2030	0	0	0
2019/04/19 03:37:00	BASE	9.13	256	14.82	244	-3.4	79	-6.6	0	0	980.8	NA	0.0000		9999	2030	0	0	0
2019/04/19 03:38:00	BASE	7.77	254	14.82	244	-3.5	78	-6.7	0	0	980.8	NA	0.0000		9999	2030	0	0	0
2019/04/19 03:39:00	BASE	7.38	252	14.82	244	-3.5	78	-6.7	0	0	980.8	NA	0.0000		9999	2030	0	0	0
2019/04/19 03:40:00	BASE	9.52	235	15.12	223	-3.4	78	-6.7	0	0	980.7	NA	0.0000		9999	2000	0	0	0
2019/04/19 03:41:00	BASE	12.73	228	15.12	223	-3.4	78	-6.7	0	0	980.7	NA	0.0000		9999	2030	0	0	0
2019/04/19 03:42:00	BASE	12.68	233	15.12	223	-3.3	78	-6.6	0	0	980.7	NA	0.0000		9999	2070	0	0	0
2019/04/19 03:43:00	BASE	12.08	237	15.12	223	-3.3	78	-6.6	0	0	980.8	NA	0.0000		9999	2230	0	0	0
2019/04/19 03:44:00	BASE	12.04	236	15.12	223	-3.3	78	-6.5	0	0	980.8	NA	0.0000		9999	2130	0	0	0
2019/04/19 03:45:00	BASE	11.22	229	15.12	223	-3.3	79	-6.5	0	0	980.8	NA	0.0000		9999	2170	0	0	0
2019/04/19 03:46:00	BASE	10.24	225	15.12	223	-3.4	79	-6.5	0	0	980.8	NA	0.0000		9999	2000	0	0	0
2019/04/19 03:47:00	BASE	8.97	230	15.12	223	-3.4	79	-6.5	0	0	980.9	NA	0.0000		9999	2100	0	0	0
2019/04/19 03:48:00	BASE	7.92	236	15.12	223	-3.4	79	-6.5	0	0	980.9	NA	0.0000		9999	2100	0	0	0
2019/04/19 03:49:00	BASE	7.51	238	15.12	223	-3.4	79	-6.5	0	0	980.9	NA	0.0000		9999	2070	0	0	0
2019/04/19 03:50:00	BASE	8.05	244	14.87	237	-3.4	79	-6.6	0	0	980.9	NA	0.0000		9999	2170	0	0	0
2019/04/19 03:51:00	BASE	8.35	247	14.25	243	-3.4	79	-6.6	0	0	980.8	NA	0.0000		9999	1970	0	0	0
2019/04/19 03:52:00	BASE	8.20	245	14.25	243	-3.4	79	-6.6	0	0	980.8	NA	0.0000		9999	2170	0	0	0
2019/04/19 03:53:00	BASE	8.82	242	12.45	234	-3.4	79	-6.6	0	0	980.8	NA	0.0000		9999	2070	0	0	0
2019/04/19 03:54:00	BASE	9.71	236	12.35	238	-3.5	79	-6.6	0	0	980.8	NA	0.0000		9999	2000	0	0	0
2019/04/19 03:55:00	BASE	9.85	232	12.35	238	-3.5	79	-6.6	0	0	980.8	NA	0.0000		9999	2030	0	0	0
2019/04/19 03:56:00	BASE	9.29	231	12.35	238	-3.5	79	-6.6	0	0	980.8	NA	0.0000		9999	2070	0	0	0
2019/04/19 03:57:00	BASE	9.40	230	12.35	238	-3.4	79	-6.5	0	0	980.8	NA	0.0000		9999	2000	0	0	0
2019/04/19 03:58:00	BASE	9.58	234	12.35	238	-3.4	79	-6.5	0	0	980.8	NA	0.0000		9999	1940	0	0	0
2019/04/19 03:59:00	BASE	9.38	236	12.35	238	-3.4	80	-6.4	0	0	980.8	NA	0.0000		9999	1970	0	0	0
2019/04/19 04:00:00	BASE	8.51	234	12.35	238	-3.4	80	-6.4	0	0	980.8	NA	0.0000		9999	1940	0	0	0
2019/04/19 04:01:00	BASE	9.40	237	12.81	237	-3.4	80	-6.4	0	0	980.7	NA	0.0000		9999	2000	0	0	0
2019/04/19 04:02:00	BASE	10.50	235	12.81	237	-3.5	80	-6.4	0	0	980.8	NA	0.0000		9999	1970	0	0	0
2019/04/19 04:03:00	BASE	9.78	235	12.81	237	-3.5	80	-6.4	0	0	980.8	NA	0.0000		9999	2030	0	0	0
2019/04/19 04:04:00	BASE	10.45	236	12.81	237	-3.5	80	-6.5	0	0	980.8	NA	0.0000		9999	2170	0	0	0
2019/04/19 04:05:00	BASE	11.00	233	12.81	237	-3.5	80	-6.5	0	0	980.8	NA	0.0000		9999	2200	0	0	0
2019/04/19 04:06:00	BASE	10.20	236	12.81	237	-3.5	80	-6.5	0	0	980.8	NA	0.0000		9999	2260	0	0	0
2019/04/19 04:07:00	BASE	10.94	240	13.89	236	-3.5	80	-6.5	0	0	980.8	NA	0.0000		9999	2360	0	0	0
2019/04/19 04:08:00	BASE	12.04	233	15.23	228	-3.4	79	-6.5	0	0	980.8	NA	0.0000		9999	2300	0	0	0
2019/04/19 04:09:00	BASE	12.41	229	15.48	225	-3.4	79	-6.5	0	0	980.8	NA	0.0000		9999	2100	0	0	0
2019/04/19 04:10:00	BASE	12.06	229	15.48	225	-3.4	79	-6.5	0	0	980.9	NA	0.0000		9999	2130	0	0	0
2019/04/19 04:11:00	BASE	10.07	233	15.48	225	-3.4	79	-6.5	0	0	980.9	NA	0.0000		9999	2130	0	0	0
2019/04/19 04:12:00	BASE	9.34	241	15.48	225	-3.4	79	-6.6	0	0	981.0	NA	0.0000		9999	2030	0	0	0
2019/04/19 04:13:00	BASE	9.49	245	15.48	225	-3.5	79	-6.6	0	0	981.0	NA	0.0000		9999	2130	0	0	0
2019/04/19 04:14:00	BASE	9.68	247	15.48	225	-3.5	79	-6.6	0	0	981.0	NA	0.0000		9999	2030	0	0	0
2019/04/19 04:15:00	BASE	9.39	246	15.48	225	-3.5	79	-6.6	0	0	981.0	NA	0.0000		9999	2070	0	0	0
2019/04/19 04:16:00	BASE	9.24	239	15.48	225	-3.5	79	-6.6	0	0	981.0	NA	0.0000		9999	2230	0	0	0
2019/04/19 04:17:00	BASE	12.04	233	16.62	233	-3.5	79	-6.6	0	0	980.9	NA	0.0000		9999	2200	0	0	0
2019/04/19 04:18:00	BASE	14.12	235	16.62	233	-3.5	79	-6.6	0	0	981.0	NA	0.0000		9999	2230	0	0	0
2019/04/19 04:19:00	BASE	13.07	241	16.62	233	-3.5	79	-6.6	0	0	981.0	NA	0.0000		9999	2360	0	0	0
2019/04/19 04:20:00	BASE	12.26	243	16.62	233	-3.5	79	-6.6	0	0	981.0	NA	0.0000		9999	2360	0	0	0
2019/04/19 04:21:00	BASE	12.49	240	16.62	233	-3.5	79	-6.6	0	0	981.0	NA	0.0000		9999	2230	0	0	0
2019/04/19 04:22:00	BASE	12.45	239	16.62	233	-3.5	79	-6.6	0	0	981.0	NA	0.0000		9999	2260	0	0	0
2019/04/19 04:23:00	BASE	11.52	242	16.62	233	-3.5	79	-6.6	0	0	981.0	NA	0.0000		9999	2230	0	0	0
2019/04/19 04:24:00	BASE	9.91	242	16.62	233	-3.5	79	-6.7	0	0	981.0	NA	0.0000		9999	2170	0	0	0
2019/04/19 04:25:01	BASE	8.48	241	16.62	233	-3.5	78	-6.8	0	0	981.0	NA	0.0000		9999	2100	0	0	0
2019/04/19 04:26:00	BASE	8.64	244	16.62	233	-3.5	78	-6.8	0	0	981.0	NA	0.0000		9999	2030	0	0	0
2019/04/19 04:27:00	BASE	10.59	245	14.97	238	-3.5	78	-6.8	0	0	981.0	NA	0.0000		9999	2030	0	0	0
2019/04/19 04:28:00	BASE	11.46	243	14.40	246	-3.5	78	-6.8	0	0	981.0	NA	0.0000		9999	2000	0	0	0
2019/04/19 04:29:00	BASE	11.03	239	14.04	244	-3.5	78	-6.8	0	0	981.0	NA	0.0000		9999	1970	0	0	0
2019/04/19 04:30:00	BASE	10.96	231	13.68	237	-3.5	78	-6.7	0	0	981.0	NA	0.0000		9999	2070	0	0	0
2019/04/19 04:31:00	BASE	10.88	229	13.27	240	-3.5	78	-6.7	0	0	981.1	NA	0.0000		9999	2030	0	0	0
2019/04/19 04:32:00	BASE	10.25	228	13.27	240	-3.4	79	-6.6	0	0	981.1	NA	0.0000		9999	2260	0	0	0
2019/04/19 04:33:00	BASE	9.65	226	13.27	240	-3.4	79	-6.6	0	0	981.1	NA	0.0000		9999	2260	0	0	0
2019/04/19 04:34:00	BASE	10.23	230	13.27	240	-3.4	79	-6.5	0	0	981.1	NA	0.0000		9999	2170	0	0	0
2019/04/19 04:35:00	BASE	11.48	234	13.58	231	-3.4	79	-6.5	0	0	981.1	NA	0.0000		9999	2170	0	0	0
2019/04/19 04:36:00	BASE	11.42	229	13.58	231	-3.4	79	-6.5	0	0	981.2	NA	0.0000		9999	2260	0	0	0
2019/04/19 04:37:00	BASE	10.31	220	13.58	231	-3.5	79	-6.6	0	0	981.2	NA	0.0000		9999	2200	0	0	0
2019/04/19 04:38:00	BASE	10.13	218	13.58	231	-3.5	79	-6.7	0	0	981.2	NA	0.0000		9999	2170	0	0	0
2019/04/19 04:39:01	BASE	10.21	224	13.58	231	-3.5	78	-6.7	0	0	981.2	NA	0.0000		9999	2300	0	0	0
2019/04/19 04:40:00	BASE	10.87	234	13.58	231	-3.5	78	-6.8	0	0	981.2	NA	0.0000		9999	2300	0	0	0
2019/04/19 04:41:00	BASE	11.69	239	13.68	239	-3.5	78	-6.8	0	0	981.2	NA	0.0000		9999	2360	0	0	0
2019/04/19 04:42:00	BASE	11.53	241	13.68	239	-3.5	78	-6.8	0	0	981.2	NA	0.0000		9999	2430	0	0	0
2019/04/19 04:43:00	BASE	10.69	242	13.68	239	-3.5	78	-6.8	0	0	981.2	NA	0.0000		9999	2400	0	0	0
2019/04/19 04:44:00	BASE	11.19	235	14.15	233	-3.5	77	-6.9	0	0	981.2	NA	0.0000		9999	2360	0	0	0
2019/04/19 04:45:00	BASE	12.75	224	17.85	222	-3.5	77	-6.9	0	0	981.2	NA	0.0000		9999	2560	0	0	0
2019/04/19 04:46:00	BASE	14.23	220	17.85	222	-3.5	77	-7.0	0	0	981.2	NA	0.0000		9999	2430	0	0	0
2019/04/19 04:47:00	BASE	14.39	217	17.85	222	-3.5	77	-7.0	0	0	981.2	NA	0.0000		9999	2360	0	0	0
2019/04/19 04:48:00	BASE	12.31	207	17.85	222	-3.5	76	-7.1	0	0	981.2	NA	0.0000		9999	2260	0	0	0
2019/04/19 04:49:00	BASE	9.21	198	17.85	222	-3.6	76	-7.2	0	0	981.2	NA	0.0000		9999	2230	0	0	0
2019/04/19 04:50:00	BASE	7.06	204	17.85	222	-3.6	75	-7.4	0	0	981.2	NA	0.0000		9999	2330	0	0	0
2019/04/19 04:51:00	BASE	7.10	229	17.85	222	-3.7	75	-7.4	0	0	981.2	NA	0.0000		9999	2330	0	0	0
2019/04/19 04:52:00	BASE	8.14	245	17.85	222	-3.7	75	-7.5	0	0	981.2	NA	0.0000		9999	2200	0	0	0
2019/04/19 04:53:00	BASE	8.89	242	17.85	222	-3.7	75	-7.5	0	0	981.2	NA	0.0000		9999	2170	0	0	0
2019/04/19 04:54:00	BASE	7.99	236	17.85	222	-3.7	75	-7.5	0	0	981.2	NA	0.0000		9999	2330	0	0	0
2019/04/19 04:55:00	BASE	7.45	235	16.15	215	-3.6	75	-7.5	0	0	981.2	NA	0.0000		9999	2330	0	0	0
2019/04/19 04:56:00	BASE	7.83	234	14.25	215	-3.6	75	-7.5	0	0	981.2	NA	0.0000		9999	2260	0	0	0
2019/04/19 04:57:00	BASE	7.77	231	13.79	193	-3.6	75	-7.5	0	0	981.2	NA	0.0000		9999	2200	0	0	0
2019/04/19 04:58:00	BASE	8.38	228	10.29	222	-3.6	75	-7.4	0	0	981.2	NA	0.0000		9999	2170	0	0	0
2019/04/19 04:59:00	BASE	8.71	225	10.29	222	-3.5	75	-7.3	0	0	981.2	NA	0.0000		9999	2170	0	0	0
2019/04/19 05:00:00	BASE	8.48	230	10.29	222	-3.5	76	-7.2	0	0	981.2	NA	0.0000		9999	2200	0	0	0
2019/04/19 05:01:00	BASE	8.82	236	11.42	231	-3.5	76	-7.2	0	0	981.2	NA	0.0000		9999	2200	0	0	0
2019/04/19 05:02:00	BASE	9.75	232	11.42	231	-3.5	76	-7.1	0	0	981.2	NA	0.0000		9999	2100	0	0	0
2019/04/19 05:03:00	BASE	10.32	223	12.04	215	-3.5	76	-7.0	0	0	981.2	NA	0.0000		9999	2170	0	0	0
2019/04/19 05:04:00	BASE	10.24	223	12.04	215	-3.4	77	-7.0	0	0	981.3	NA	0.0000		9999	2230	0	0	0
2019/04/19 05:05:00	BASE	9.72	227	12.04	215	-3.4	77	-6.9	0	0	981.3	NA	0.0000		9999	2100	0	0	0
2019/04/19 05:06:00	BASE	8.86	228	12.04	215	-3.4	77	-6.8	0	0	981.4	NA	0.0000		9999	2300	0	0	0
2019/04/19 05:07:00	BASE	8.75	223	12.04	215	-3.4	77	-6.8	0	0	981.4	NA	0.0000		9999	2200	0	0	0
2019/04/19 05:08:00	BASE	9.93	220	12.04	215	-3.3	77	-6.8	0	0	981.3	NA	0.0000		9999	2100	0	0	0
2019/04/19 05:09:00	BASE	9.55	224	12.04	215	-3.4	77	-6.8	0	0	981.4	NA	0.0000		9999	2030	0	0	0
2019/04/19 05:10:00	BASE	8.59	229	12.04	215	-3.4	77	-6.8	0	0	981.4	NA	0.0000		9999	2100	0	0	0
2019/04/19 05:11:00	BASE	9.74	226	14.15	220	-3.4	77	-6.8	0	0	981.3	NA	0.0000		9999	2070	0	0	0
2019/04/19 05:12:00	BASE	12.43	221	15.84	226	-3.3	77	-6.7	0	0	981.2	NA	0.0000		9999	2200	0	0	0
2019/04/19 05:13:00	BASE	14.44	219	15.84	226	-3.3	78	-6.6	0	0	981.2	NA	0.0000		9999	2200	0	0	0
2019/04/19 05:14:00	BASE	15.07	220	17.75	228	-3.3	78	-6.5	0	0	981.2	NA	0.0000		9999	2130	0	0	0
2019/04/19 05:15:00	BASE	15.09	216	17.75	228	-3.3	79	-6.4	0	0	981.3	NA	0.0000		9999	2200	0	0	0
2019/04/19 05:16:00	BASE	13.75	213	17.75	228	-3.3	79	-6.4	0	0	981.4	NA	0.0000		9999	2100	0	0	0
2019/04/19 05:17:00	BASE	14.40	223	17.75	230	-3.3	79	-6.5	0	0	981.4	NA	0.0000		9999	2170	0	0	0
2019/04/19 05:18:00	BASE	14.10	231	17.75	230	-3.4	79	-6.5	0	0	981.4	NA	0.0000		9999	2200	0	0	0
2019/04/19 05:19:00	BASE	10.08	235	17.75	230	-3.4	78	-6.7	0	0	981.5	NA	0.0000		9999	2200	0	0	0
2019/04/19 05:20:00	BASE	8.15	243	17.75	230	-3.5	78	-6.8	0	0	981.5	NA	0.0000		9999	2260	0	0	0
2019/04/19 05:21:00	BASE	8.44	249	17.75	230	-3.5	77	-6.9	0	0	981.5	NA	0.0000		9999	2360	0	0	0
2019/04/19 05:22:00	BASE	8.95	251	17.75	230	-3.5	77	-7.0	0	0	981.6	NA	0.0000		9999	2400	0	0	0
2019/04/19 05:23:00	BASE	10.19	248	17.75	230	-3.5	76	-7.1	0	0	981.5	NA	0.0000		9999	2330	0	0	0
2019/04/19 05:24:00	BASE	10.89	245	17.75	230	-3.5	76	-7.1	0	0	981.5	NA	0.0000		9999	2330	0	0	0
2019/04/19 05:25:00	BASE	11.73	244	17.75	230	-3.5	76	-7.1	0	0	981.5	NA	0.0000		9999	2300	0	0	0
2019/04/19 05:26:00	BASE	13.13	247	17.75	230	-3.5	76	-7.1	0	0	981.5	NA	0.0000		9999	2260	0	0	0
2019/04/19 05:27:00	BASE	12.45	252	15.90	228	-3.5	76	-7.1	0	0	981.6	NA	0.0000		9999	2200	0	0	0
2019/04/19 05:28:00	BASE	10.65	252	15.84	253	-3.5	76	-7.1	0	0	981.6	NA	0.0000		9999	2300	0	0	0
2019/04/19 05:29:00	BASE	9.72	249	15.84	253	-3.5	76	-7.2	0	0	981.6	NA	0.0000		9999	2260	0	0	0
2019/04/19 05:30:00	BASE	9.12	238	15.84	253	-3.6	75	-7.3	0	0	981.6	NA	0.0000		9999	2360	0	0	0
2019/04/19 05:31:00	BASE	8.91	232	15.84	253	-3.6	75	-7.3	0	0	981.6	NA	0.0000		9999	2230	0	0	0
2019/04/19 05:32:00	BASE	7.75	235	15.84	253	-3.5	75	-7.3	0	0	981.7	NA	0.0000		9999	2200	0	0	0
2019/04/19 05:33:00	BASE	8.00	230	15.84	253	-3.5	75	-7.3	0	0	981.6	NA	0.0000		9999	2490	0	0	0
2019/04/19 05:34:00	BASE	9.51	225	15.84	253	-3.5	75	-7.3	0	0	981.6	NA	0.0000		9999	2230	0	0	0
2019/04/19 05:35:00	BASE	10.52	225	15.84	253	-3.5	75	-7.2	0	0	981.6	NA	0.0000		9999	2400	0	0	0
2019/04/19 05:36:00	BASE	10.57	225	13.38	253	-3.4	75	-7.2	0	0	981.6	NA	0.0000		9999	2200	0	0	0
2019/04/19 05:37:00	BASE	8.49	227	12.55	218	-3.4	75	-7.2	0	0	981.6	NA	0.0000		9999	2260	0	0	0
2019/04/19 05:38:00	BASE	7.61	236	12.55	218	-3.4	75	-7.2	0	0	981.7	NA	0.0000		9999	2430	0	0	0
2019/04/19 05:39:00	BASE	8.20	239	12.55	218	-3.4	75	-7.2	0	0	981.7	NA	0.0000		9999	2400	0	0	0
2019/04/19 05:40:00	BASE	9.56	239	12.71	237	-3.4	75	-7.2	0	0	981.7	NA	0.0000		9999	2330	0	0	0
2019/04/19 05:41:00	BASE	9.89	242	12.71	237	-3.4	75	-7.2	0	0	981.7	NA	0.0000		9999	2230	0	0	0
2019/04/19 05:42:00	BASE	8.56	243	12.71	237	-3.4	75	-7.2	0	0	981.7	NA	0.0000		9999	2300	0	0	0
2019/04/19 05:43:00	BASE	8.17	239	12.71	237	-3.4	75	-7.3	0	0	981.7	NA	0.0000		9999	2400	0	0	0
2019/04/19 05:44:00	BASE	8.77	236	12.71	237	-3.4	75	-7.3	0	0	981.7	NA	0.0000		9999	2300	0	0	0
2019/04/19 05:45:00	BASE	9.00	242	12.71	237	-3.5	74	-7.3	0	0	981.7	NA	0.0000		9999	2260	0	0	0
2019/04/19 05:46:00	BASE	8.77	245	12.71	237	-3.4	74	-7.3	0	0	981.7	NA	0.0000		9999	2230	0	0	0
2019/04/19 05:47:00	BASE	8.89	249	12.71	237	-3.4	74	-7.3	0	0	981.7	NA	0.0000		9999	2260	0	0	0
2019/04/19 05:48:00	BASE	9.19	252	12.71	237	-3.4	75	-7.2	0	0	981.7	NA	0.0000		9999	2260	0	0	0
2019/04/19 05:49:00	BASE	8.99	249	12.71	237	-3.3	75	-7.1	0	0	981.7	NA	0.0000		9999	2130	0	0	0
2019/04/19 05:50:00	BASE	9.82	248	13.17	243	-3.3	76	-7.0	0	0	981.7	NA	0.0000		9999	2230	0	0	0
2019/04/19 05:51:00	BASE	11.32	242	13.58	242	-3.3	76	-6.9	0	0	981.7	NA	0.0000		9999	2360	0	0	0
2019/04/19 05:52:00	BASE	12.38	236	14.35	231	-3.3	76	-6.9	0	0	981.7	NA	0.0000		9999	2360	0	0	0
2019/04/19 05:53:00	BASE	12.45	238	14.35	231	-3.4	77	-6.9	0	0	981.8	NA	0.0000		9999	2300	0	0	0
2019/04/19 05:54:00	BASE	12.26	241	14.35	231	-3.4	77	-6.9	0	0	981.8	NA	0.0000		9999	2300	0	0	0
2019/04/19 05:55:00	BASE	11.37	238	14.35	231	-3.4	77	-6.9	0	0	981.8	NA	0.0000		9999	2330	0	0	0
2019/04/19 05:56:00	BASE	9.36	247	14.35	231	-3.4	77	-6.9	0	0	981.8	NA	0.0000		9999	2400	0	0	0
2019/04/19 05:57:00	BASE	9.15	256	14.35	231	-3.4	76	-7.0	0	0	981.9	NA	0.0000		9999	2300	0	0	0
2019/04/19 05:58:00	BASE	9.65	254	14.35	231	-3.4	76	-7.0	0	0	981.9	NA	0.0000		9999	2300	0	0	0
2019/04/19 05:59:00	BASE	10.79	248	15.33	248	-3.5	76	-7.1	0	0	981.8	NA	0.0000		9999	2230	0	0	0
2019/04/19 06:00:00	BASE	10.92	239	15.33	248	-3.4	76	-7.1	0	0	981.8	NA	0.0000		9999	1970	0	0	0
2019/04/19 06:01:00	BASE	10.44	236	15.33	248	-3.4	76	-7.1	0	0	981.8	NA	0.0000		9999	2200	0	0	0
2019/04/19 06:02:00	BASE	10.94	238	15.33	248	-3.4	76	-7.0	0	0	981.9	NA	0.0000		9999	2200	0	0	0
2019/04/19 06:03:00	BASE	10.82	238	15.33	248	-3.4	76	-6.9	0	0	982.0	NA	0.0000		9999	2200	0	0	0
2019/04/19 06:04:00	BASE	11.69	245	15.38	246	-3.3	77	-6.8	0	0	981.9	NA	0.0000		9999	2170	0	0	0
2019/04/19 06:05:00	BASE	13.58	245	15.48	249	-3.3	77	-6.7	0	0	982.0	NA	0.0000		9999	2070	0	0	0
2019/04/19 06:06:00	BASE	15.36	239	18.78	232	-3.3	78	-6.7	0	0	981.9	NA	0.0000		9999	2260	0	0	0
2019/04/19 06:07:00	BASE	16.41	232	18.88	231	-3.3	78	-6.6	0	0	981.9	NA	0.0000		9999	2400	0	0	0
2019/04/19 06:08:00	BASE	16.27	227	18.88	231	-3.4	78	-6.7	0	0	982.0	NA	0.0000		9999	2430	0	0	0
2019/04/19 06:09:00	BASE	14.85	232	18.88	231	-3.4	78	-6.8	0	0	982.0	NA	0.0000		9999	2460	0	0	0
2019/04/19 06:10:00	BASE	13.11	241	18.88	231	-3.4	78	-6.8	0	0	982.1	NA	0.0000		9999	2170	0	0	0
2019/04/19 06:11:00	BASE	11.24	247	18.88	231	-3.5	77	-6.9	0	0	982.1	NA	0.0000		9999	2200	0	0	0
2019/04/19 06:12:00	BASE	10.69	253	18.88	231	-3.5	77	-7.0	0	0	982.1	NA	0.0000		9999	2230	0	0	0
2019/04/19 06:13:00	BASE	10.10	258	18.88	231	-3.5	77	-7.0	0	0	982.1	NA	0.0000		9999	2330	0	0	0
2019/04/19 06:14:00	BASE	8.65	263	18.88	231	-3.5	76	-7.1	0	0	982.0	NA	0.0000		9999	2260	0	0	0
2019/04/19 06:15:00	BASE	9.00	260	18.88	231	-3.6	76	-7.2	0	0	982.1	NA	0.0000		9999	2490	0	0	0
2019/04/19 06:16:00	BASE	10.03	255	18.88	231	-3.6	76	-7.2	0	0	982.1	NA	0.0000		9999	2360	0	0	0
2019/04/19 06:17:00	BASE	10.89	256	17.80	228	-3.5	76	-7.2	0	0	982.1	NA	0.0000		9999	2360	0	0	0
2019/04/19 06:18:00	BASE	11.91	258	16.15	254	-3.5	76	-7.1	0	0	982.1	NA	0.0000		9999	2330	0	0	0
2019/04/19 06:19:00	BASE	13.23	252	16.82	233	-3.5	76	-7.0	0	0	982.1	NA	0.0000		9999	2330	0	0	0
2019/04/19 06:20:00	BASE	13.83	239	16.82	233	-3.4	76	-7.0	0	0	982.1	NA	0.0000		9999	2360	0	0	0
2019/04/19 06:21:00	BASE	12.41	235	16.82	233	-3.4	76	-7.0	0	0	982.1	NA	0.0000		9999	2360	0	0	0
2019/04/19 06:22:00	BASE	11.07	240	16.82	233	-3.4	76	-7.0	0	0	982.2	NA	0.0000		9999	2260	0	0	0
2019/04/19 06:23:00	BASE	10.82	241	16.82	233	-3.4	76	-6.9	0	0	982.2	NA	0.0000		9999	2230	0	0	0
2019/04/19 06:24:00	BASE	11.80	239	16.82	233	-3.4	76	-7.0	0	0	982.1	NA	0.0000		9999	2170	0	0	0
2019/04/19 06:25:00	BASE	12.04	245	16.82	233	-3.4	76	-7.1	0	0	982.2	NA	0.0000		9999	2230	0	0	0
2019/04/19 06:26:00	BASE	10.81	254	16.82	233	-3.5	76	-7.1	0	0	982.2	NA	0.0000		9999	2360	0	0	0
2019/04/19 06:27:00	BASE	10.89	252	16.82	233	-3.5	75	-7.2	0	0	982.2	NA	0.0000		9999	2400	0	0	0
2019/04/19 06:28:00	BASE	10.17	250	16.82	233	-3.5	75	-7.3	0	0	982.3	NA	0.0000		9999	2490	0	0	0
2019/04/19 06:29:00	BASE	10.11	250	15.84	244	-3.5	75	-7.4	0	0	982.3	NA	0.0000		9999	2430	0	0	0
2019/04/19 06:30:00	BASE	12.30	248	15.84	244	-3.5	74	-7.5	0	0	982.2	NA	0.0000		9999	2430	0	0	0
2019/04/19 06:31:00	BASE	12.23	249	15.84	244	-3.5	74	-7.5	0	0	982.3	NA	0.0000		9999	2360	0	0	0
2019/04/19 06:32:00	BASE	12.07	249	15.84	244	-3.5	74	-7.5	0	0	982.2	NA	0.0000		9999	2560	0	0	0
2019/04/19 06:33:00	BASE	11.74	249	15.84	244	-3.5	74	-7.5	0	0	982.3	NA	0.0000		9999	2460	0	0	0
2019/04/19 06:34:00	BASE	9.97	249	14.56	245	-3.5	74	-7.6	0	0	982.3	NA	0.0000		9999	2460	0	0	0
2019/04/19 06:35:00	BASE	10.83	250	15.02	260	-3.5	74	-7.6	0	0	982.3	NA	0.0000		9999	2460	0	0	0
2019/04/19 06:36:01	BASE	12.13	258	15.02	260	-3.5	74	-7.6	0	0	982.3	NA	0.0000		9999	2430	0	0	0
2019/04/19 06:37:01	BASE	11.60	260	15.02	260	-3.5	74	-7.6	0	0	982.3	NA	0.0000		9999	2430	0	0	0
2019/04/19 06:38:01	BASE	11.23	248	15.02	260	-3.5	74	-7.5	0	0	982.3	NA	0.0000		9999	2530	0	0	0
2019/04/19 06:39:01	BASE	11.48	236	15.02	260	-3.5	74	-7.5	0	0	982.3	NA	0.0000		9999	2460	0	0	0
2019/04/19 06:40:01	BASE	10.75	235	15.02	260	-3.5	74	-7.5	0	0	982.3	NA	0.0000		9999	2430	0	0	0
2019/04/19 06:41:01	BASE	11.26	239	15.02	260	-3.5	74	-7.5	0	0	982.3	NA	0.0000		9999	2490	0	0	0
2019/04/19 06:42:01	BASE	11.98	238	15.02	260	-3.5	74	-7.5	0	0	982.3	NA	0.0000		9999	2430	0	0	0
2019/04/19 06:43:01	BASE	10.78	235	15.02	260	-3.6	74	-7.5	0	0	982.3	NA	0.0000		9999	2430	0	0	0
2019/04/19 06:44:01	BASE	10.59	236	15.02	260	-3.6	74	-7.5	0	0	982.3	NA	0.0000		9999	2530	0	0	0
2019/04/19 06:45:01	BASE	10.90	238	14.71	244	-3.6	74	-7.6	0	0	982.3	NA	0.0000		9999	2460	0	0	0
2019/04/19 06:46:01	BASE	11.69	245	14.71	244	-3.6	74	-7.6	0	0	982.3	NA	0.0000		9999	2560	0	0	0
2019/04/19 06:47:01	BASE	11.67	250	14.71	244	-3.7	74	-7.6	0	0	982.3	NA	0.0000		9999	2400	0	0	0
2019/04/19 06:48:01	BASE	9.35	249	14.71	244	-3.7	74	-7.7	0	0	982.3	NA	0.0000		9999	2430	0	0	0
2019/04/19 06:49:01	BASE	8.28	244	14.71	244	-3.7	73	-7.8	0	0	982.3	NA	0.0000		9999	2560	0	0	0
2019/04/19 06:50:01	BASE	9.63	241	14.71	244	-3.7	73	-7.8	0	0	982.3	NA	0.0000		9999	2590	0	0	0
2019/04/19 06:51:01	BASE	10.87	239	14.51	250	-3.7	73	-7.9	0	0	982.3	NA	0.0000		9999	2660	0	0	0
2019/04/19 06:52:01	BASE	10.61	234	14.51	250	-3.7	73	-7.9	0	0	982.3	NA	0.0000		9999	2560	0	0	0
2019/04/19 06:53:01	BASE	10.29	233	14.51	250	-3.7	73	-7.9	0	0	982.3	NA	0.0000		9999	2530	0	0	0
2019/04/19 06:54:01	BASE	9.64	232	14.51	250	-3.7	73	-7.8	0	0	982.3	NA	0.0000		9999	2620	0	0	0
2019/04/19 06:55:01	BASE	9.16	229	14.51	250	-3.7	73	-7.8	0	0	982.3	NA	0.0000		9999	2560	0	0	0
2019/04/19 06:56:00	BASE	9.63	233	13.84	252	-3.6	73	-7.8	0	0	982.3	NA	0.0000		9999	2460	0	0	0
2019/04/19 06:57:00	BASE	10.18	242	13.84	252	-3.6	73	-7.8	0	0	982.3	NA	0.0000		9999	2490	0	0	0
2019/04/19 06:58:00	BASE	10.00	246	13.84	252	-3.6	73	-7.8	0	0	982.3	NA	0.0000		9999	2530	0	0	0
2019/04/19 06:59:00	BASE	9.49	249	13.84	252	-3.6	73	-7.8	0	0	982.3	NA	0.0000		9999	2490	0	0	0
2019/04/19 07:00:00	BASE	9.13	248	13.84	252	-3.6	73	-7.8	0	0	982.3	NA	0.0000		9999	2560	0	0	0
2019/04/19 07:01:01	BASE	8.18	248	13.84	252	-3.7	72	-7.9	0	0	982.3	NA	0.0000		9999	2760	0	0	0
2019/04/19 07:02:00	BASE	9.06	252	14.30	235	-3.7	72	-8.0	0	0	982.3	NA	0.0000		9999	2690	0	0	0
2019/04/19 07:03:00	BASE	12.30	247	16.20	245	-3.6	72	-8.0	0	0	982.3	NA	0.0000		9999	2720	0	0	0
2019/04/19 07:04:01	BASE	13.75	246	16.20	245	-3.6	72	-8.0	0	0	982.3	NA	0.0000		9999	2660	0	0	0
2019/04/19 07:05:01	BASE	12.23	250	16.20	245	-3.6	72	-8.0	0	0	982.3	NA	0.0000		9999	2660	0	0	0
2019/04/19 07:06:00	BASE	10.41	245	16.20	245	-3.6	72	-8.0	0	0	982.2	NA	0.0000		9999	2690	0	0	0
2019/04/19 07:07:00	BASE	10.96	242	16.20	245	-3.6	72	-7.9	0	0	982.2	NA	0.0000		9999	2690	0	0	0
2019/04/19 07:08:00	BASE	13.12	240	16.20	245	-3.6	72	-7.9	0	0	982.2	NA	0.0000		9999	2720	0	0	0
2019/04/19 07:09:00	BASE	13.42	240	16.20	245	-3.6	72	-7.9	0	0	982.2	NA	0.0000		9999	2850	0	0	0
2019/04/19 07:10:00	BASE	11.86	238	16.20	245	-3.6	72	-7.8	0	0	982.2	NA	0.0000		9999	2690	0	0	0
2019/04/19 07:11:00	BASE	12.37	237	16.31	236	-3.5	72	-7.7	0	0	982.2	NA	0.0000		9999	2790	0	0	0
2019/04/19 07:12:00	BASE	13.08	240	16.31	236	-3.5	73	-7.7	0	0	982.2	NA	0.0000		9999	2360	0	0	0
2019/04/19 07:13:00	BASE	11.70	243	16.31	236	-3.5	73	-7.7	0	0	982.3	NA	0.0000		9999	2690	0	0	0
2019/04/19 07:14:00	BASE	10.98	242	16.31	236	-3.5	73	-7.6	0	0	982.3	NA	0.0000		9999	2430	3020	0	0
2019/04/19 07:15:00	BASE	10.39	242	16.31	236	-3.5	73	-7.6	0	0	982.3	NA	0.0000		9999	2760	0	0	0
2019/04/19 07:16:00	BASE	10.69	244	16.31	236	-3.6	74	-7.6	0	0	982.3	NA	0.0000		9999	2430	0	0	0
2019/04/19 07:17:00	BASE	10.34	242	16.31	236	-3.6	74	-7.6	0	0	982.3	NA	0.0000		9999	2300	0	0	0
2019/04/19 07:18:00	BASE	8.94	235	16.31	236	-3.6	74	-7.7	0	0	982.3	NA	0.0000		9999	2360	0	0	0
2019/04/19 07:19:00	BASE	8.94	239	16.31	236	-3.7	73	-7.7	0	0	982.3	NA	0.0000		9999	2360	0	0	0
2019/04/19 07:20:00	BASE	9.46	251	16.31	236	-3.7	73	-7.8	0	0	982.3	NA	0.0000		9999	2430	0	0	0
2019/04/19 07:21:00	BASE	10.15	255	14.20	244	-3.7	73	-7.8	0	0	982.2	NA	0.0000		9999	2400	0	0	0
2019/04/19 07:22:00	BASE	11.42	252	15.48	250	-3.6	74	-7.7	0	0	982.2	NA	0.0000		9999	2330	0	0	0
2019/04/19 07:23:00	BASE	12.54	246	15.59	253	-3.6	74	-7.6	0	0	982.2	NA	0.0000		9999	2130	0	0	0
2019/04/19 07:24:00	BASE	11.18	242	15.59	253	-3.6	74	-7.5	0	0	982.3	NA	0.0000		9999	2590	0	0	0
2019/04/19 07:25:00	BASE	8.79	244	15.59	253	-3.7	75	-7.5	0	0	982.2	NA	0.0000		9999	2760	0	0	0
2019/04/19 07:26:00	BASE	8.28	250	15.59	253	-3.7	75	-7.5	0	0	982.2	NA	0.0000		9999	2920	0	0	0
2019/04/19 07:27:00	BASE	9.38	256	15.59	253	-3.7	75	-7.5	0	0	982.2	NA	0.0000		9999	2820	0	0	0
2019/04/19 07:28:00	BASE	9.86	249	15.59	253	-3.7	75	-7.4	0	0	982.2	NA	0.0000		9999	2760	0	0	0
2019/04/19 07:29:00	BASE	9.64	245	15.59	253	-3.7	76	-7.4	0	0	982.2	NA	0.0000		9999	2620	0	0	0
2019/04/19 07:30:00	BASE	9.54	247	15.59	253	-3.7	76	-7.4	0	0	982.2	NA	0.0000		9999	2760	0	0	0
2019/04/19 07:31:00	BASE	9.10	242	15.59	253	-3.7	76	-7.4	0	0	982.2	NA	0.0000		9999	2720	0	0	0
2019/04/19 07:32:00	BASE	8.93	242	15.59	253	-3.7	75	-7.5	0	0	982.2	NA	0.0000		9999	2720	0	0	0
2019/04/19 07:33:00	BASE	8.93	241	12.04	252	-3.7	75	-7.5	0	0	982.2	NA	0.0000		9999	2690	0	0	0
2019/04/19 07:34:00	BASE	8.31	236	12.04	252	-3.7	74	-7.6	0	0	982.2	NA	0.0000		9999	2660	0	0	0
2019/04/19 07:35:00	BASE	8.19	233	12.04	252	-3.7	74	-7.6	0	0	982.2	NA	0.0000		9999	2720	0	0	0
2019/04/19 07:36:00	BASE	9.07	228	11.21	234	-3.7	74	-7.6	0	0	982.1	NA	0.0000		9999	2760	0	0	0
2019/04/19 07:37:00	BASE	9.74	228	11.42	229	-3.6	74	-7.5	0	0	982.2	NA	0.0000		9999	2790	0	0	0
2019/04/19 07:38:00	BASE	9.12	229	11.42	229	-3.6	75	-7.5	0	0	982.2	NA	0.0000		9999	2660	0	0	0
2019/04/19 07:39:00	BASE	7.62	227	11.42	229	-3.6	75	-7.4	0	0	982.2	NA	0.0000		9999	2490	0	0	0
2019/04/19 07:40:00	BASE	7.67	231	11.42	229	-3.5	75	-7.3	0	0	982.1	NA	0.0000		9999	2360	2890	0	0
2019/04/19 07:41:00	BASE	8.42	236	11.42	229	-3.5	75	-7.3	0	0	982.1	NA	0.0000		9999	2300	0	0	0
2019/04/19 07:42:00	BASE	8.83	234	11.47	230	-3.5	75	-7.3	0	0	982.1	NA	0.0000		9999	2460	0	0	0
2019/04/19 07:43:00	BASE	9.84	228	11.73	229	-3.5	75	-7.2	0	0	982.1	NA	0.0000		9999	2530	0	0	0
2019/04/19 07:44:00	BASE	9.63	222	11.73	229	-3.5	75	-7.2	0	0	982.1	NA	0.0000		9999	2690	0	0	0
2019/04/19 07:45:00	BASE	8.81	222	11.73	229	-3.5	75	-7.3	0	0	982.1	NA	0.0000		9999	2660	0	0	0
2019/04/19 07:46:00	BASE	9.36	222	11.73	229	-3.5	75	-7.3	0	0	982.1	NA	0.0000		9999	2590	0	0	0
2019/04/19 07:47:00	BASE	9.27	217	11.73	229	-3.5	74	-7.4	0	0	982.1	NA	0.0000		9999	2660	0	0	0
2019/04/19 07:48:00	BASE	7.95	224	11.73	229	-3.5	74	-7.5	0	0	982.2	NA	0.0000		9999	2260	2790	0	0
2019/04/19 07:49:00	BASE	7.29	229	11.73	229	-3.4	73	-7.6	0	0	982.2	NA	0.0000		9999	2260	0	0	0
2019/04/19 07:50:00	BASE	7.94	228	11.73	229	-3.4	73	-7.5	0	0	982.1	NA	0.0000		9999	2430	0	0	0
2019/04/19 07:51:00	BASE	8.86	235	11.73	229	-3.4	73	-7.5	0	0	982.1	NA	0.0000		9999	2460	0	0	0
2019/04/19 07:52:00	BASE	10.34	236	13.38	222	-3.4	73	-7.5	0	0	982.1	NA	0.0000		9999	2460	0	0	0
2019/04/19 07:53:00	BASE	11.92	232	14.46	242	-3.4	74	-7.4	0	0	982.0	NA	0.0000		9999	2460	0	0	0
2019/04/19 07:54:00	BASE	12.24	235	14.46	242	-3.4	74	-7.4	0	0	982.0	NA	0.0000		9999	2400	0	0	0
2019/04/19 07:55:00	BASE	10.51	234	14.46	242	-3.4	74	-7.4	0	0	982.1	NA	0.0000		9999	2400	0	0	0
2019/04/19 07:56:00	BASE	9.40	238	14.46	242	-3.5	74	-7.5	0	0	982.1	NA	0.0000		9999	2460	0	0	0
2019/04/19 07:57:00	BASE	9.23	243	14.46	242	-3.5	73	-7.6	0	0	982.1	NA	0.0000		9999	2490	0	0	0
2019/04/19 07:58:00	BASE	8.31	245	14.46	242	-3.5	73	-7.7	0	0	982.1	NA	0.0000		9999	2560	0	0	0
2019/04/19 07:59:00	BASE	9.75	243	14.46	242	-3.6	73	-7.8	0	0	982.1	NA	0.0000		9999	2620	0	0	0
2019/04/19 08:00:00	BASE	11.03	243	14.46	242	-3.6	72	-7.8	0	0	982.1	NA	0.0000		9999	2590	0	0	0
2019/04/19 08:01:00	BASE	9.88	247	14.46	242	-3.5	72	-7.9	0	0	982.1	NA	0.0000		9999	2530	0	0	0
2019/04/19 08:02:00	BASE	9.13	240	14.46	242	-3.5	72	-7.8	0	0	982.1	NA	0.0000		9999	2530	0	0	0
2019/04/19 08:03:00	BASE	9.94	233	14.35	235	-3.5	72	-7.8	0	0	982.1	NA	0.0000		9999	2620	0	0	0
2019/04/19 08:04:00	BASE	10.48	236	12.55	237	-3.5	72	-7.7	0	0	982.1	NA	0.0000		9999	2620	0	0	0
2019/04/19 08:05:00	BASE	10.18	234	12.55	237	-3.4	73	-7.6	0	0	982.1	NA	0.0000		9999	2530	0	0	0
2019/04/19 08:06:00	BASE	9.83	232	12.55	237	-3.4	73	-7.6	0	0	982.0	NA	0.0000		9999	2530	0	0	0
2019/04/19 08:07:00	BASE	10.47	238	12.55	237	-3.4	73	-7.6	0	0	982.0	NA	0.0000		9999	2530	0	0	0
2019/04/19 08:08:00	BASE	11.45	235	12.55	237	-3.4	73	-7.6	0	0	982.0	NA	0.0000		9999	2590	0	0	0
2019/04/19 08:09:00	BASE	11.65	229	12.71	229	-3.4	73	-7.6	0	0	982.0	NA	0.0000		9999	2560	0	0	0
2019/04/19 08:10:00	BASE	11.86	231	14.66	232	-3.4	73	-7.6	0	0	981.9	NA	0.0000		9999	2590	0	0	0
2019/04/19 08:11:00	BASE	12.80	233	15.28	236	-3.4	73	-7.6	0	0	981.9	NA	0.0000		9999	2690	0	0	0
2019/04/19 08:12:00	BASE	12.88	235	15.28	236	-3.4	73	-7.5	0	0	981.9	NA	0.0000		9999	2660	0	0	0
2019/04/19 08:13:00	BASE	12.36	237	15.28	236	-3.4	74	-7.4	0	0	982.0	NA	0.0000		9999	2690	0	0	0
2019/04/19 08:14:00	BASE	12.55	237	15.28	236	-3.4	74	-7.4	0	0	982.0	NA	0.0000		9999	2620	0	0	0
2019/04/19 08:15:00	BASE	12.77	235	15.28	236	-3.4	74	-7.4	0	0	982.0	NA	0.0000		9999	2760	0	0	0
2019/04/19 08:16:01	BASE	13.99	230	17.59	226	-3.4	74	-7.4	0	0	981.9	NA	0.0000		9999	2760	0	0	0
2019/04/19 08:17:00	BASE	14.62	225	17.59	226	-3.5	74	-7.4	0	0	982.0	NA	0.0000		9999	3020	0	0	0
2019/04/19 08:18:00	BASE	13.17	222	17.59	226	-3.5	74	-7.6	0	0	982.0	NA	0.0000		9999	2890	0	0	0
2019/04/19 08:19:00	BASE	10.81	219	17.59	226	-3.6	73	-7.7	0	0	982.0	NA	0.0000		9999	2760	0	0	0
2019/04/19 08:20:00	BASE	9.16	216	17.59	226	-3.6	73	-7.7	0	0	982.0	NA	0.0000		9999	2560	0	0	0
2019/04/19 08:21:00	BASE	9.15	221	17.59	226	-3.6	73	-7.8	0	0	982.1	NA	0.0000		9999	2360	3020	0	0
2019/04/19 08:22:00	BASE	9.41	231	17.59	226	-3.6	73	-7.8	0	0	982.1	NA	0.0000		9999	2490	0	0	0
2019/04/19 08:23:00	BASE	10.33	240	17.59	226	-3.6	73	-7.7	0	0	982.1	NA	0.0000		9999	2330	0	0	0
2019/04/19 08:24:00	BASE	11.09	247	17.59	226	-3.6	74	-7.6	0	0	982.1	NA	0.0000		9999	2330	0	0	0
2019/04/19 08:25:00	BASE	11.40	249	17.59	226	-3.6	74	-7.6	0	0	982.1	NA	0.0000		9999	2360	0	0	0
2019/04/19 08:26:00	BASE	11.06	249	15.54	229	-3.6	74	-7.5	0	0	982.1	NA	0.0000		9999	2400	0	0	0
2019/04/19 08:27:00	BASE	10.47	245	13.58	215	-3.7	74	-7.5	0	0	982.1	NA	0.0000		9999	2430	0	0	0
2019/04/19 08:28:00	BASE	11.12	248	13.27	248	-3.7	74	-7.6	0	0	982.1	NA	0.0000		9999	2400	0	0	0
2019/04/19 08:29:00	BASE	10.99	254	13.27	248	-3.7	74	-7.6	0	0	982.1	NA	0.0000		9999	2400	0	0	0
2019/04/19 08:30:00	BASE	10.86	253	13.27	248	-3.7	74	-7.7	0	0	982.2	NA	0.0000		9999	2430	0	0	0
2019/04/19 08:31:00	BASE	10.47	247	13.27	248	-3.7	74	-7.7	0	0	982.2	NA	0.0000		9999	2620	0	0	0
2019/04/19 08:32:00	BASE	10.55	243	13.27	248	-3.8	74	-7.7	0	0	982.2	NA	0.0000		9999	2460	0	0	0
2019/04/19 08:33:00	BASE	11.26	246	13.27	248	-3.8	74	-7.8	0	0	982.2	NA	0.0000		9999	2460	0	0	0
2019/04/19 08:34:00	BASE	10.46	250	13.27	248	-3.8	73	-7.9	0	0	982.2	NA	0.0000		9999	2490	0	0	0
2019/04/19 08:35:00	BASE	8.51	248	13.17	242	-3.8	73	-8.0	0	0	982.2	NA	0.0000		9999	2360	0	0	0
2019/04/19 08:36:00	BASE	7.03	248	13.17	242	-3.8	72	-8.0	0	0	982.2	NA	0.0000		9999	2590	0	0	0
2019/04/19 08:37:00	BASE	7.15	251	13.02	237	-3.8	72	-8.1	0	0	982.3	NA	0.0000		9999	2660	0	0	0
2019/04/19 08:38:00	BASE	7.14	251	13.02	237	-3.8	72	-8.1	0	0	982.3	NA	0.0000		9999	2530	0	0	0
2019/04/19 08:39:00	BASE	6.28	248	13.02	237	-3.8	72	-8.1	0	0	982.3	NA	0.0000		9999	2690	0	0	0
2019/04/19 08:40:00	BASE	5.98	248	13.02	237	-3.8	72	-8.2	0	0	982.3	NA	0.0000		9999	2460	0	0	0
2019/04/19 08:41:00	BASE	5.85	253	13.02	237	-3.8	71	-8.2	0	0	982.3	NA	0.0000		9999	2460	0	0	0
2019/04/19 08:42:00	BASE	5.31	255	12.19	252	-3.8	71	-8.2	0	0	982.3	NA	0.0000		9999	2460	0	0	0
2019/04/19 08:43:00	BASE	6.10	249	11.01	223	-3.8	71	-8.2	0	0	982.3	NA	0.0000		9999	2460	0	0	0
2019/04/19 08:44:00	BASE	8.58	247	11.47	244	-3.7	72	-8.1	0	0	982.3	NA	0.0000		9999	2530	0	0	0
2019/04/19 08:45:00	BASE	11.38	249	14.61	252	-3.7	72	-8.0	0	0	982.3	NA	0.0000		9999	2530	0	0	0
2019/04/19 08:46:00	BASE	12.39	248	14.61	252	-3.6	72	-7.9	0	0	982.3	NA	0.0000		9999	2590	0	0	0
2019/04/19 08:47:00	BASE	11.20	245	14.61	252	-3.6	73	-7.7	0	0	982.3	NA	0.0000		9999	2590	0	0	0
2019/04/19 08:48:00	BASE	11.11	247	14.61	253	-3.5	73	-7.6	0	0	982.3	NA	0.0000		9999	2590	0	0	0
2019/04/19 08:49:00	BASE	12.13	243	14.61	253	-3.5	73	-7.6	0	0	982.3	NA	0.0000		9999	2530	0	0	0
2019/04/19 08:50:00	BASE	11.09	241	14.61	253	-3.5	73	-7.6	0	0	982.3	NA	0.0000		9999	2560	0	0	0
2019/04/19 08:51:00	BASE	10.34	252	14.61	253	-3.5	73	-7.6	0	0	982.3	NA	0.0000		9999	2590	0	0	0
2019/04/19 08:52:00	BASE	11.44	261	15.28	262	-3.5	73	-7.6	0	0	982.3	NA	0.0000		9999	2490	0	0	0
2019/04/19 08:53:00	BASE	12.50	254	15.38	261	-3.6	73	-7.7	0	0	982.3	NA	0.0000		9999	2460	0	0	0
2019/04/19 08:54:00	BASE	12.02	247	15.38	261	-3.6	73	-7.7	0	0	982.3	NA	0.0000		9999	2560	0	0	0
2019/04/19 08:55:00	BASE	11.38	247	15.38	261	-3.6	73	-7.7	0	0	982.3	NA	0.0000		9999	2430	0	0	0
2019/04/19 08:56:00	BASE	11.84	245	15.38	261	-3.6	73	-7.8	0	0	982.3	NA	0.0000		9999	2460	0	0	0
2019/04/19 08:57:00	BASE	10.42	242	15.38	261	-3.6	72	-7.8	0	0	982.4	NA	0.0000		9999	2560	0	0	0
2019/04/19 08:58:00	BASE	8.78	241	15.38	261	-3.6	72	-7.9	0	0	982.3	NA	0.0000		9999	2490	0	0	0
2019/04/19 08:59:00	BASE	8.78	247	15.38	261	-3.6	72	-7.9	0	0	982.4	NA	0.0000		9999	2660	0	0	0
2019/04/19 09:00:00	BASE	9.54	254	15.38	261	-3.6	72	-8.0	0	0	982.3	NA	0.0000		9999	2490	0	0	0
2019/04/19 09:01:00	BASE	10.32	250	15.38	261	-3.6	72	-8.0	0	0	982.3	NA	0.0000		9999	2530	0	0	0
2019/04/19 09:02:01	BASE	10.19	248	15.38	261	-3.5	72	-7.9	0	0	982.4	NA	0.0000		9999	2620	0	0	0
2019/04/19 09:03:00	BASE	11.31	250	13.89	252	-3.5	72	-7.8	0	0	982.4	NA	0.0000		9999	2660	0	0	0
2019/04/19 09:04:00	BASE	12.12	241	14.35	245	-3.5	73	-7.7	0	0	982.4	NA	0.0000		9999	2790	0	0	0
2019/04/19 09:05:00	BASE	11.98	237	14.71	240	-3.5	73	-7.6	0	0	982.5	NA	0.0000		9999	2720	0	0	0
2019/04/19 09:06:00	BASE	11.48	239	14.71	240	-3.5	73	-7.6	0	0	982.6	NA	0.0000		9999	2620	0	0	0
2019/04/19 09:07:00	BASE	10.01	238	14.71	240	-3.6	73	-7.7	0	0	982.6	NA	0.0000		9999	2490	0	0	0
2019/04/19 09:08:00	BASE	8.94	236	14.71	240	-3.6	73	-7.7	0	0	982.6	NA	0.0000		9999	2430	0	0	0
2019/04/19 09:09:00	BASE	8.02	239	14.71	240	-3.6	72	-7.9	0	0	982.6	NA	0.0000		9999	2460	0	0	0
2019/04/19 09:10:00	BASE	7.82	249	14.71	240	-3.7	72	-8.0	0	0	982.6	NA	0.0000		9999	2460	0	0	0
2019/04/19 09:11:00	BASE	7.55	250	14.71	240	-3.7	72	-8.1	0	0	982.6	NA	0.0000		9999	2490	0	0	0
2019/04/19 09:12:00	BASE	6.93	240	14.71	240	-3.7	72	-8.1	0	0	982.6	NA	0.0000		9999	2430	0	0	0
2019/04/19 09:13:00	BASE	7.11	233	14.71	240	-3.7	72	-8.1	0	0	982.6	NA	0.0000		9999	2430	0	0	0
2019/04/19 09:14:00	BASE	8.28	235	14.71	240	-3.7	72	-8.0	0	0	982.6	NA	0.0000		9999	2530	0	0	0
2019/04/19 09:15:00	BASE	10.58	247	13.07	257	-3.7	72	-7.9	0	0	982.6	NA	0.0000		9999	2490	0	0	0
2019/04/19 09:16:00	BASE	12.38	255	14.25	264	-3.7	73	-7.9	0	0	982.6	NA	0.0000		9999	2530	0	0	0
2019/04/19 09:17:00	BASE	13.59	255	15.79	256	-3.7	73	-7.8	0	0	982.6	NA	0.0000		9999	2660	0	0	0
2019/04/19 09:18:00	BASE	14.04	258	15.79	256	-3.7	73	-7.8	0	0	982.5	NA	0.0000		9999	2690	0	0	0
2019/04/19 09:19:00	BASE	12.37	259	15.79	256	-3.7	73	-7.9	0	0	982.6	NA	0.0000		9999	2660	0	0	0
2019/04/19 09:20:00	BASE	10.00	261	15.79	256	-3.7	73	-7.9	0	0	982.6	NA	0.0000		9999	2720	0	0	0
2019/04/19 09:21:00	BASE	8.13	266	15.79	256	-3.7	72	-8.0	0	0	982.6	NA	0.0000		9999	2790	0	0	0
2019/04/19 09:22:00	BASE	6.91	270	15.79	256	-3.8	72	-8.0	0	0	982.6	NA	0.0000		9999	2790	0	0	0
2019/04/19 09:23:00	BASE	6.59	264	15.79	256	-3.8	72	-8.1	0	0	982.6	NA	0.0000		9999	2820	0	0	0
2019/04/19 09:24:00	BASE	6.52	258	15.79	256	-3.8	72	-8.1	0	0	982.6	NA	0.0000		9999	2790	0	0	0
2019/04/19 09:25:00	BASE	5.99	260	15.79	256	-3.8	72	-8.1	0	0	982.6	NA	0.0000		9999	2850	0	0	0
2019/04/19 09:26:00	BASE	6.30	259	15.79	256	-3.8	72	-8.1	0	0	982.6	NA	0.0000		9999	2820	0	0	0
2019/04/19 09:27:00	BASE	6.74	255	14.51	252	-3.8	72	-8.1	0	0	982.7	NA	0.0000		9999	2890	0	0	0
2019/04/19 09:28:00	BASE	7.21	251	12.45	259	-3.7	72	-8.0	0	0	982.7	NA	0.0000		9999	2890	0	0	0
2019/04/19 09:29:00	BASE	8.16	250	11.11	256	-3.7	72	-8.1	0	0	982.7	NA	0.0000		9999	2850	0	0	0
2019/04/19 09:30:00	BASE	7.96	246	9.11	246	-3.7	72	-8.1	0	0	982.7	NA	0.0000		9999	2850	0	0	0
2019/04/19 09:31:00	BASE	7.99	242	9.67	238	-3.7	72	-8.1	0	0	982.7	NA	0.0000		9999	2820	0	0	0
2019/04/19 09:32:00	BASE	8.95	241	11.16	242	-3.7	72	-8.1	0	0	982.8	NA	0.0000		9999	2820	0	0	0
2019/04/19 09:33:00	BASE	8.62	238	11.16	242	-3.7	72	-8.0	0	0	982.8	NA	0.0000		9999	2660	0	0	0
2019/04/19 09:34:00	BASE	7.92	236	11.16	242	-3.7	72	-7.9	0	0	982.8	NA	0.0000		9999	2430	0	0	0
2019/04/19 09:35:00	BASE	7.69	231	11.16	242	-3.6	73	-7.8	0	0	982.8	NA	0.0000		9999	2530	0	0	0
2019/04/19 09:36:00	BASE	7.68	231	11.16	242	-3.6	73	-7.7	0	0	982.8	NA	0.0000		9999	2820	0	0	0
2019/04/19 09:37:00	BASE	8.70	240	11.16	242	-3.6	74	-7.6	0	0	982.9	NA	0.0000		9999	2490	0	0	0
2019/04/19 09:38:00	BASE	10.21	240	11.88	242	-3.6	74	-7.6	0	0	982.8	NA	0.0000		9999	2560	0	0	0
2019/04/19 09:39:00	BASE	10.59	235	11.88	242	-3.5	74	-7.5	0	0	982.8	NA	0.0000		9999	2720	0	0	0
2019/04/19 09:40:00	BASE	9.42	233	11.88	242	-3.5	73	-7.6	0	0	982.9	NA	0.0000		9999	2660	0	0	0
2019/04/19 09:41:00	BASE	8.65	238	11.88	242	-3.5	73	-7.7	0	0	982.9	NA	0.0000		9999	2530	0	0	0
2019/04/19 09:42:00	BASE	8.76	246	11.88	242	-3.5	72	-7.8	0	0	982.9	NA	0.0000		9999	2560	0	0	0
2019/04/19 09:43:00	BASE	9.62	252	12.40	258	-3.5	72	-7.9	0	0	982.9	NA	0.0000		9999	2460	0	0	0
2019/04/19 09:44:00	BASE	10.24	254	12.40	258	-3.5	71	-8.0	0	0	982.9	NA	0.0000		9999	2620	0	0	0
2019/04/19 09:45:00	BASE	8.84	252	12.40	258	-3.5	71	-8.1	0	0	982.9	NA	0.0000		9999	2660	0	0	0
2019/04/19 09:46:00	BASE	7.74	251	12.40	258	-3.6	70	-8.2	0	0	982.9	NA	0.0000		9999	2850	0	0	0
2019/04/19 09:47:00	BASE	7.55	247	12.40	258	-3.6	70	-8.2	0	0	982.9	NA	0.0000		9999	2790	0	0	0
2019/04/19 09:48:00	BASE	6.84	246	12.40	258	-3.6	70	-8.3	0	0	982.9	NA	0.0000		9999	2620	0	0	0
2019/04/19 09:49:00	BASE	6.33	246	12.40	258	-3.5	69	-8.3	0	0	982.9	NA	0.0000		9999	2560	0	0	0
2019/04/19 09:50:00	BASE	7.06	244	12.40	258	-3.5	70	-8.3	0	0	982.8	NA	0.0000		9999	2660	0	0	0
2019/04/19 09:51:00	BASE	9.84	243	13.58	243	-3.5	70	-8.2	0	0	982.8	NA	0.0000		9999	2660	0	0	0
2019/04/19 09:52:00	BASE	11.12	240	13.58	243	-3.5	70	-8.1	0	0	982.8	NA	0.0000		9999	2620	0	0	0
2019/04/19 09:53:00	BASE	10.40	239	13.58	243	-3.5	71	-8.0	0	0	982.9	NA	0.0000		9999	2690	0	0	0
2019/04/19 09:54:00	BASE	10.01	243	13.58	243	-3.5	71	-8.0	0	0	982.9	NA	0.0000		9999	2560	0	0	0
2019/04/19 09:55:00	BASE	9.73	241	13.58	243	-3.5	70	-8.1	0	0	982.9	NA	0.0000		9999	2560	0	0	0
2019/04/19 09:56:00	BASE	9.94	234	13.58	243	-3.5	70	-8.2	0	0	982.9	NA	0.0000		9999	2530	0	0	0
2019/04/19 09:57:00	BASE	10.46	238	13.58	243	-3.5	70	-8.2	0	0	982.9	NA	0.0000		9999	2530	0	0	0
2019/04/19 09:58:00	BASE	9.90	245	13.58	243	-3.5	70	-8.3	0	0	982.9	NA	0.0000		9999	2660	3250	0	0
2019/04/19 09:59:00	BASE	8.85	249	13.58	243	-3.5	69	-8.4	0	0	982.9	NA	0.0000		9999	2890	0	0	0
2019/04/19 10:00:00	BASE	8.56	247	13.58	243	-3.6	69	-8.4	0	0	982.9	NA	0.0000		9999	2790	0	0	0
2019/04/19 10:01:00	BASE	9.01	234	12.24	231	-3.6	69	-8.5	0	0	982.9	NA	0.0000		9999	2620	0	0	0
2019/04/19 10:02:00	BASE	10.34	223	13.74	219	-3.6	68	-8.6	0	0	982.9	NA	0.0000		9999	2690	0	0	0
2019/04/19 10:03:00	BASE	11.04	222	13.74	219	-3.6	69	-8.5	0	0	982.9	NA	0.0000		9999	2760	0	0	0
2019/04/19 10:04:00	BASE	11.72	228	13.74	219	-3.5	69	-8.4	0	0	982.9	NA	0.0000		9999	2720	0	0	0
2019/04/19 10:05:00	BASE	10.46	235	13.74	219	-3.5	70	-8.2	0	0	982.9	NA	0.0000		9999	2690	0	0	0
2019/04/19 10:06:00	BASE	8.54	234	13.74	219	-3.5	70	-8.1	0	0	982.9	NA	0.0000		9999	2490	0	0	0
2019/04/19 10:07:00	BASE	9.61	227	13.74	219	-3.5	71	-8.1	0	0	982.9	NA	0.0000		9999	2660	0	0	0
2019/04/19 10:08:00	BASE	10.52	220	13.74	219	-3.5	71	-8.0	0	0	982.9	NA	0.0000		9999	2820	0	0	0
2019/04/19 10:09:00	BASE	10.16	218	13.74	219	-3.6	71	-8.1	0	0	982.9	NA	0.0000		9999	2850	0	0	0
2019/04/19 10:10:00	BASE	10.20	226	13.74	219	-3.6	71	-8.2	0	0	982.9	NA	0.0000		9999	2820	0	0	0
2019/04/19 10:11:00	BASE	10.19	231	13.74	219	-3.6	70	-8.2	0	0	982.9	NA	0.0000		9999	2790	0	0	0
2019/04/19 10:12:00	BASE	9.75	227	13.48	234	-3.6	70	-8.3	0	0	982.9	NA	0.0000		9999	2850	0	0	0
2019/04/19 10:13:00	BASE	9.42	233	13.48	234	-3.6	70	-8.2	0	0	982.9	NA	0.0000		9999	2590	0	0	0
2019/04/19 10:14:00	BASE	8.49	249	11.88	223	-3.6	70	-8.2	0	0	982.8	NA	0.0000		9999	2560	0	0	0
2019/04/19 10:15:00	BASE	7.48	257	11.88	223	-3.6	71	-8.2	0	0	982.8	NA	0.0000		9999	2590	0	0	0
2019/04/19 10:16:00	BASE	6.80	260	11.88	223	-3.7	71	-8.2	0	0	982.9	NA	0.0000		9999	2620	0	0	0
2019/04/19 10:17:00	BASE	5.60	260	11.63	232	-3.7	71	-8.3	0	0	982.8	NA	0.0000		9999	2620	0	0	0
2019/04/19 10:18:00	BASE	5.21	241	11.63	232	-3.8	71	-8.3	0	0	982.8	NA	0.0000		9999	2590	0	0	0
2019/04/19 10:19:00	BASE	5.56	228	11.63	232	-3.8	70	-8.4	0	0	982.8	NA	0.0000		9999	2560	0	0	0
2019/04/19 10:20:00	BASE	4.93	237	11.63	232	-3.8	70	-8.5	0	0	982.8	NA	0.0000		9999	2560	0	0	0
2019/04/19 10:21:00	BASE	4.46	244	10.65	220	-3.8	70	-8.5	0	0	982.8	NA	0.0000		9999	2460	0	0	0
2019/04/19 10:22:00	BASE	4.51	246	9.93	226	-3.8	70	-8.4	0	0	982.8	NA	0.0000		9999	2430	0	0	0
2019/04/19 10:23:00	BASE	5.03	247	9.05	262	-3.8	70	-8.4	0	0	982.8	NA	0.0000		9999	2400	0	0	0
2019/04/19 10:24:00	BASE	5.94	241	8.13	266	-3.8	71	-8.3	0	0	982.8	NA	0.0000		9999	2330	0	0	0
2019/04/19 10:25:00	BASE	6.72	244	9.31	268	-3.7	71	-8.2	0	0	982.7	NA	0.0000		9999	2300	0	0	0
2019/04/19 10:26:00	BASE	8.67	255	11.99	247	-3.7	72	-8.1	0	0	982.7	NA	0.0000		9999	2300	0	0	0
2019/04/19 10:27:00	BASE	10.06	254	11.99	247	-3.7	72	-7.9	0	0	982.7	NA	0.0000		9999	2260	0	0	0
2019/04/19 10:28:00	BASE	9.39	251	11.99	247	-3.6	73	-7.8	0	0	982.7	NA	0.0000		9999	2330	0	0	0
2019/04/19 10:29:00	BASE	9.69	247	12.35	254	-3.6	74	-7.6	0	0	982.6	NA	0.0000		9999	2260	0	0	0
2019/04/19 10:30:00	BASE	10.79	250	12.35	254	-3.6	74	-7.5	0	0	982.7	NA	0.0000		9999	2260	0	0	0
2019/04/19 10:31:00	BASE	11.14	254	12.91	255	-3.6	75	-7.5	0	0	982.7	NA	0.0000		9999	2230	0	0	0
2019/04/19 10:32:00	BASE	10.47	253	12.91	255	-3.7	75	-7.4	0	0	982.7	NA	0.0000		9999	2170	0	0	0
2019/04/19 10:33:00	BASE	9.39	250	12.91	255	-3.7	75	-7.5	0	0	982.6	NA	0.0000		9999	2070	0	0	0
2019/04/19 10:34:00	BASE	8.67	243	12.91	255	-3.7	75	-7.5	0	0	982.6	NA	0.0000		9999	2170	0	0	0
2019/04/19 10:35:00	BASE	8.13	234	12.91	255	-3.7	75	-7.5	0	0	982.6	NA	0.0000		9999	2200	0	0	0
2019/04/19 10:36:00	BASE	7.05	234	12.91	255	-3.7	75	-7.5	0	0	982.6	NA	0.0000		9999	2100	0	0	0
2019/04/19 10:37:00	BASE	7.10	249	12.91	255	-3.7	75	-7.4	0	0	982.6	NA	0.0000		9999	2130	0	0	0
2019/04/19 10:38:00	BASE	8.27	256	12.91	255	-3.7	76	-7.4	0	0	982.6	NA	0.0000		9999	2260	0	0	0
2019/04/19 10:39:00	BASE	8.19	252	12.91	255	-3.7	76	-7.3	0	0	982.6	NA	0.0000		9999	2260	0	0	0
2019/04/19 10:40:00	BASE	9.30	252	12.91	255	-3.7	76	-7.3	0	0	982.5	NA	0.0000		9999	2200	0	0	0
2019/04/19 10:41:00	BASE	10.14	254	11.47	264	-3.7	76	-7.4	0	0	982.5	NA	0.0000		9999	2100	0	0	0
2019/04/19 10:42:00	BASE	10.13	252	13.63	245	-3.8	76	-7.4	0	0	982.4	NA	0.0000		9999	2230	0	0	0
2019/04/19 10:43:00	BASE	10.92	244	13.63	245	-3.8	76	-7.4	0	0	982.4	NA	0.0000		9999	2260	0	0	0
2019/04/19 10:44:00	BASE	10.28	242	13.63	245	-3.8	76	-7.5	0	0	982.4	NA	0.0000		9999	2400	0	0	0
2019/04/19 10:45:00	BASE	9.12	242	13.63	245	-3.8	75	-7.6	0	0	982.4	NA	0.0000		9999	2100	0	0	0
2019/04/19 10:46:00	BASE	7.87	222	13.63	245	-3.9	75	-7.7	0	0	982.4	NA	0.0000		9999	2070	0	0	0
2019/04/19 10:47:00	BASE	6.83	201	13.63	245	-3.9	74	-7.8	0	0	982.4	NA	0.0000		9999	2130	0	0	0
2019/04/19 10:48:00	BASE	5.88	198	13.63	245	-3.9	74	-7.9	0	0	982.4	NA	0.0000		9999	2230	0	0	0
2019/04/19 10:49:00	BASE	4.75	203	13.63	245	-3.9	73	-8.0	0	0	982.4	NA	0.0000		9999	2330	0	0	0
2019/04/19 10:50:00	BASE	4.45	203	13.63	245	-3.9	73	-8.0	0	0	982.3	NA	0.0000		9999	2430	0	0	0
2019/04/19 10:51:00	BASE	4.81	201	13.63	245	-3.9	73	-8.0	0	0	982.3	NA	0.0000		9999	2300	0	0	0
2019/04/19 10:52:00	BASE	5.66	203	12.04	238	-3.8	73	-8.0	0	0	982.3	NA	0.0000		9999	2300	0	0	0
2019/04/19 10:53:00	BASE	6.57	209	10.55	230	-3.8	73	-7.9	0	0	982.3	NA	0.0000		9999	2260	0	0	0
2019/04/19 10:54:00	BASE	6.87	213	10.55	230	-3.8	73	-7.8	0	0	982.3	NA	0.0000		9999	2360	0	0	0
2019/04/19 10:55:00	BASE	6.80	222	8.28	225	-3.7	74	-7.7	0	0	982.3	NA	0.0000		9999	2490	0	0	0
2019/04/19 10:56:00	BASE	6.90	238	10.19	235	-3.7	74	-7.6	0	0	982.3	NA	0.0000		9999	2560	0	0	0
2019/04/19 10:57:00	BASE	7.68	239	10.19	235	-3.7	75	-7.5	0	0	982.3	NA	0.0000		9999	2460	0	0	0
2019/04/19 10:58:00	BASE	8.67	232	10.49	223	-3.6	75	-7.5	0	0	982.2	NA	0.0000		9999	2460	0	0	0
2019/04/19 10:59:00	BASE	8.63	230	10.49	223	-3.7	75	-7.5	0	0	982.2	NA	0.0000		9999	2560	0	0	0
2019/04/19 11:00:00	BASE	9.13	236	11.52	232	-3.7	75	-7.5	0	0	982.2	NA	0.0000		9999	2720	0	0	0
2019/04/19 11:01:00	BASE	9.70	242	11.52	232	-3.7	74	-7.6	0	0	982.2	NA	0.0000		9999	2560	0	0	0
2019/04/19 11:02:00	BASE	8.73	247	11.52	232	-3.7	74	-7.7	0	0	982.2	NA	0.0000		9999	2530	0	0	0
2019/04/19 11:03:00	BASE	7.47	248	11.52	232	-3.7	73	-7.8	0	0	982.2	NA	0.0000		9999	2430	0	0	0
2019/04/19 11:04:00	BASE	6.79	249	11.52	232	-3.7	73	-7.9	0	0	982.2	NA	0.0000		9999	2300	0	0	0
2019/04/19 11:05:00	BASE	6.04	249	11.52	232	-3.8	73	-8.0	0	0	982.2	NA	0.0000		9999	2360	0	0	0
2019/04/19 11:06:01	BASE	4.70	253	11.52	232	-3.8	72	-8.1	0	0	982.2	NA	0.0000		9999	2400	0	0	0
2019/04/19 11:07:01	BASE	3.75	267	11.52	232	-3.8	72	-8.2	0	0	982.1	NA	0.0000		9999	2400	0	0	0
2019/04/19 11:08:01	BASE	4.40	269	11.52	232	-3.8	72	-8.2	0	0	982.1	NA	0.0000		9999	2400	0	0	0
2019/04/19 11:09:01	BASE	4.84	260	11.52	232	-3.8	72	-8.2	0	0	982.1	NA	0.0000		9999	2360	0	0	0
2019/04/19 11:10:01	BASE	4.41	243	10.65	251	-3.8	72	-8.2	0	0	982.1	NA	0.0000		9999	2260	0	0	0
2019/04/19 11:11:01	BASE	4.11	230	10.24	250	-3.8	72	-8.1	0	0	982.1	NA	0.0000		9999	2360	0	0	0
2019/04/19 11:12:01	BASE	5.10	231	8.59	233	-3.8	72	-8.1	0	0	982.1	NA	0.0000		9999	2300	0	0	0
2019/04/19 11:13:01	BASE	7.13	227	9.41	223	-3.8	72	-8.1	0	0	982.1	NA	0.0000		9999	2330	0	0	0
2019/04/19 11:14:01	BASE	7.71	216	9.41	223	-3.8	72	-8.0	0	0	982.0	NA	0.0000		9999	2260	0	0	0
2019/04/19 11:15:01	BASE	6.97	212	9.41	223	-3.8	73	-8.0	0	0	982.1	NA	0.0000		9999	2260	0	0	0
2019/04/19 11:16:01	BASE	6.70	224	9.41	223	-3.7	73	-7.9	0	0	982.0	NA	0.0000		9999	2330	0	0	0
2019/04/19 11:17:01	BASE	6.47	234	9.41	223	-3.7	73	-7.9	0	0	982.0	NA	0.0000		9999	2330	0	0	0
2019/04/19 11:18:01	BASE	5.63	243	9.41	223	-3.7	72	-8.0	0	0	982.0	NA	0.0000		9999	2330	0	0	0
2019/04/19 11:19:01	BASE	5.52	250	9.41	223	-3.7	72	-8.0	0	0	982.0	NA	0.0000		9999	2330	0	0	0
2019/04/19 11:20:01	BASE	6.24	257	9.41	223	-3.7	72	-8.0	1	0	981.9	NA	0.0000		9999	2300	0	0	0
2019/04/19 11:21:01	BASE	6.68	263	9.41	223	-3.7	73	-7.9	1	0	981.9	NA	0.0000		9999	2260	0	0	0
2019/04/19 11:22:01	BASE	6.72	267	9.41	223	-3.7	73	-7.8	1	0	981.9	NA	0.0000		9999	2360	0	0	0
2019/04/19 11:23:01	BASE	6.15	266	8.64	214	-3.7	73	-7.8	1	0	982.0	NA	0.0000		9999	2360	0	0	0
2019/04/19 11:24:01	BASE	6.21	261	8.54	244	-3.7	73	-7.8	1	0	982.0	NA	0.0000		9999	2200	0	0	0
2019/04/19 11:25:01	BASE	6.74	254	8.54	244	-3.7	73	-7.8	1	0	982.0	NA	0.0000		9999	2200	0	0	0
2019/04/19 11:26:01	BASE	6.25	252	8.54	244	-3.7	73	-7.8	2	0	982.0	NA	0.0000		9999	2200	0	0	0
2019/04/19 11:27:01	BASE	6.32	251	8.54	244	-3.7	73	-7.8	2	0	982.0	NA	0.0000		9999	2260	0	0	0
2019/04/19 11:28:01	BASE	7.13	253	8.85	268	-3.7	74	-7.7	2	0	982.0	NA	0.0000		9999	2360	0	0	0
2019/04/19 11:29:01	BASE	7.95	260	10.24	267	-3.7	74	-7.7	2	0	981.9	NA	0.0000		9999	2200	0	0	0
2019/04/19 11:30:01	BASE	7.62	267	10.24	267	-3.7	74	-7.6	2	0	981.9	NA	0.0000		9999	2070	0	0	0
2019/04/19 11:31:00	BASE	6.30	269	10.24	267	-3.7	74	-7.7	3	0	981.9	NA	0.0000		9999	2070	0	0	0
2019/04/19 11:32:01	BASE	5.36	265	10.24	267	-3.7	74	-7.7	3	0	981.8	NA	0.0000		9999	2100	0	0	0
2019/04/19 11:33:00	BASE	4.87	257	10.24	267	-3.8	74	-7.8	3	0	981.9	NA	0.0000		9999	2200	0	0	0
2019/04/19 11:34:00	BASE	4.96	247	10.24	267	-3.8	73	-7.9	3	0	981.8	NA	0.0000		9999	2300	0	0	0
2019/04/19 11:35:00	BASE	5.99	240	10.24	267	-3.8	73	-7.9	4	0	981.8	NA	0.0000		9999	2260	0	0	0
2019/04/19 11:36:00	BASE	7.05	231	10.24	267	-3.8	73	-7.9	4	0	981.8	NA	0.0000		9999	2100	0	0	0
2019/04/19 11:37:00	BASE	6.91	227	10.24	267	-3.8	74	-7.8	4	0	981.8	NA	0.0000		9999	2100	0	0	0
2019/04/19 11:38:00	BASE	5.97	226	10.24	267	-3.8	74	-7.8	4	0	981.8	NA	0.0000		9999	2170	0	0	0
2019/04/19 11:39:00	BASE	6.04	228	8.28	242	-3.8	74	-7.8	4	0	981.8	NA	0.0000		9999	2130	0	0	0
2019/04/19 11:40:01	BASE	7.07	240	8.90	253	-3.8	74	-7.7	5	0	981.8	NA	0.0000		9999	2130	0	0	0
2019/04/19 11:41:00	BASE	7.69	250	9.98	251	-3.8	74	-7.7	5	0	981.8	NA	0.0000		9999	2100	0	0	0
2019/04/19 11:42:01	BASE	7.69	251	10.44	252	-3.8	74	-7.7	5	0	981.8	NA	0.0000		9999	2200	0	0	0
2019/04/19 11:43:00	BASE	7.06	244	10.44	252	-3.8	75	-7.6	5	0	981.8	NA	0.0000		9999	2260	0	0	0
2019/04/19 11:44:00	BASE	5.97	238	10.44	252	-3.8	75	-7.6	5	0	981.8	NA	0.0000		9999	2200	0	0	0
2019/04/19 11:45:00	BASE	5.86	238	10.44	252	-3.8	75	-7.7	5	0	981.8	NA	0.0000		9999	2300	0	0	0
2019/04/19 11:46:00	BASE	6.22	237	10.44	252	-3.8	74	-7.7	5	0	981.8	NA	0.0000		9999	2230	0	0	0
2019/04/19 11:47:00	BASE	6.32	237	10.44	252	-3.8	74	-7.7	5	0	981.9	NA	0.0000		9999	2200	0	0	0
2019/04/19 11:48:00	BASE	6.30	236	10.44	252	-3.7	74	-7.6	5	0	982.0	NA	0.0000		9999	2260	0	0	0
2019/04/19 11:49:00	BASE	5.91	232	10.44	252	-3.7	75	-7.6	6	0	982.0	NA	0.0000		9999	2330	0	0	0
2019/04/19 11:50:00	BASE	6.71	239	10.44	252	-3.7	75	-7.5	6	0	981.9	NA	0.0000		9999	2330	0	0	0
2019/04/19 11:51:00	BASE	7.02	246	10.44	252	-3.7	75	-7.4	6	0	982.0	NA	0.0000		9999	2230	0	0	0
2019/04/19 11:52:00	BASE	6.54	247	9.11	258	-3.7	76	-7.4	5	0	982.0	NA	0.0000		9999	2230	0	0	0
2019/04/19 11:53:00	BASE	6.63	254	9.11	258	-3.8	76	-7.4	5	0	981.9	NA	0.0000		9999	2260	0	0	0
2019/04/19 11:54:00	BASE	6.39	254	9.11	258	-3.8	76	-7.4	5	0	981.9	NA	0.0000		9999	2300	0	0	0
2019/04/19 11:55:00	BASE	5.94	247	9.11	258	-3.8	76	-7.5	5	0	981.9	NA	0.0000		9999	2230	0	0	0
2019/04/19 11:56:00	BASE	6.33	246	9.31	250	-3.8	75	-7.5	5	0	981.8	NA	0.0000		9999	2200	0	0	0
2019/04/19 11:57:00	BASE	7.32	239	9.98	232	-3.8	75	-7.5	5	0	981.8	NA	0.0000		9999	2170	0	0	0
2019/04/19 11:58:00	BASE	7.17	231	9.98	232	-3.8	75	-7.5	5	0	981.8	NA	0.0000		9999	2170	0	0	0
2019/04/19 11:59:00	BASE	7.29	233	9.98	232	-3.8	75	-7.5	5	0	981.8	NA	0.0000		9999	2230	0	0	0
2019/04/19 12:00:00	BASE	8.08	237	10.19	234	-3.8	76	-7.5	5	0	981.8	NA	0.0000		9999	2200	0	0	0
2019/04/19 12:01:00	BASE	7.95	240	10.19	234	-3.8	76	-7.4	6	0	981.8	NA	0.0000		9999	2300	0	0	0
2019/04/19 12:02:00	BASE	7.88	237	10.19	234	-3.8	76	-7.4	6	0	981.7	NA	0.0000		9999	2230	0	0	0
2019/04/19 12:03:00	BASE	7.34	241	10.19	234	-3.8	76	-7.5	6	0	981.8	NA	0.0000		9999	2330	0	0	0
2019/04/19 12:04:00	BASE	7.06	247	10.19	234	-3.8	75	-7.5	7	0	981.8	NA	0.0000		9999	2260	0	0	0
2019/04/19 12:05:00	BASE	7.59	238	10.19	234	-3.8	75	-7.5	7	0	981.8	NA	0.0000		9999	2330	0	0	0
2019/04/19 12:06:00	BASE	7.87	232	10.19	234	-3.8	75	-7.6	7	0	981.8	NA	0.0000		9999	2260	0	0	0
2019/04/19 12:07:00	BASE	7.02	233	10.19	234	-3.8	75	-7.6	7	0	981.8	NA	0.0000		9999	2230	0	0	0
2019/04/19 12:08:00	BASE	6.23	236	10.19	234	-3.8	75	-7.7	8	0	981.8	NA	0.0000		9999	2170	0	0	0
2019/04/19 12:09:00	BASE	6.07	242	10.19	234	-3.8	74	-7.7	7	0	981.8	NA	0.0000		9999	2260	0	0	0
2019/04/19 12:10:00	BASE	5.41	250	9.57	245	-3.8	74	-7.8	7	0	981.8	NA	0.0000		9999	2300	0	0	0
2019/04/19 12:11:00	BASE	5.10	258	9.11	232	-3.8	74	-7.8	7	0	981.8	NA	0.0000		9999	2260	0	0	0
2019/04/19 12:12:00	BASE	4.45	265	8.90	226	-3.8	74	-7.8	7	0	981.8	NA	0.0000		9999	2300	0	0	0
2019/04/19 12:13:00	BASE	5.03	260	8.90	226	-3.8	74	-7.8	7	0	981.7	NA	0.0000		9999	2170	0	0	0
2019/04/19 12:14:00	BASE	6.34	253	8.90	226	-3.8	74	-7.8	8	0	981.7	NA	0.0000		9999	2200	0	0	0
2019/04/19 12:15:00	BASE	5.57	254	8.75	231	-3.8	74	-7.8	8	0	981.7	NA	0.0000		9999	2070	0	0	0
2019/04/19 12:16:00	BASE	5.04	261	8.23	256	-3.8	74	-7.8	9	0	981.7	NA	0.0000		9999	2130	0	0	0
2019/04/19 12:17:00	BASE	6.01	266	8.23	256	-3.8	74	-7.8	9	0	981.6	NA	0.0000		9999	2200	0	0	0
2019/04/19 12:18:00	BASE	6.44	268	8.23	256	-3.8	74	-7.7	10	0	981.6	NA	0.0000		9999	2300	0	0	0
2019/04/19 12:19:00	BASE	6.66	270	8.23	256	-3.8	74	-7.7	10	0	981.6	NA	0.0000		9999	2230	0	0	0
2019/04/19 12:20:00	BASE	5.88	268	8.23	256	-3.7	74	-7.7	10	0	981.6	NA	0.0000		9999	2130	0	0	0
2019/04/19 12:21:00	BASE	5.15	265	8.23	256	-3.7	74	-7.7	10	0	981.6	NA	0.0000		9999	2330	0	0	0
2019/04/19 12:22:00	BASE	4.75	267	8.23	256	-3.7	74	-7.7	11	0	981.6	NA	0.0000		9999	2300	0	0	0
2019/04/19 12:23:00	BASE	4.50	270	8.18	267	-3.7	74	-7.6	11	0	981.6	NA	0.0000		9999	2360	0	0	0
2019/04/19 12:24:00	BASE	5.84	264	8.18	267	-3.7	74	-7.6	11	0	981.6	NA	0.0000		9999	2200	0	0	0
2019/04/19 12:25:00	BASE	6.50	257	8.18	267	-3.7	75	-7.5	11	0	981.6	NA	0.0000		9999	2330	0	0	0
2019/04/19 12:26:00	BASE	6.02	258	8.18	267	-3.7	75	-7.5	10	0	981.6	NA	0.0000		9999	2300	0	0	0
2019/04/19 12:27:00	BASE	6.04	259	8.39	248	-3.7	75	-7.5	10	0	981.6	NA	0.0000		9999	2330	0	0	0
2019/04/19 12:28:00	BASE	6.79	257	8.39	248	-3.7	75	-7.5	10	0	981.6	NA	0.0000		9999	2170	0	0	0
2019/04/19 12:29:00	BASE	6.36	264	8.39	248	-3.7	75	-7.5	10	0	981.6	NA	0.0000		9999	2230	0	0	0
2019/04/19 12:30:00	BASE	5.03	273	8.39	248	-3.7	75	-7.6	11	0	981.5	NA	0.0000		9999	2260	0	0	0
2019/04/19 12:31:00	BASE	4.67	282	8.39	248	-3.8	75	-7.6	11	0	981.5	NA	0.0000		9999	2330	0	0	0
2019/04/19 12:32:00	BASE	4.49	293	8.39	248	-3.8	74	-7.7	11	0	981.5	NA	0.0000		9999	2360	0	0	0
2019/04/19 12:33:00	BASE	4.19	293	8.39	248	-3.8	74	-7.8	11	0	981.5	NA	0.0000		9999	2260	0	0	0
2019/04/19 12:34:00	BASE	4.07	295	8.39	248	-3.8	73	-7.8	12	0	981.4	NA	0.0000		9999	2260	0	0	0
2019/04/19 12:35:00	BASE	3.39	302	8.39	248	-3.8	73	-7.9	12	0	981.4	NA	0.0000		9999	2200	0	0	0
2019/04/19 12:36:00	BASE	3.39	296	8.39	248	-3.8	73	-7.9	13	0	981.4	NA	0.0000		9999	2230	0	0	0
2019/04/19 12:37:00	BASE	3.73	277	7.87	243	-3.7	73	-7.9	13	0	981.4	NA	0.0000		9999	2260	0	0	0
2019/04/19 12:38:00	BASE	3.67	256	6.38	279	-3.7	73	-7.9	13	0	981.4	NA	0.0000		9999	2260	0	0	0
2019/04/19 12:39:00	BASE	4.13	250	5.50	290	-3.7	73	-7.8	14	0	981.4	NA	0.0000		9999	2170	0	0	0
2019/04/19 12:40:00	BASE	4.94	257	6.38	253	-3.7	73	-7.8	14	0	981.4	NA	0.0000		9999	2200	0	0	0
2019/04/19 12:41:00	BASE	5.50	255	7.05	245	-3.7	74	-7.7	14	0	981.4	NA	0.0000		9999	2170	0	0	0
2019/04/19 12:42:00	BASE	5.28	254	7.05	245	-3.7	74	-7.7	14	0	981.3	NA	0.0000		9999	2200	0	0	0
2019/04/19 12:43:00	BASE	4.88	261	7.05	245	-3.7	74	-7.7	14	0	981.3	NA	0.0000		9999	2200	0	0	0
2019/04/19 12:44:00	BASE	5.20	264	7.41	254	-3.7	74	-7.6	14	0	981.2	NA	0.0000		9999	2200	0	0	0
2019/04/19 12:45:00	BASE	6.92	277	9.88	280	-3.7	74	-7.6	15	0	981.2	NA	0.0000		9999	2170	0	0	0
2019/04/19 12:46:00	BASE	9.22	285	11.78	280	-3.7	75	-7.5	15	0	981.2	NA	0.0000		9999	2030	0	0	0
2019/04/19 12:47:00	BASE	8.84	287	11.78	280	-3.7	75	-7.5	16	0	981.2	NA	0.0000		9999	2000	0	0	0
2019/04/19 12:48:00	BASE	7.42	289	11.78	280	-3.7	75	-7.5	17	0	981.2	NA	0.0000		9999	2030	0	0	0
2019/04/19 12:49:00	BASE	5.74	279	11.78	280	-3.7	75	-7.5	18	0	981.2	NA	0.0000		9999	2170	0	0	0
2019/04/19 12:50:00	BASE	4.04	271	11.78	280	-3.7	75	-7.5	18	0	981.2	NA	0.0000		9999	2130	0	0	0
2019/04/19 12:51:00	BASE	5.28	259	11.78	280	-3.7	75	-7.5	19	0	981.2	NA	0.0000		9999	2000	0	0	0
2019/04/19 12:52:00	BASE	6.22	250	11.78	280	-3.8	76	-7.4	20	0	981.1	NA	0.0000		9999	2100	0	0	0
2019/04/19 12:53:00	BASE	5.62	251	11.78	280	-3.8	76	-7.4	21	0	981.0	NA	0.0000		9999	2000	0	0	0
2019/04/19 12:54:00	BASE	6.06	248	11.78	280	-3.8	76	-7.3	22	0	981.0	NA	0.0000		9999	1970	0	0	0
2019/04/19 12:55:00	BASE	5.89	243	11.78	280	-3.8	76	-7.3	23	0	981.0	NA	0.0000		9999	2300	0	0	0
2019/04/19 12:56:00	BASE	4.41	238	9.21	287	-3.8	77	-7.3	24	0	981.0	NA	0.0000		9999	2330	0	0	0
2019/04/19 12:57:00	BASE	3.64	245	7.97	291	-3.8	77	-7.3	24	0	981.0	NA	0.0000		9999	2330	0	0	0
2019/04/19 12:58:00	BASE	4.37	250	7.87	250	-3.8	77	-7.2	25	0	981.0	NA	0.0000		9999	2330	0	0	0
2019/04/19 12:59:00	BASE	4.86	246	7.87	250	-3.8	77	-7.1	25	0	981.0	NA	0.0000		9999	2400	20970	0	0
2019/04/19 13:00:00	BASE	4.83	249	7.87	250	-3.8	78	-7.1	25	0	981.0	NA	0.0000		9999	2330	0	0	0
2019/04/19 13:01:00	BASE	5.02	252	7.87	250	-3.7	78	-7.0	25	0	981.0	NA	0.0000		9999	2260	0	0	0
2019/04/19 13:02:00	BASE	4.86	250	7.87	250	-3.7	78	-6.9	25	0	980.9	NA	0.0000		9999	2230	0	0	0
2019/04/19 13:03:00	BASE	4.80	254	7.87	250	-3.7	79	-6.9	24	0	981.0	NA	0.0000		9999	2260	0	0	0
2019/04/19 13:04:00	BASE	4.74	262	6.17	251	-3.7	79	-6.9	23	0	981.0	NA	0.0000		9999	2260	0	0	0
2019/04/19 13:05:00	BASE	4.16	264	6.17	251	-3.7	79	-6.9	21	0	981.0	NA	0.0000		9999	2130	0	0	0
2019/04/19 13:06:00	BASE	3.84	260	6.17	251	-3.7	79	-6.9	21	0	980.9	NA	0.0000		9999	2070	0	0	0
2019/04/19 13:07:00	BASE	4.08	264	6.17	251	-3.7	78	-6.9	20	0	980.9	NA	0.0000		9999	1970	0	0	0
2019/04/19 13:08:00	BASE	4.90	260	6.28	256	-3.7	78	-6.9	20	0	980.9	NA	0.0000		9999	1900	0	0	0
2019/04/19 13:09:00	BASE	4.94	254	6.28	256	-3.7	78	-6.9	20	0	980.8	NA	0.0000		9999	1940	0	0	0
2019/04/19 13:10:00	BASE	4.88	257	7.67	262	-3.7	78	-6.9	20	0	980.8	NA	0.0000		9999	1900	0	0	0
2019/04/19 13:11:00	BASE	5.15	252	7.67	262	-3.7	79	-6.8	20	0	980.7	NA	0.0000		9999	1970	0	0	0
2019/04/19 13:12:00	BASE	5.24	248	7.67	262	-3.7	79	-6.8	20	0	980.7	NA	0.0000		9999	2030	0	0	0
2019/04/19 13:13:00	BASE	5.90	247	7.67	262	-3.7	79	-6.8	20	0	980.7	NA	0.0000		9999	2000	0	0	0
2019/04/19 13:14:00	BASE	5.74	242	7.67	262	-3.7	79	-6.8	19	0	980.7	NA	0.0000		9999	2070	0	0	0
2019/04/19 13:15:00	BASE	4.54	232	7.67	262	-3.7	79	-6.9	18	0	980.6	NA	0.0000		9999	2260	0	0	0
2019/04/19 13:16:00	BASE	3.05	220	7.67	262	-3.8	79	-6.9	17	0	980.6	NA	0.0000		9999	2260	0	0	0
2019/04/19 13:17:00	BASE	2.19	231	7.67	262	-3.8	79	-6.9	16	0	980.6	NA	0.0000		9999	2170	0	0	0
2019/04/19 13:18:00	BASE	2.33	249	7.67	262	-3.8	79	-6.9	15	0	980.6	NA	0.0000		9999	2260	0	0	0
2019/04/19 13:19:00	BASE	2.27	250	7.67	262	-3.8	79	-6.9	15	0	980.6	NA	0.0000		9999	2230	0	0	0
2019/04/19 13:20:00	BASE	1.77	257	6.48	245	-3.8	79	-6.9	16	0	980.6	NA	0.0000		9999	2200	0	0	0
2019/04/19 13:21:00	BASE	0.93	264	6.48	245	-3.8	79	-6.9	17	0	980.6	NA	0.0000		9999	2200	0	0	0
2019/04/19 13:22:00	BASE	0.76	267	6.48	245	-3.8	79	-6.9	19	0	980.5	NA	0.0000		9999	2260	0	0	0
2019/04/19 13:23:00	BASE	1.22	266	6.43	245	-3.8	79	-6.9	20	0	980.6	NA	0.0000		9999	1970	2560	0	0
2019/04/19 13:24:00	BASE	0.71	250	4.78	229	-3.8	79	-6.9	20	0	980.6	NA	0.0000		9999	1940	0	0	0
2019/04/19 13:25:00	BASE	0.20	235	3.24	247	-3.8	79	-6.9	20	0	980.7	NA	0.0000		9999	1970	2460	0	0
2019/04/19 13:26:00	BASE	0.13	231	3.24	247	-3.8	79	-7.0	20	0	980.7	NA	0.0000		9999	2130	0	0	0
2019/04/19 13:27:00	BASE	0.43	230	3.24	247	-3.8	78	-7.0	21	0	980.7	NA	0.0000		9999	2260	0	0	0
2019/04/19 13:28:00	BASE	0.39	230	2.62	265	-3.8	78	-7.0	21	0	980.7	NA	0.0000		9999	2130	0	0	0
2019/04/19 13:29:00	BASE	0.09	222	2.62	265	-3.8	78	-7.1	22	0	980.7	NA	0.0000		9999	2130	0	0	0
2019/04/19 13:30:00	BASE	0.00	194	1.54	264	-3.8	78	-7.0	23	0	980.7	NA	0.0000		9999	2200	0	0	0
2019/04/19 13:31:00	BASE	0.00	158	1.54	264	-3.8	78	-7.0	23	0	980.7	NA	0.0000		9999	2230	0	0	0
2019/04/19 13:32:00	BASE	0.00	147	1.49	260	-3.7	78	-7.0	24	0	980.7	NA	0.0000		9999	2260	0	0	0
2019/04/19 13:33:00	BASE	0.00	150	1.29	229	-3.7	78	-7.0	24	0	980.7	NA	0.0000		9999	2200	0	0	0
2019/04/19 13:34:00	BASE	0.00	150	1.29	229	-3.7	78	-7.0	25	0	980.7	NA	0.0000		9999	2260	0	0	0
2019/04/19 13:35:01	BASE	0.00	160	1.29	229	-3.7	78	-7.0	25	0	980.7	NA	0.0000		9999	2230	0	0	0
2019/04/19 13:36:00	BASE	0.69	266	2.73	251	-3.7	78	-7.0	25	0	980.7	NA	0.0000		9999	2200	0	0	0
2019/04/19 13:37:00	BASE	1.85	274	2.98	243	-3.7	78	-7.0	26	0	980.7	NA	0.0000		9999	2200	0	0	0
2019/04/19 13:38:00	BASE	2.15	261	2.98	243	-3.7	78	-7.0	27	0	980.7	NA	0.0000		9999	2070	0	0	0
2019/04/19 13:39:00	BASE	1.89	273	2.98	243	-3.7	78	-7.0	28	0	980.8	NA	0.0000		9999	2170	0	0	0
2019/04/19 13:40:00	BASE	1.68	280	2.98	243	-3.7	78	-7.0	27	0	980.8	NA	0.0000		9999	2230	0	0	0
2019/04/19 13:41:00	BASE	1.48	281	2.98	243	-3.7	78	-7.0	26	0	980.8	NA	0.0000		9999	2100	0	0	0
2019/04/19 13:42:00	BASE	1.52	286	2.98	243	-3.7	78	-7.0	24	0	980.8	NA	0.0000		9999	2100	0	0	0
2019/04/19 13:43:00	BASE	2.10	293	3.19	291	-3.7	78	-7.0	22	0	980.8	NA	0.0000		9999	2100	0	0	0
2019/04/19 13:44:00	BASE	2.69	293	3.29	280	-3.7	78	-7.0	21	0	980.8	NA	0.0000		9999	2100	0	0	0
2019/04/19 13:45:00	BASE	2.58	294	3.29	280	-3.7	78	-7.0	20	0	980.7	NA	0.0000		9999	1080	0	0	0
2019/04/19 13:46:00	BASE	1.96	302	3.29	280	-3.7	78	-7.0	19	0	980.7	NA	0.0000		9999	750	0	0	0
2019/04/19 13:47:00	BASE	1.69	302	3.29	280	-3.7	77	-7.1	19	0	980.7	NA	0.0000		9999	2130	0	0	0
2019/04/19 13:48:00	BASE	1.56	288	3.29	280	-3.7	77	-7.1	19	0	980.7	NA	0.0000		9999	2100	0	0	0
2019/04/19 13:49:00	BASE	0.67	287	3.29	280	-3.7	77	-7.1	21	0	980.6	NA	0.0000		9999	2230	0	0	0
2019/04/19 13:50:00	BASE	0.00	307	3.29	280	-3.7	77	-7.1	23	0	980.6	NA	0.0000		9999	2260	0	0	0
2019/04/19 13:51:00	BASE	0.00	323	3.29	280	-3.7	77	-7.1	25	0	980.6	NA	0.0000		9999	2790	0	0	0
2019/04/19 13:52:00	BASE	0.00	334	3.29	280	-3.7	77	-7.1	26	0	980.6	NA	0.0000		9999	2460	0	0	0
2019/04/19 13:53:00	BASE	0.00	347	3.29	280	-3.7	77	-7.2	27	0	980.6	NA	0.0000		9999	2400	0	0	0
2019/04/19 13:54:00	BASE	0.05	9	2.78	297	-3.7	77	-7.2	28	0	980.6	NA	0.0000		9999	2360	0	0	0
2019/04/19 13:55:00	BASE	0.72	23	2.47	304	-3.7	77	-7.2	29	0	980.5	NA	0.0000		9999	2460	0	0	0
2019/04/19 13:56:00	BASE	1.52	25	2.47	304	-3.7	77	-7.2	29	0	980.4	NA	0.0000		9999	2360	0	0	0
2019/04/19 13:57:00	BASE	1.10	22	2.11	26	-3.8	77	-7.2	30	0	980.4	NA	0.0000		9999	2490	0	0	0
2019/04/19 13:58:00	BASE	0.55	7	2.11	26	-3.7	77	-7.1	29	0	980.5	NA	0.0000		9999	2490	0	0	0
2019/04/19 13:59:00	BASE	1.02	348	2.11	26	-3.7	78	-7.1	28	0	980.6	NA	0.0000		9999	2460	0	0	0
2019/04/19 14:00:00	BASE	1.55	331	2.11	26	-3.7	78	-7.0	27	0	980.6	NA	0.0000		9999	2070	0	0	0
2019/04/19 14:01:00	BASE	1.47	321	2.11	26	-3.7	78	-7.0	26	0	980.6	NA	0.0000		9999	1970	0	0	0
2019/04/19 14:02:00	BASE	1.31	325	2.11	26	-3.7	78	-6.9	26	0	980.6	NA	0.0000		9999	1940	0	0	0
2019/04/19 14:03:00	BASE	1.35	336	2.11	26	-3.7	78	-6.9	26	0	980.6	NA	0.0000		9999	1900	0	0	0
2019/04/19 14:04:00	BASE	1.47	339	2.42	8	-3.7	79	-6.9	27	0	980.6	NA	0.0000		9999	1900	0	0	0
2019/04/19 14:05:00	BASE	2.03	350	3.24	1	-3.7	79	-6.8	27	0	980.6	NA	0.0000		9999	1870	0	0	0
2019/04/19 14:06:00	BASE	2.73	7	3.40	8	-3.7	79	-6.8	28	0	980.6	NA	0.0000		9999	1870	0	0	0
2019/04/19 14:07:00	BASE	2.82	13	3.40	8	-3.7	79	-6.7	29	0	980.5	NA	0.0000		9999	1870	0	0	0
2019/04/19 14:08:00	BASE	2.69	13	3.40	8	-3.6	79	-6.7	30	0	980.6	NA	0.0000		9999	1900	0	0	0
2019/04/19 14:09:00	BASE	3.14	13	4.22	16	-3.6	80	-6.6	31	0	980.6	NA	0.0000		9999	1840	0	0	0
2019/04/19 14:10:00	BASE	3.62	18	4.22	7	-3.6	80	-6.6	32	0	980.6	NA	0.0000		9999	1870	0	0	0
2019/04/19 14:11:00	BASE	3.41	23	4.22	7	-3.6	80	-6.6	32	0	980.6	NA	0.0000		9999	1870	0	0	0
2019/04/19 14:12:00	BASE	3.35	29	4.22	7	-3.6	80	-6.6	32	0	980.6	NA	0.0000		9999	1900	0	0	0
2019/04/19 14:13:00	BASE	3.44	26	4.22	7	-3.7	80	-6.5	31	0	980.6	NA	0.0000		9999	1940	0	0	0
2019/04/19 14:14:00	BASE	3.47	21	4.22	20	-3.7	81	-6.5	31	0	980.7	NA	0.0000		9999	1900	0	0	0
2019/04/19 14:15:00	BASE	3.65	20	4.22	22	-3.7	81	-6.5	30	0	980.7	NA	0.0000		9999	1900	0	0	0
2019/04/19 14:16:00	BASE	3.77	20	4.22	22	-3.7	81	-6.5	31	0	980.7	NA	0.0000		9999	1870	0	0	0
2019/04/19 14:17:00	BASE	3.78	20	4.22	22	-3.7	81	-6.5	31	0	980.7	NA	0.0000		9999	1870	0	0	0
2019/04/19 14:18:00	BASE	3.59	21	4.22	22	-3.7	81	-6.5	31	0	980.7	NA	0.0000		9999	1900	0	0	0
2019/04/19 14:19:00	BASE	3.68	26	4.22	22	-3.7	81	-6.4	31	0	980.7	NA	0.0000		9999	1900	0	0	0
2019/04/19 14:20:00	BASE	3.68	26	4.22	22	-3.7	82	-6.4	31	0	980.6	NA	0.0000		9999	1940	0	0	0
2019/04/19 14:21:00	BASE	3.42	23	4.22	22	-3.7	82	-6.4	32	0	980.7	NA	0.0000		9999	1900	0	0	0
2019/04/19 14:22:00	BASE	3.23	22	4.22	22	-3.7	82	-6.3	32	0	980.7	NA	0.0000		9999	1900	0	0	0
2019/04/19 14:23:00	BASE	3.24	16	4.22	22	-3.7	82	-6.4	33	0	980.6	NA	0.0000		9999	1900	0	0	0
2019/04/19 14:24:00	BASE	3.14	11	4.22	22	-3.7	82	-6.3	33	0	980.7	NA	0.0000		9999	750	0	0	0
2019/04/19 14:25:00	BASE	2.70	11	4.12	25	-3.7	82	-6.3	33	0	980.7	NA	0.0000		9999	1940	0	0	0
2019/04/19 14:26:00	BASE	2.51	13	4.12	25	-3.8	83	-6.3	33	0	980.7	NA	0.0000		8000	690	0	0	0
2019/04/19 14:27:00	BASE	2.48	27	4.12	25	-3.8	83	-6.3	34	0	980.7	NA	0.0000		8000	1940	0	0	0
2019/04/19 14:28:00	BASE	2.44	35	4.06	31	-3.8	83	-6.2	34	0	980.6	NA	0.0000	HZ	9000	1970	0	0	0
2019/04/19 14:29:00	BASE	2.53	37	3.86	25	-3.8	83	-6.2	35	0	980.7	NA	0.0000	HZ	9999	790	0	0	0
2019/04/19 14:30:00	BASE	3.00	44	4.01	41	-3.8	83	-6.3	35	0	980.6	NA	0.0000	HZ	9999	690	0	0	0
2019/04/19 14:31:00	BASE	3.72	43	4.22	41	-3.8	83	-6.2	36	0	980.7	NA	0.0000	HZ	9999	1770	0	0	0
2019/04/19 14:32:00	BASE	3.96	38	4.32	37	-3.8	83	-6.2	37	0	980.6	NA	0.0000	HZ	9999	1310	0	0	0
2019/04/19 14:33:00	BASE	4.15	37	4.68	40	-3.8	83	-6.2	38	0	980.6	NA	0.0000	HZ	9999	720	0	0	0
2019/04/19 14:34:00	BASE	4.49	37	5.14	43	-3.7	84	-6.1	39	0	980.5	NA	0.0000	HZ	9999	620	0	0	0
2019/04/19 14:35:00	BASE	4.58	36	5.14	43	-3.7	84	-6.1	40	0	980.4	NA	0.0000	HZ	9999	520	0	0	0
2019/04/19 14:36:00	BASE	4.53	36	5.14	43	-3.8	84	-6.1	41	0	980.4	NA	0.0000	HZ	8000	560	0	0	0
2019/04/19 14:37:00	BASE	4.48	37	5.14	43	-3.8	84	-6.1	43	0	980.4	NA	0.0000	HZ	8000	490	0	0	0
2019/04/19 14:38:00	BASE	4.41	36	5.14	43	-3.8	84	-6.1	44	0	980.4	NA	0.0000	HZ	7000	460	0	0	0
2019/04/19 14:39:00	BASE	4.75	33	5.35	32	-3.8	84	-6.0	44	0	980.3	NA	0.0000	HZ	8000	460	0	0	0
2019/04/19 14:40:00	BASE	4.94	35	5.35	32	-3.8	85	-6.0	45	0	980.3	NA	0.0000	BR	9000	490	0	0	0
2019/04/19 14:41:00	BASE	4.88	39	5.56	41	-3.8	85	-6.0	45	0	980.3	NA	0.0000	BR	8000	490	0	0	0
2019/04/19 14:42:00	BASE	4.85	40	5.56	41	-3.8	85	-5.9	46	0	980.2	NA	0.0000	BR	7000	490	1970	0	0
2019/04/19 14:43:00	BASE	4.84	46	5.56	41	-3.8	85	-5.9	47	0	980.2	NA	0.0000	BR	7000	620	0	0	0
2019/04/19 14:44:00	BASE	4.87	54	5.66	51	-3.8	85	-5.9	47	0	980.1	NA	0.0000	BR	7000	520	0	0	0
2019/04/19 14:45:00	BASE	4.93	56	5.66	49	-3.8	86	-5.8	47	0	980.1	NA	0.0000	BR	8000	560	0	0	0
2019/04/19 14:46:00	BASE	5.07	56	5.92	57	-3.8	86	-5.8	48	0	980.0	NA	0.0000	BR	7000	2200	0	0	0
2019/04/19 14:47:00	BASE	5.08	55	5.92	57	-3.8	87	-5.7	47	0	979.9	NA	0.0000	BR	7000	2170	0	0	0
2019/04/19 14:48:00	BASE	4.93	55	5.92	57	-3.8	87	-5.7	46	0	979.9	NA	0.0000	BR	7000	2130	0	0	0
2019/04/19 14:49:00	BASE	4.36	54	5.92	57	-3.9	87	-5.6	44	0	979.9	NA	0.0000	BR	7000	2130	0	0	0
2019/04/19 14:50:00	BASE	3.83	56	5.92	57	-3.9	88	-5.6	42	0	979.9	NA	0.0000	BR	7000	2170	0	0	0
2019/04/19 14:51:00	BASE	4.12	63	5.92	57	-3.9	88	-5.5	40	0	979.9	NA	0.0000	BR	7000	2000	0	0	0
2019/04/19 14:52:00	BASE	4.46	67	5.92	57	-3.9	89	-5.4	39	0	979.9	NA	0.0000	BR	8000	1970	0	0	0
2019/04/19 14:53:00	BASE	4.28	69	5.92	57	-3.9	89	-5.4	39	0	979.9	NA	0.0000	BR	8000	1970	0	0	0
2019/04/19 14:54:00	BASE	4.22	70	5.92	57	-3.9	90	-5.3	38	0	979.8	NA	0.0000	BR	9000	1970	0	0	0
2019/04/19 14:55:00	BASE	4.22	72	5.92	57	-3.9	90	-5.3	37	0	979.8	NA	0.0000	BR	8000	1970	0	0	0
2019/04/19 14:56:00	BASE	4.22	73	5.61	58	-4.0	90	-5.3	36	0	979.8	NA	0.0000	BR	8000	2070	0	0	0
2019/04/19 14:57:00	BASE	4.52	68	5.50	69	-4.0	91	-5.3	35	0	979.8	NA	0.0000	BR	8000	2100	0	0	0
2019/04/19 14:58:00	BASE	4.59	66	5.50	69	-4.0	91	-5.2	35	0	979.8	NA	0.0000	BR	9000	2100	0	0	0
2019/04/19 14:59:00	BASE	4.64	68	5.50	69	-4.0	91	-5.2	36	0	979.7	NA	0.0000	BR	9999	2070	0	0	0
2019/04/19 15:00:00	BASE	5.27	68	6.38	72	-4.0	92	-5.1	37	0	979.6	NA	0.0000	BR	9999	2100	0	0	0
2019/04/19 15:01:00	BASE	5.79	71	6.38	72	-4.0	92	-5.1	38	0	979.6	NA	0.0000	BR	9000	2070	0	0	0
2019/04/19 15:02:00	BASE	6.03	78	6.48	79	-4.0	92	-5.1	39	0	979.5	NA	0.0000	BR	9999	2100	0	0	0
2019/04/19 15:03:00	BASE	5.63	85	6.48	79	-4.0	92	-5.1	40	0	979.5	NA	0.0000	BR	9999	2100	0	0	0
2019/04/19 15:04:00	BASE	5.00	92	6.48	79	-4.0	92	-5.1	41	0	979.5	NA	0.0000	BR	9999	2170	0	0	0
2019/04/19 15:05:00	BASE	4.84	93	6.48	79	-4.0	92	-5.1	42	0	979.4	NA	0.0000	BR	9000	2170	0	0	0
2019/04/19 15:06:00	BASE	4.30	90	6.48	79	-4.0	92	-5.1	43	0	979.3	NA	0.0000	BR	9999	2200	22020	0	0
2019/04/19 15:07:00	BASE	4.78	82	6.84	71	-4.0	92	-5.1	43	0	979.3	NA	0.0000	BR	9999	2100	0	0	0
2019/04/19 15:08:00	BASE	5.72	78	6.84	71	-4.0	92	-5.1	43	0	979.3	NA	0.0000	BR	9000	2200	0	0	0
2019/04/19 15:09:00	BASE	4.93	80	6.84	71	-4.0	92	-5.1	43	0	979.3	NA	0.0000	BR	9999	2200	0	0	0
2019/04/19 15:10:00	BASE	4.47	83	6.84	71	-4.0	92	-5.2	42	0	979.3	NA	0.0000	BR	9999	2170	0	0	0
2019/04/19 15:11:00	BASE	4.71	93	6.84	71	-4.0	92	-5.2	42	0	979.3	NA	0.0000	BR	9999	2170	0	0	0
2019/04/19 15:12:00	BASE	4.61	102	6.84	71	-4.0	91	-5.2	43	0	979.2	NA	0.0000	BR	9000	1870	0	0	0
2019/04/19 15:13:00	BASE	4.74	113	6.84	71	-4.0	91	-5.2	43	0	979.2	NA	0.0000	BR	9999	1870	0	0	0
2019/04/19 15:14:00	BASE	4.97	121	6.84	71	-4.0	91	-5.3	44	0	979.2	NA	0.0000	BR	9999	1870	0	0	0
2019/04/19 15:15:00	BASE	4.84	119	6.84	71	-4.0	91	-5.3	45	0	979.2	NA	0.0000	BR	9999	1900	0	0	0
2019/04/19 15:16:00	BASE	4.66	119	6.84	71	-4.0	91	-5.3	46	0	979.2	NA	0.0000	BR	9999	2170	0	0	0
2019/04/19 15:17:00	BASE	4.63	120	6.69	79	-4.0	91	-5.3	48	0	979.2	NA	0.0000	BR	9999	2200	0	0	0
2019/04/19 15:18:00	BASE	4.71	118	5.56	117	-4.0	91	-5.3	49	0	979.2	NA	0.0000	BR	9000	2200	0	0	0
2019/04/19 15:19:00	BASE	4.31	119	5.56	117	-4.0	91	-5.3	49	0	979.2	NA	0.0000	BR	9999	2030	0	0	0
2019/04/19 15:20:00	BASE	3.66	123	5.56	117	-4.0	90	-5.3	50	0	979.1	NA	0.0000	BR	9999	2000	0	0	0
2019/04/19 15:21:00	BASE	4.00	124	5.56	117	-4.0	90	-5.4	50	0	979.1	NA	0.0000	BR	9999	2000	0	0	0
2019/04/19 15:22:00	BASE	4.55	122	5.56	117	-4.0	90	-5.4	51	0	979.0	NA	0.0000		9999	1970	0	0	0
2019/04/19 15:23:00	BASE	4.71	120	5.56	117	-4.0	90	-5.4	51	0	979.0	NA	0.0000		9999	2000	0	0	0
2019/04/19 15:24:00	BASE	4.83	121	5.56	117	-4.0	90	-5.4	51	0	978.9	NA	0.0000		9999	2100	0	0	0
2019/04/19 15:25:01	BASE	4.76	124	5.56	117	-4.0	90	-5.4	52	0	978.9	NA	0.0000		9000	2100	0	0	0
2019/04/19 15:26:01	BASE	4.67	126	5.66	125	-4.0	90	-5.4	52	0	978.8	NA	0.0000		9999	2170	0	0	0
2019/04/19 15:27:01	BASE	5.11	124	5.92	122	-4.0	90	-5.4	52	0	978.7	NA	0.0000		9999	2200	0	0	0
2019/04/19 15:28:01	BASE	5.46	125	5.92	122	-4.0	90	-5.4	52	0	978.7	NA	0.0000		9999	2200	0	0	0
2019/04/19 15:29:01	BASE	5.29	126	5.92	122	-4.0	90	-5.4	52	0	978.6	NA	0.0000		9999	2170	0	0	0
2019/04/19 15:30:01	BASE	5.29	124	6.28	123	-3.9	90	-5.3	52	0	978.6	NA	0.0000		9999	2200	0	0	0
2019/04/19 15:31:01	BASE	5.49	121	6.28	123	-3.9	90	-5.4	52	0	978.6	NA	0.0000		9999	2230	0	0	0
2019/04/19 15:32:01	BASE	5.62	121	6.28	123	-3.9	90	-5.4	52	0	978.5	NA	0.0000		9999	2230	0	0	0
2019/04/19 15:33:01	BASE	5.55	124	6.28	123	-3.9	89	-5.4	52	0	978.5	NA	0.0000		9999	2260	0	0	0
2019/04/19 15:34:01	BASE	5.53	121	6.28	123	-3.9	89	-5.4	52	0	978.5	NA	0.0000		9999	2260	0	0	0
2019/04/19 15:35:01	BASE	5.30	118	6.28	123	-3.9	89	-5.4	53	0	978.5	NA	0.0000		9999	2330	0	0	0
2019/04/19 15:36:01	BASE	5.16	120	6.28	123	-3.9	89	-5.4	53	0	978.4	NA	0.0000		9999	2300	0	0	0
2019/04/19 15:37:01	BASE	5.17	120	6.28	123	-3.8	89	-5.4	53	0	978.4	NA	0.0000		9999	2360	0	0	0
2019/04/19 15:38:01	BASE	5.26	119	6.28	104	-3.8	88	-5.5	53	0	978.3	NA	0.0000		9999	2360	0	0	0
2019/04/19 15:39:01	BASE	5.39	111	6.48	96	-3.8	88	-5.5	53	0	978.3	NA	0.0000		9999	2000	2530	0	0
2019/04/19 15:40:01	BASE	5.65	81	8.08	62	-3.8	88	-5.5	53	0	978.2	NA	0.0000		9999	2000	0	0	0
2019/04/19 15:41:01	BASE	7.46	58	10.65	61	-3.7	88	-5.5	53	0	978.1	NA	0.0000		9999	2000	0	0	0
2019/04/19 15:42:01	BASE	9.38	56	11.78	58	-3.7	87	-5.5	53	0	978.1	NA	0.0000		9999	2000	2430	0	0
2019/04/19 15:43:01	BASE	9.62	55	11.78	58	-3.7	87	-5.5	53	0	978.0	NA	0.0000		9999	2260	0	0	0
2019/04/19 15:44:01	BASE	9.99	58	11.78	58	-3.7	86	-5.6	53	0	978.0	NA	0.0000		9999	2360	0	0	0
2019/04/19 15:45:01	BASE	10.60	61	11.78	58	-3.6	86	-5.7	53	0	977.9	NA	0.0000		9999	2330	0	0	0
2019/04/19 15:46:01	BASE	10.28	59	11.78	58	-3.6	85	-5.8	53	0	977.9	NA	0.0000		9999	2330	0	0	0
2019/04/19 15:47:01	BASE	10.10	56	11.78	58	-3.6	84	-5.8	52	0	977.9	NA	0.0000	HZ	9999	2230	0	0	0
2019/04/19 15:48:01	BASE	10.21	57	11.78	58	-3.6	84	-5.9	52	0	977.9	NA	0.0000	HZ	9999	2300	0	0	0
2019/04/19 15:49:01	BASE	10.07	58	11.78	58	-3.5	83	-5.9	51	0	977.9	NA	0.0000	HZ	9999	3810	0	0	0
2019/04/19 15:50:01	BASE	9.81	57	11.78	58	-3.5	83	-6.0	51	0	977.8	NA	0.0000	HZ	9000	1710	0	0	0
2019/04/19 15:51:01	BASE	9.88	57	11.78	58	-3.5	83	-6.0	50	0	977.8	NA	0.0000	HZ	9000	1640	0	0	0
2019/04/19 15:52:01	BASE	9.95	57	11.73	54	-3.4	82	-6.0	50	0	977.8	NA	0.0000	HZ	9000	1610	0	0	0
2019/04/19 15:53:00	BASE	9.91	57	11.73	54	-3.4	82	-6.0	50	0	977.8	NA	0.0000	HZ	9000	1380	0	0	0
2019/04/19 15:54:00	BASE	9.26	57	11.73	54	-3.4	82	-6.0	50	0	977.8	NA	0.0000	HZ	9000	3310	0	0	0
2019/04/19 15:55:01	BASE	8.65	60	11.73	54	-3.4	82	-6.0	51	0	977.7	NA	0.0000	HZ	9000	1020	0	0	0
2019/04/19 15:56:01	BASE	9.18	62	11.73	54	-3.4	82	-6.0	52	0	977.7	NA	0.0000	HZ	9999	0	0	0	3180
2019/04/19 15:57:01	BASE	9.42	61	11.73	54	-3.4	82	-6.0	54	0	977.6	NA	0.0000	HZ	9999	0	0	0	3050
2019/04/19 15:58:00	BASE	9.45	62	11.73	54	-3.4	82	-6.0	54	0	977.6	NA	0.0000	HZ	9999	0	0	0	2990
2019/04/19 15:59:00	BASE	8.93	63	11.73	54	-3.4	82	-6.0	55	0	977.6	NA	0.0000	-SN	8000	0	0	0	2850
2019/04/19 16:00:00	BASE	9.05	62	11.73	54	-3.4	82	-6.0	56	0	977.5	NA	0.0000	-SN	7000	0	0	0	2490
2019/04/19 16:01:00	BASE	10.07	61	11.73	54	-3.3	82	-6.0	56	0	977.4	NA	0.0000	-SN	5000	360	0	0	0
2019/04/19 16:02:00	BASE	10.21	60	11.32	52	-3.3	82	-6.0	58	0	977.4	NA	0.0000	-SN	4100	0	0	0	2200
2019/04/19 16:03:00	BASE	9.59	60	11.32	52	-3.3	82	-6.0	60	0	977.4	NA	0.0000	-SN	3400	890	0	0	0
2019/04/19 16:04:00	BASE	8.46	60	11.32	52	-3.4	82	-6.0	61	0	977.3	NA	0.0000	-SN	3300	330	0	0	0
2019/04/19 16:05:00	BASE	8.15	61	11.32	52	-3.4	82	-6.1	62	0	977.3	NA	0.0000	-SN	3200	0	0	0	2330
2019/04/19 16:06:00	BASE	8.50	63	11.32	52	-3.4	82	-6.1	62	0	977.3	NA	0.0000	-SN	3000	0	0	0	2260
2019/04/19 16:07:00	BASE	8.61	64	11.32	52	-3.4	82	-6.0	62	0	977.3	NA	0.0000	-SN	2700	0	0	0	2360
2019/04/19 16:08:00	BASE	8.33	66	11.32	52	-3.5	83	-6.0	62	0	977.3	NA	0.0000	-SN	2800	0	0	0	2460
2019/04/19 16:09:00	BASE	7.82	66	11.32	52	-3.5	83	-5.9	61	0	977.3	NA	0.0000	-SN	3000	0	0	0	6500
2019/04/19 16:10:00	BASE	7.60	65	11.27	59	-3.5	84	-5.9	60	0	977.3	NA	0.0000	-SN	3100	0	0	0	6230
2019/04/19 16:11:00	BASE	7.16	68	11.21	62	-3.5	84	-5.8	58	0	977.2	NA	0.0000	-SN	3300	0	0	0	5740
2019/04/19 16:12:00	BASE	6.58	70	9.62	65	-3.6	85	-5.8	56	0	977.2	NA	0.0000	-SN BR	3500	300	0	0	0
2019/04/19 16:13:00	BASE	6.65	70	9.62	65	-3.6	85	-5.7	55	0	977.2	NA	0.0000	-SN BR	3600	0	0	0	5640
2019/04/19 16:14:00	BASE	6.66	74	9.62	65	-3.6	86	-5.6	54	0	977.2	NA	0.0000	-SN BR	3700	260	0	0	0
2019/04/19 16:15:00	BASE	6.52	80	9.62	65	-3.6	86	-5.6	54	1	977.1	NA	0.0000	-SN BR	4200	0	0	0	5510
2019/04/19 16:16:00	BASE	5.75	81	9.62	65	-3.7	87	-5.6	53	1	977.2	NA	0.0000	-SN BR	4700	360	0	0	0
2019/04/19 16:17:00	BASE	4.91	81	8.75	71	-3.7	87	-5.6	52	0	977.2	NA	0.0000	-SN BR	5000	360	0	0	0
2019/04/19 16:18:01	BASE	5.28	84	8.33	66	-3.8	87	-5.6	51	1	977.2	NA	0.0000	-SN BR	6000	0	0	0	5250
2019/04/19 16:19:00	BASE	5.40	90	8.33	66	-3.8	88	-5.5	52	0	977.2	NA	0.0000	-SN BR	5000	0	0	0	5250
2019/04/19 16:20:00	BASE	5.06	93	7.97	66	-3.8	88	-5.5	52	0	977.2	NA	0.0000	-SN BR	5000	2690	0	0	0
2019/04/19 16:21:00	BASE	4.66	93	7.97	66	-3.8	88	-5.5	53	0	977.2	NA	0.0000	-SN BR	7000	2720	0	0	0
2019/04/19 16:22:00	BASE	3.99	96	7.82	77	-3.8	88	-5.4	53	0	977.1	NA	0.0000	-SN BR	9000	2620	0	0	0
2019/04/19 16:23:00	BASE	4.12	100	7.72	77	-3.8	89	-5.4	54	0	977.1	NA	0.0000	-SN BR	9999	2660	0	0	0
2019/04/19 16:24:00	BASE	4.24	103	6.94	83	-3.8	89	-5.3	54	0	977.1	NA	0.0000	-SN BR	9999	0	0	0	4890
2019/04/19 16:25:00	BASE	4.09	106	6.74	88	-3.8	90	-5.2	54	0	977.1	NA	0.0000	-SN BR	9999	0	0	0	5180
2019/04/19 16:26:00	BASE	4.25	108	6.74	88	-3.8	90	-5.2	54	1	977.0	NA	0.0000	-SN BR	9999	0	0	0	4920
2019/04/19 16:27:00	BASE	3.94	112	6.74	88	-3.8	91	-5.1	54	0	977.0	NA	0.0000	-SN BR	9999	0	0	0	4590
2019/04/19 16:28:00	BASE	3.76	110	5.76	104	-3.8	91	-5.1	54	0	977.0	NA	0.0000	-SN BR	9999	0	0	0	4660
2019/04/19 16:29:00	BASE	3.78	107	5.35	105	-3.8	91	-5.1	53	0	976.9	NA	0.0000	-SN BR	9999	0	0	0	4530
2019/04/19 16:30:00	BASE	4.13	107	5.86	98	-3.8	91	-5.1	52	0	976.9	NA	0.0000	-SN	9999	0	0	0	4000
2019/04/19 16:31:00	BASE	4.90	102	6.38	94	-3.8	91	-5.1	50	0	976.9	NA	0.0000	-SN	9999	0	0	0	3770
2019/04/19 16:32:00	BASE	5.54	96	6.38	94	-3.8	91	-5.1	50	0	976.8	NA	0.0000	-SN	9999	0	0	0	3510
2019/04/19 16:33:00	BASE	5.55	99	6.38	94	-3.9	91	-5.1	50	0	976.8	NA	0.0000	-SN	5000	0	0	0	3350
2019/04/19 16:34:00	BASE	5.31	102	6.38	94	-3.9	91	-5.1	50	0	976.8	NA	0.0000	-SN BR	4300	0	0	0	3280
2019/04/19 16:35:00	BASE	5.82	104	6.94	109	-3.9	91	-5.1	50	0	976.7	NA	0.0000	-SN BR	6000	0	0	0	3120
2019/04/19 16:36:00	BASE	5.93	105	6.94	109	-3.8	90	-5.2	49	0	976.7	NA	0.0000	-SN BR	8000	0	0	0	2990
2019/04/19 16:37:00	BASE	6.20	107	8.13	108	-3.8	90	-5.2	48	0	976.7	NA	0.0000	-SN BR	6000	0	0	0	2920
2019/04/19 16:38:00	BASE	6.86	107	8.13	108	-3.8	89	-5.3	50	0	976.6	NA	0.0000	-SN BR	3300	0	0	0	2690
2019/04/19 16:39:00	BASE	6.85	110	8.13	108	-3.8	89	-5.4	49	0	976.6	NA	0.0000	-SN BR	2800	0	0	0	2790
2019/04/19 16:40:00	BASE	7.54	112	9.05	113	-3.8	88	-5.4	50	0	976.6	NA	0.0000	-SN BR	3300	0	0	0	2490
2019/04/19 16:41:00	BASE	7.77	110	9.05	113	-3.8	88	-5.5	51	0	976.5	NA	0.0000	-SN BR	2600	0	0	0	2400
2019/04/19 16:42:00	BASE	7.11	111	9.05	113	-3.8	88	-5.5	53	0	976.5	NA	0.0000	-SN BR	2200	0	0	0	2300
2019/04/19 16:43:00	BASE	7.03	111	9.05	113	-3.8	88	-5.5	56	0	976.5	NA	0.0000	-SN BR	2200	0	0	0	2330
2019/04/19 16:44:00	BASE	7.35	112	9.05	113	-3.8	88	-5.5	59	0	976.4	NA	0.0000	-SN BR	2400	0	0	0	2400
2019/04/19 16:45:00	BASE	7.73	120	9.05	113	-3.8	88	-5.4	62	0	976.4	NA	0.0000	-SN BR	2200	0	0	0	2890
2019/04/19 16:46:00	BASE	7.45	124	9.05	113	-3.8	89	-5.4	65	0	976.4	NA	0.0000	-SN BR	2100	0	0	0	2430
2019/04/19 16:47:00	BASE	7.17	123	9.05	113	-3.8	89	-5.4	69	1	976.3	NA	0.0000	-SN BR	2100	0	0	0	2850
2019/04/19 16:48:00	BASE	7.60	122	9.05	113	-3.9	90	-5.3	72	1	976.2	NA	0.0000	-SN BR	2000	0	0	0	2890
2019/04/19 16:49:00	BASE	7.87	123	9.05	113	-3.9	90	-5.2	74	0	976.2	NA	0.0000	-SN BR	2100	0	0	0	3150
2019/04/19 16:50:00	BASE	7.96	126	8.75	132	-3.9	91	-5.2	76	0	976.2	NA	0.0000	-SN BR	2100	0	0	0	2990
2019/04/19 16:51:00	BASE	7.70	126	8.75	132	-3.9	91	-5.1	77	0	976.2	NA	0.0000	-SN BR	2000	0	0	0	2820
2019/04/19 16:52:00	BASE	7.35	120	8.75	132	-4.0	92	-5.1	77	1	976.1	NA	0.0000	-SN BR	2100	0	0	0	2460
2019/04/19 16:53:00	BASE	7.72	115	8.75	132	-4.0	92	-5.0	76	0	976.0	NA	0.0000	-SN BR	2100	0	0	0	2720
2019/04/19 16:54:00	BASE	7.81	112	8.75	132	-4.0	93	-5.0	75	0	976.0	NA	0.0000	-SN BR	2000	0	0	0	2660
2019/04/19 16:55:00	BASE	7.55	109	8.64	129	-4.0	93	-4.9	73	0	976.0	NA	0.0000	-SN BR	2200	0	0	0	2660
2019/04/19 16:56:00	BASE	7.45	109	8.64	129	-4.0	94	-4.9	71	0	976.0	NA	0.0000	-SN BR	2200	0	0	0	2620
2019/04/19 16:57:00	BASE	7.29	108	8.64	129	-4.0	94	-4.9	69	0	976.0	NA	0.0000	-SN BR	2100	0	0	0	3770
2019/04/19 16:58:00	BASE	7.54	107	9.00	103	-4.1	94	-4.8	67	0	975.9	NA	0.0000	-SN BR	2200	0	0	0	5840
2019/04/19 16:59:00	BASE	8.42	107	9.52	111	-4.1	95	-4.8	65	0	975.9	NA	0.0000	-SN BR	2100	0	0	0	3970
2019/04/19 17:00:00	BASE	8.49	108	9.52	111	-4.1	95	-4.9	63	1	975.9	NA	0.0000	-SN BR	2100	0	0	0	3670
2019/04/19 17:01:01	BASE	8.71	108	9.77	111	-4.2	95	-4.9	61	0	975.8	NA	0.0000	-SN BR	2000	0	0	0	3480
2019/04/19 17:02:00	BASE	9.46	110	10.44	110	-4.2	95	-4.9	60	0	975.8	NA	0.0000	-SN BR	1900	0	0	0	4130
2019/04/19 17:03:00	BASE	9.31	111	10.44	110	-4.3	95	-4.9	59	1	975.8	NA	0.0000	-SN BR	2200	0	0	0	3900
2019/04/19 17:04:00	BASE	8.66	110	10.44	110	-4.3	95	-5.0	59	0	975.8	NA	0.0000	-SN BR	2300	0	0	0	4000
2019/04/19 17:05:00	BASE	8.47	110	10.44	110	-4.3	95	-5.0	59	0	975.8	NA	0.0000	-SN BR	2300	0	0	0	4070
2019/04/19 17:06:00	BASE	8.45	112	10.44	110	-4.3	95	-5.0	59	0	975.8	NA	0.0000	-SN BR	2800	0	0	0	5350
2019/04/19 17:07:00	BASE	7.94	113	10.44	110	-4.3	95	-5.0	59	0	975.7	NA	0.0000	-SN BR	3600	0	0	0	5410
2019/04/19 17:08:00	BASE	7.25	113	10.44	110	-4.3	95	-5.0	60	1	975.6	NA	0.0000	-SN BR	4200	0	0	0	4630
2019/04/19 17:09:00	BASE	6.79	112	10.44	110	-4.3	95	-4.9	60	0	975.6	NA	0.0000	-SN BR	4400	0	0	0	4490
2019/04/19 17:10:00	BASE	6.88	114	10.44	110	-4.3	95	-4.9	62	0	975.6	NA	0.0000	-SN BR	4500	0	0	0	4400
2019/04/19 17:11:00	BASE	7.08	118	10.44	110	-4.2	95	-4.9	63	1	975.6	NA	0.0000	-SN BR	4700	0	0	0	4460
2019/04/19 17:12:00	BASE	7.02	120	9.98	115	-4.2	95	-4.9	65	1	975.6	NA	0.0000	-SN BR	5000	0	0	0	4300
2019/04/19 17:13:00	BASE	6.67	120	9.41	107	-4.2	95	-4.9	67	1	975.6	NA	0.0000	-SN BR	5000	0	0	0	4330
2019/04/19 17:14:00	BASE	6.41	120	9.41	107	-4.2	96	-4.8	69	1	975.6	NA	0.0000	-SN BR	6000	0	0	0	4460
2019/04/19 17:15:00	BASE	6.29	120	9.16	108	-4.2	96	-4.8	70	0	975.6	NA	0.0000	-SN BR	6000	0	0	0	4990
2019/04/19 17:16:00	BASE	6.35	122	8.49	115	-4.2	96	-4.8	72	0	975.5	NA	0.0000	-SN BR	6000	0	0	0	4890
2019/04/19 17:17:00	BASE	6.53	121	7.97	119	-4.3	96	-4.8	73	0	975.4	NA	0.0000	-SN BR	4800	0	0	0	4660
2019/04/19 17:18:00	BASE	6.81	122	7.97	119	-4.3	96	-4.7	75	0	975.4	NA	0.0000	-SN BR	3800	0	0	0	4070
2019/04/19 17:19:00	BASE	7.01	125	7.97	119	-4.3	97	-4.7	76	0	975.4	NA	0.0000	-SN BR	3800	0	0	0	4100
2019/04/19 17:20:00	BASE	6.58	126	7.97	119	-4.3	97	-4.7	78	1	975.4	NA	0.0000	-SN BR	4400	0	0	0	4330
2019/04/19 17:21:00	BASE	6.45	128	7.56	126	-4.2	97	-4.6	79	0	975.4	NA	0.0000	-SN BR	4600	0	0	0	4360
2019/04/19 17:22:00	BASE	6.74	126	7.56	126	-4.2	97	-4.6	80	1	975.4	NA	0.0000	-SN BR	3500	0	0	0	4590
2019/04/19 17:23:00	BASE	6.67	125	7.56	126	-4.2	97	-4.6	81	0	975.4	NA	0.0000	-SN BR	3000	0	0	0	4690
2019/04/19 17:24:00	BASE	6.59	124	7.61	123	-4.2	98	-4.6	81	0	975.4	NA	0.0000	-SN BR	2600	0	0	0	4720
2019/04/19 17:25:00	BASE	6.51	125	7.61	123	-4.3	98	-4.5	80	0	975.4	NA	0.0000	-SN BR	2400	0	0	0	4920
2019/04/19 17:26:00	BASE	6.45	125	7.61	123	-4.3	98	-4.5	80	0	975.4	NA	0.0000	-SN BR	2500	0	0	0	5810
2019/04/19 17:27:00	BASE	6.47	127	7.61	123	-4.3	98	-4.6	78	0	975.4	NA	0.0000	-SN BR	2500	0	0	0	5940
2019/04/19 17:28:00	BASE	6.74	131	7.61	123	-4.3	98	-4.6	77	0	975.3	NA	0.0000	-SN BR	2800	0	0	0	4330
2019/04/19 17:29:00	BASE	6.96	130	7.61	123	-4.3	98	-4.6	75	0	975.4	NA	0.0000	-SN BR	3100	360	2890	0	0
2019/04/19 17:30:00	BASE	6.94	128	7.61	123	-4.3	98	-4.5	74	0	975.3	NA	0.0000	-SN BR	3200	0	0	0	5510
2019/04/19 17:31:00	BASE	6.88	127	7.61	127	-4.3	98	-4.5	72	1	975.3	NA	0.0000	-SN BR	3500	1120	0	0	0
2019/04/19 17:32:00	BASE	6.76	127	7.61	127	-4.3	99	-4.4	70	0	975.3	NA	0.0000	-SN BR	3700	2460	0	0	0
2019/04/19 17:33:00	BASE	6.76	128	7.61	124	-4.2	99	-4.4	68	0	975.3	NA	0.0000	-SN BR	4300	0	0	0	5250
2019/04/19 17:34:00	BASE	6.98	133	7.97	140	-4.2	99	-4.4	66	0	975.3	NA	0.0000	-SN BR	5000	390	0	0	0
2019/04/19 17:35:00	BASE	7.25	133	7.97	140	-4.2	99	-4.4	64	0	975.3	NA	0.0000	-SN BR	5000	390	0	0	0
2019/04/19 17:36:00	BASE	7.97	130	9.52	129	-4.2	99	-4.3	61	1	975.2	NA	0.0000	-SN BR	6000	390	0	0	0
2019/04/19 17:37:00	BASE	8.65	129	9.77	128	-4.2	99	-4.3	59	0	975.2	NA	0.0000	-SN BR	6000	390	0	0	0
2019/04/19 17:38:00	BASE	8.16	126	9.77	128	-4.2	99	-4.3	56	0	975.2	NA	0.0000	-SN BR	7000	360	0	0	0
2019/04/19 17:39:00	BASE	7.47	122	9.77	128	-4.2	100	-4.3	54	0	975.2	NA	0.0000	-SN BR	7000	390	0	0	0
2019/04/19 17:40:00	BASE	7.68	119	9.77	128	-4.2	100	-4.2	51	1	975.2	NA	0.0000	-SN BR	7000	1250	0	0	0
2019/04/19 17:41:00	BASE	7.93	115	9.77	128	-4.2	100	-4.2	48	1	975.2	NA	0.0000	-SN BR	6000	0	0	0	3580
2019/04/19 17:42:00	BASE	8.81	111	10.75	110	-4.2	100	-4.2	45	0	975.2	NA	0.0000	-SN BR	5000	1350	0	0	0
2019/04/19 17:43:00	BASE	10.01	107	11.32	103	-4.2	100	-4.2	42	1	975.2	NA	0.0000	-SN BR	5000	1350	0	0	0
2019/04/19 17:44:00	BASE	10.30	107	11.32	103	-4.2	100	-4.2	40	0	975.1	NA	0.0000	-SN BR	5000	390	0	0	0
2019/04/19 17:45:00	BASE	10.02	110	11.32	103	-4.2	100	-4.2	38	0	975.1	NA	0.0000	-SN BR	5000	360	0	0	0
2019/04/19 17:46:00	BASE	9.33	113	11.32	103	-4.2	100	-4.2	36	1	975.1	NA	0.0000	-SN BR	5000	390	0	0	0
2019/04/19 17:47:00	BASE	8.67	114	11.32	103	-4.2	100	-4.2	34	0	975.2	NA	0.0000	-SN BR	5000	360	0	0	0
2019/04/19 17:48:00	BASE	8.27	114	11.32	103	-4.2	99	-4.3	32	0	975.2	NA	0.0000	-SN BR	5000	360	0	0	0
2019/04/19 17:49:00	BASE	8.00	114	11.32	103	-4.2	99	-4.3	30	0	975.2	NA	0.0000	-SN BR	5000	330	0	0	0
2019/04/19 17:50:00	BASE	7.78	118	11.32	103	-4.2	99	-4.3	29	1	975.2	NA	0.0000	-SN BR	4100	0	0	0	2360
2019/04/19 17:51:00	BASE	7.38	124	11.32	103	-4.2	100	-4.2	27	1	975.2	NA	0.0000	-SN BR	3200	0	0	0	2230
2019/04/19 17:52:00	BASE	7.03	128	11.32	103	-4.2	100	-4.2	26	1	975.2	NA	0.0000	-SN BR	2700	0	0	0	2100
2019/04/19 17:53:00	BASE	7.05	133	11.11	113	-4.1	100	-4.1	24	0	975.2	NA	0.0000	-SN BR	2600	0	0	0	2070
2019/04/19 17:54:00	BASE	6.86	140	10.49	106	-4.1	100	-4.1	23	1	975.2	NA	0.0000	-SN BR	2800	0	0	0	2000
2019/04/19 17:55:00	BASE	6.44	145	9.77	110	-4.1	100	-4.1	22	0	975.2	NA	0.0000	-SN BR	2800	300	0	0	0
2019/04/19 17:56:00	BASE	6.21	147	9.16	116	-4.1	100	-4.1	22	0	975.2	NA	0.0000	-SN BR	2300	0	0	0	1870
2019/04/19 17:57:00	BASE	5.95	152	8.49	115	-4.1	100	-4.1	21	1	975.2	NA	0.0000	-SN BR	2000	0	0	0	1770
2019/04/19 17:58:00	BASE	5.10	152	8.49	115	-4.1	100	-4.1	21	0	975.2	NA	0.0000	-SN BR	2100	0	0	0	1480
2019/04/19 17:59:00	BASE	4.74	148	8.44	121	-4.1	100	-4.1	21	0	975.2	NA	0.0000	-SN BR	1900	0	0	0	1410
2019/04/19 18:00:00	BASE	5.21	146	7.51	125	-4.1	100	-4.1	20	0	975.2	NA	0.0000	-SN BR	1500	0	0	0	1310
2019/04/19 18:01:00	BASE	5.37	148	7.41	138	-4.1	100	-4.1	20	0	975.2	NA	0.0000	-SN BR	1100	0	0	0	1250
2019/04/19 18:02:00	BASE	5.24	150	7.41	138	-4.1	100	-4.1	20	0	975.2	NA	0.0000	-SN BR	1000	0	0	0	1210
2019/04/19 18:03:00	BASE	4.84	148	7.31	147	-4.1	100	-4.1	20	1	975.2	NA	0.0000	-SN BR	1000	0	0	0	1150
2019/04/19 18:04:00	BASE	4.61	149	7.20	146	-4.2	100	-4.2	20	0	975.2	NA	0.0000	-SN BR	1000	0	0	0	1080
2019/04/19 18:05:00	BASE	4.22	154	6.84	143	-4.2	100	-4.2	20	0	975.2	NA	0.0000	-SN BR	0800	0	0	0	1080
2019/04/19 18:06:00	BASE	3.48	153	6.48	156	-4.2	100	-4.2	21	1	975.2	NA	0.0000	-SN BR	0800	0	0	0	1020
2019/04/19 18:07:00	BASE	3.85	154	6.28	142	-4.2	100	-4.2	21	1	975.2	NA	0.0000	-SN BR	0800	0	0	0	950
2019/04/19 18:08:00	BASE	4.39	157	6.28	142	-4.2	100	-4.2	21	0	975.2	NA	0.0000	+SN BR	0750	0	0	0	920
2019/04/19 18:09:01	BASE	4.11	159	6.28	142	-4.2	100	-4.2	21	1	975.2	NA	0.0000	+SN BR	0650	0	0	0	850
2019/04/19 18:10:00	BASE	3.78	167	5.71	151	-4.2	100	-4.2	21	1	975.2	NA	0.0000	SN FZFG	0650	0	0	0	820
2019/04/19 18:11:00	BASE	3.37	166	5.61	151	-4.2	100	-4.2	21	0	975.2	NA	0.0000	SN FZFG	0650	0	0	0	820
2019/04/19 18:12:00	BASE	3.20	161	5.61	151	-4.2	100	-4.2	21	0	975.2	NA	0.0000	SN FZFG	0650	0	0	0	790
2019/04/19 18:13:00	BASE	3.20	163	5.61	151	-4.2	100	-4.2	21	0	975.2	NA	0.0000	SN FZFG	0600	0	0	0	790
2019/04/19 18:14:00	BASE	3.15	165	4.99	161	-4.3	100	-4.3	21	2	975.2	NA	0.0000	SN FZFG	0600	0	0	0	820
2019/04/19 18:15:00	BASE	2.94	165	4.99	161	-4.3	100	-4.3	21	1	975.2	NA	0.0000	+SN FZFG	0600	0	0	0	850
2019/04/19 18:16:00	BASE	2.51	170	4.99	161	-4.3	100	-4.3	21	0	975.2	NA	0.0000	+SN FZFG	0600	0	0	0	890
2019/04/19 18:17:00	BASE	1.98	169	4.89	150	-4.3	100	-4.3	22	0	975.2	NA	0.0000	+SN FZFG	0650	0	0	0	920
2019/04/19 18:18:00	BASE	1.55	168	4.12	159	-4.3	100	-4.3	21	0	975.2	NA	0.0000	+SN FZFG	0750	0	0	0	950
2019/04/19 18:19:00	BASE	1.46	177	3.96	176	-4.3	100	-4.3	21	2	975.2	NA	0.0000	+SN FZFG	0900	0	0	0	1050
2019/04/19 18:20:00	BASE	1.30	179	3.65	153	-4.3	100	-4.3	21	0	975.2	NA	0.0000	SN FZFG	1200	0	0	0	1080
2019/04/19 18:21:01	BASE	0.83	181	3.65	153	-4.4	100	-4.4	21	2	975.2	NA	0.0000	SN FZFG	1200	0	0	0	1080
2019/04/19 18:22:00	BASE	0.22	188	3.60	165	-4.4	100	-4.4	20	0	975.2	NA	0.0000	SN FZFG	1200	0	0	0	1080
2019/04/19 18:23:00	BASE	0.04	189	3.60	165	-4.4	100	-4.4	20	2	975.2	NA	0.0000	SN FZFG	1200	0	0	0	1150
2019/04/19 18:24:00	BASE	0.18	183	3.19	161	-4.4	100	-4.4	19	2	975.2	NA	0.0000	SN FZFG	1200	0	0	0	1210
2019/04/19 18:25:00	BASE	0.38	178	2.78	182	-4.4	100	-4.4	18	2	975.2	NA	0.0000	SN BR	1300	0	0	0	1280
2019/04/19 18:26:00	BASE	0.24	165	1.90	178	-4.4	100	-4.4	17	2	975.2	NA	0.0000	SN BR	1500	0	0	0	1250
2019/04/19 18:27:00	BASE	0.05	124	1.90	178	-4.4	100	-4.4	17	0	975.2	NA	0.0000	-SN BR	1600	0	0	0	1280
2019/04/19 18:28:00	BASE	0.50	102	1.54	171	-4.4	100	-4.4	16	2	975.2	NA	0.0000	-SN BR	1600	0	0	0	1380
2019/04/19 18:29:00	BASE	0.91	105	1.44	107	-4.4	100	-4.4	16	0	975.2	NA	0.0000	-SN BR	1500	0	0	0	1250
2019/04/19 18:30:00	BASE	1.15	110	1.54	116	-4.4	100	-4.4	16	1	975.2	NA	0.0000	-SN BR	1500	0	0	0	1280
2019/04/19 18:31:00	BASE	1.34	113	1.54	116	-4.4	100	-4.4	16	0	975.2	NA	0.0000	-SN BR	1500	0	0	0	1350
2019/04/19 18:32:00	BASE	1.00	116	1.54	116	-4.4	100	-4.4	15	2	975.2	NA	0.0000	-SN BR	1500	0	0	0	1350
2019/04/19 18:33:00	BASE	0.36	119	1.54	116	-4.4	100	-4.4	15	0	975.2	NA	0.0000	-SN BR	1400	0	0	0	1310
2019/04/19 18:34:00	BASE	0.00	116	1.54	116	-4.4	100	-4.4	15	1	975.2	NA	0.0000	-SN BR	1400	0	0	0	1350
2019/04/19 18:35:00	BASE	0.00	111	1.54	116	-4.4	100	-4.4	15	0	975.2	NA	0.0000	-SN BR	1500	0	0	0	1310
2019/04/19 18:36:00	BASE	0.00	107	1.54	116	-4.4	100	-4.4	15	0	975.2	NA	0.0000	-SN BR	1600	0	0	0	1350
2019/04/19 18:37:00	BASE	0.00	104	1.54	116	-4.4	100	-4.4	15	2	975.2	NA	0.0000	-SN BR	1500	0	0	0	1380
2019/04/19 18:38:00	BASE	0.00	104	1.54	116	-4.5	100	-4.5	15	0	975.2	NA	0.0000	-SN BR	1500	0	0	0	1380
2019/04/19 18:39:00	BASE	0.00	104	1.54	116	-4.5	100	-4.5	15	0	975.3	NA	0.0000	-SN BR	1500	0	0	0	1380
2019/04/19 18:40:00	BASE	0.00	104	1.44	115	-4.5	100	-4.5	15	0	975.3	NA	0.0000	-SN BR	1700	0	0	0	1380
2019/04/19 18:41:00	BASE	0.00	65	1.13	119	-4.5	100	-4.5	15	0	975.3	NA	0.0000	-SN BR	1800	0	0	0	1410
2019/04/19 18:42:00	BASE	0.00	11	M	M	-4.5	100	-4.5	15	0	975.3	NA	0.0000	-SN BR	1700	0	0	0	1480
2019/04/19 18:43:00	BASE	0.00	3	M	M	-4.5	100	-4.5	15	1	975.3	NA	0.0000	-SN BR	1600	0	0	0	1610
2019/04/19 18:44:00	BASE	0.00	3	M	M	-4.5	100	-4.5	14	0	975.3	NA	0.0000	-SN BR	1700	0	0	0	1710
2019/04/19 18:45:00	BASE	0.00	1	M	M	-4.5	100	-4.5	14	0	975.3	NA	0.0000	-SN BR	1700	0	0	0	1640
2019/04/19 18:46:00	BASE	0.04	360	1.03	354	-4.5	100	-4.5	14	0	975.3	NA	0.0000	-SN BR	1700	0	0	0	1640
2019/04/19 18:47:00	BASE	0.04	2	1.03	354	-4.5	100	-4.5	14	0	975.3	NA	0.0000	-SN BR	1700	0	0	0	1640
2019/04/19 18:48:00	BASE	0.00	2	1.03	354	-4.6	100	-4.6	13	2	975.3	NA	0.0000	-SN BR	1600	0	0	0	1640
2019/04/19 18:49:00	BASE	0.00	1	1.03	354	-4.6	100	-4.6	13	2	975.3	NA	0.0000	-SN BR	1700	0	0	0	1610
2019/04/19 18:50:00	BASE	0.00	0	1.03	354	-4.6	100	-4.6	13	0	975.3	NA	0.0000	-SN BR	1700	0	0	0	1670
2019/04/19 18:51:00	BASE	0.16	355	1.34	353	-4.6	100	-4.6	13	0	975.4	NA	0.0000	-SN BR	1600	0	0	0	1710
2019/04/19 18:52:00	BASE	0.77	352	1.34	353	-4.6	100	-4.6	13	0	975.4	NA	0.2540	-SN BR	1700	0	0	0	1740
2019/04/19 18:53:00	BASE	1.17	358	1.34	353	-4.6	100	-4.6	13	1	975.4	NA	0.0000	-SN BR	1600	0	0	0	1800
2019/04/19 18:54:00	BASE	1.02	6	1.34	353	-4.6	100	-4.6	13	1	975.4	NA	0.0000	-SN BR	1500	0	0	0	1900
2019/04/19 18:55:00	BASE	0.73	14	1.34	353	-4.6	100	-4.6	13	1	975.4	NA	0.0000	-SN BR	1500	0	0	0	2000
2019/04/19 18:56:00	BASE	0.27	11	1.34	353	-4.6	100	-4.6	13	0	975.4	NA	0.0000	-SN BR	1600	0	0	0	2560
2019/04/19 18:57:00	BASE	0.09	4	1.34	353	-4.6	100	-4.6	13	1	975.4	NA	0.0000	-SN BR	1800	0	0	0	2660
2019/04/19 18:58:00	BASE	0.26	4	1.34	353	-4.6	100	-4.6	13	0	975.4	NA	0.0000	-SN BR	2100	0	0	0	2790
2019/04/19 18:59:00	BASE	0.17	358	1.34	353	-4.6	100	-4.6	13	0	975.4	NA	0.0000	-SN BR	2200	0	0	0	2990
2019/04/19 19:00:00	BASE	0.00	359	1.34	353	-4.6	100	-4.6	13	0	975.4	NA	0.0000	-SN BR	2100	0	0	0	2950
2019/04/19 19:01:00	BASE	0.57	12	1.29	354	-4.5	100	-4.5	12	0	975.4	NA	0.0000	-SN BR	2300	0	0	0	3120
2019/04/19 19:02:00	BASE	1.10	4	1.39	354	-4.5	100	-4.5	12	0	975.4	NA	0.0000	-SN BR	2700	0	0	0	3080
2019/04/19 19:03:00	BASE	0.53	350	1.39	354	-4.5	100	-4.5	12	2	975.5	NA	0.0000	-SN BR	2600	0	0	0	3610
2019/04/19 19:04:00	BASE	0.00	348	1.39	354	-4.5	100	-4.5	12	0	975.6	NA	0.0000	-SN BR	2600	0	0	0	3410
2019/04/19 19:05:00	BASE	0.13	342	1.39	354	-4.5	100	-4.5	11	0	975.6	NA	0.0000	-SN BR	2600	0	0	0	3280
2019/04/19 19:06:00	BASE	0.13	334	1.39	354	-4.5	100	-4.5	11	0	975.6	NA	0.0000	-SN BR	2400	0	0	0	3310
2019/04/19 19:07:00	BASE	0.00	335	1.39	354	-4.5	100	-4.5	11	0	975.6	NA	0.0000	-SN BR	2400	0	0	0	3710
2019/04/19 19:08:00	BASE	0.00	339	1.39	354	-4.5	100	-4.5	11	1	975.6	NA	0.0000	-SN BR	2100	0	0	0	4300
2019/04/19 19:09:00	BASE	0.04	342	1.39	354	-4.5	100	-4.5	11	2	975.6	NA	0.0000	-SN BR	1800	0	0	0	4360
2019/04/19 19:10:00	BASE	0.44	348	1.39	354	-4.5	100	-4.5	11	2	975.6	NA	0.0000	-SN BR	1700	0	0	0	4330
2019/04/19 19:11:00	BASE	1.03	357	1.39	354	-4.5	100	-4.5	11	0	975.6	NA	0.0000	-SN BR	2000	0	0	0	4430
2019/04/19 19:12:00	BASE	1.33	356	1.54	345	-4.5	100	-4.5	12	0	975.6	NA	0.0000	-SN BR	2300	0	0	0	4490
2019/04/19 19:13:00	BASE	1.37	351	1.54	346	-4.5	100	-4.5	12	2	975.6	NA	0.0000	-SN BR	2400	0	0	0	4360
2019/04/19 19:14:00	BASE	1.20	347	1.65	339	-4.5	100	-4.5	12	0	975.6	NA	0.0000	-SN BR	2200	0	0	0	4330
2019/04/19 19:15:00	BASE	1.15	342	1.65	339	-4.5	100	-4.5	12	0	975.5	NA	0.0000	-SN BR	2000	0	0	0	3840
2019/04/19 19:16:00	BASE	1.24	342	1.65	339	-4.5	100	-4.5	12	0	975.5	NA	0.0000	-SN BR	2500	0	0	0	4300
2019/04/19 19:17:00	BASE	1.26	344	1.65	339	-4.5	100	-4.5	12	0	975.6	NA	0.0000	-SN BR	3700	0	0	0	4200
2019/04/19 19:18:00	BASE	1.28	343	1.65	339	-4.5	100	-4.5	12	0	975.6	NA	0.0000	-SN BR	4000	0	0	0	3640
2019/04/19 19:19:00	BASE	1.20	349	1.65	339	-4.5	100	-4.5	12	0	975.6	NA	0.0000	-SN BR	4800	0	0	0	3710
2019/04/19 19:20:00	BASE	1.27	4	1.65	339	-4.5	100	-4.5	12	2	975.6	NA	0.0000	-SN BR	5000	0	0	0	3540
2019/04/19 19:21:00	BASE	1.36	12	1.65	339	-4.4	100	-4.4	12	0	975.6	NA	0.0000	-SN BR	5000	0	0	0	3410
2019/04/19 19:22:00	BASE	1.02	13	1.65	339	-4.4	100	-4.4	12	1	975.6	NA	0.0000	-SN BR	8000	200	1510	0	0
2019/04/19 19:23:00	BASE	0.45	10	1.65	339	-4.4	100	-4.4	12	1	975.6	NA	0.0000	-SN BR	7000	0	0	0	3350
2019/04/19 19:24:00	BASE	0.09	6	1.54	14	-4.4	100	-4.4	12	0	975.6	NA	0.0000	-SN BR	4300	0	0	0	3770
2019/04/19 19:25:00	BASE	0.00	5	1.54	14	-4.4	100	-4.4	12	1	975.6	NA	0.0000	-SN BR	2900	0	0	0	3220
2019/04/19 19:26:00	BASE	0.00	5	1.54	14	-4.4	100	-4.4	12	0	975.6	NA	0.0000	-SN BR	2300	0	0	0	3280
2019/04/19 19:27:00	BASE	0.00	8	1.54	14	-4.4	100	-4.4	12	0	975.6	NA	0.0000	-SN BR	2300	0	0	0	3080
2019/04/19 19:28:00	BASE	0.09	19	1.54	14	-4.4	100	-4.4	12	0	975.6	NA	0.0000	-SN BR	2600	0	0	0	3770
2019/04/19 19:29:00	BASE	0.73	34	1.54	14	-4.4	100	-4.4	12	0	975.6	NA	0.0000	-SN BR	2300	0	0	0	3610
2019/04/19 19:30:00	BASE	0.95	42	1.54	14	-4.4	100	-4.4	12	0	975.6	NA	0.2540	-SN BR	2300	0	0	0	3220
2019/04/19 19:31:00	BASE	0.44	44	1.44	15	-4.4	100	-4.4	12	2	975.6	NA	0.0000	-SN BR	2200	0	0	0	3120
2019/04/19 19:32:00	BASE	0.17	45	1.39	41	-4.4	100	-4.4	12	0	975.6	NA	0.0000	-SN BR	2100	0	0	0	3350
2019/04/19 19:33:00	BASE	0.05	44	1.39	41	-4.3	100	-4.3	13	2	975.6	NA	0.0000	-SN BR	2000	0	0	0	3250
2019/04/19 19:34:00	BASE	0.00	53	1.39	41	-4.4	100	-4.4	13	0	975.6	NA	0.0000	-SN BR	2000	0	0	0	3350
2019/04/19 19:35:00	BASE	0.00	64	1.39	41	-4.4	100	-4.4	13	0	975.6	NA	0.0000	-SN BR	2000	0	0	0	3150
2019/04/19 19:36:00	BASE	0.00	70	1.39	41	-4.4	100	-4.4	13	1	975.6	NA	0.0000	-SN BR	2100	0	0	0	2890
2019/04/19 19:37:00	BASE	0.00	74	1.39	41	-4.4	100	-4.4	13	0	975.6	NA	0.0000	-SN BR	2300	0	0	0	2790
2019/04/19 19:38:00	BASE	0.00	73	1.39	41	-4.4	100	-4.4	13	1	975.6	NA	0.0000	-SN BR	2300	0	0	0	2720
2019/04/19 19:39:00	BASE	0.00	69	1.08	45	-4.4	100	-4.4	13	0	975.6	NA	0.0000	-SN BR	2400	0	0	0	2490
2019/04/19 19:40:00	BASE	0.00	46	1.08	45	-4.4	100	-4.4	13	0	975.6	NA	0.0000	-SN BR	2500	0	0	0	2530
2019/04/19 19:41:00	BASE	0.00	29	1.08	45	-4.4	100	-4.4	13	0	975.6	NA	0.0000	-SN BR	2400	0	0	0	2460
2019/04/19 19:42:00	BASE	0.00	26	M	M	-4.4	100	-4.4	13	0	975.6	NA	0.0000	-SN BR	2100	0	0	0	2460
2019/04/19 19:43:00	BASE	0.00	20	M	M	-4.4	100	-4.4	13	0	975.6	NA	0.0000	-SN BR	2200	0	0	0	2490
2019/04/19 19:44:00	BASE	0.00	15	M	M	-4.4	100	-4.4	13	0	975.6	NA	0.0000	-SN BR	2000	0	0	0	2560
2019/04/19 19:45:00	BASE	0.00	9	M	M	-4.4	100	-4.4	13	0	975.6	NA	0.0000	-SN BR	1900	0	0	0	2590
2019/04/19 19:46:01	BASE	0.00	4	M	M	-4.4	100	-4.4	13	0	975.6	NA	0.0000	-SN BR	2000	0	0	0	2560
2019/04/19 19:47:01	BASE	0.00	354	M	M	-4.4	100	-4.4	13	0	975.6	NA	0.0000	-SN BR	2000	0	0	0	2720
2019/04/19 19:48:01	BASE	0.00	346	M	M	-4.4	100	-4.4	12	0	975.6	NA	0.0000	-SN BR	2000	0	0	0	2620
2019/04/19 19:49:01	BASE	0.00	351	M	M	-4.4	100	-4.4	12	0	975.6	NA	0.0000	-SN BR	2000	0	0	0	2620
2019/04/19 19:50:01	BASE	0.00	3	M	M	-4.4	100	-4.4	12	2	975.6	NA	0.0000	-SN BR	2100	0	0	0	2560
2019/04/19 19:51:01	BASE	0.00	7	M	M	-4.4	100	-4.4	12	0	975.6	NA	0.0000	-SN BR	2200	0	0	0	2590
2019/04/19 19:52:01	BASE	0.00	13	M	M	-4.3	100	-4.3	12	0	975.6	NA	0.0000	-SN BR	2200	0	0	0	2950
2019/04/19 19:53:01	BASE	0.00	17	M	M	-4.3	100	-4.3	12	0	975.6	NA	0.0000	-SN BR	2200	0	0	0	2920
2019/04/19 19:54:01	BASE	0.00	17	M	M	-4.3	100	-4.3	12	0	975.6	NA	0.0000	-SN BR	2100	0	0	0	3050
2019/04/19 19:55:01	BASE	0.00	17	M	M	-4.3	100	-4.3	12	0	975.6	NA	0.0000	-SN BR	2300	0	0	0	2990
2019/04/19 19:56:01	BASE	0.00	17	M	M	-4.4	100	-4.4	11	0	975.6	NA	0.0000	-SN BR	2300	0	0	0	2950
2019/04/19 19:57:01	BASE	0.00	17	M	M	-4.4	100	-4.4	11	0	975.6	NA	0.0000	-SN BR	2200	0	0	0	2760
2019/04/19 19:58:01	BASE	0.00	27	M	M	-4.4	100	-4.4	11	0	975.6	NA	0.0000	-SN BR	2300	0	0	0	2760
2019/04/19 19:59:01	BASE	0.00	59	M	M	-4.4	100	-4.4	11	1	975.6	NA	0.0000	-SN BR	2300	0	0	0	2820
2019/04/19 20:00:01	BASE	0.00	71	M	M	-4.4	100	-4.4	11	0	975.6	NA	0.0000	-SN BR	2600	0	0	0	2850
2019/04/19 20:01:01	BASE	0.00	64	M	M	-4.4	100	-4.4	11	0	975.6	NA	0.0000	-SN BR	2700	0	0	0	2950
2019/04/19 20:02:01	BASE	0.00	65	M	M	-4.4	100	-4.4	10	0	975.6	NA	0.0000	-SN BR	2500	0	0	0	2920
2019/04/19 20:03:01	BASE	0.00	68	M	M	-4.4	100	-4.4	10	0	975.6	NA	0.0000	-SN BR	2200	0	0	0	2920
2019/04/19 20:04:01	BASE	0.00	70	M	M	-4.4	100	-4.4	10	0	975.6	NA	0.0000	-SN BR	2200	0	0	0	2990
2019/04/19 20:05:01	BASE	0.00	70	M	M	-4.4	100	-4.4	10	0	975.6	NA	0.0000	-SN BR	2400	0	0	0	2950
2019/04/19 20:06:01	BASE	0.00	72	M	M	-4.4	100	-4.4	10	0	975.6	NA	0.0000	-SN BR	2100	0	0	0	2950
2019/04/19 20:07:01	BASE	0.00	74	M	M	-4.4	100	-4.4	10	0	975.6	NA	0.0000	-SN BR	2100	0	0	0	2990
2019/04/19 20:08:01	BASE	0.00	74	M	M	-4.4	100	-4.4	10	0	975.6	NA	0.0000	-SN BR	2200	0	0	0	3020
2019/04/19 20:09:01	BASE	0.00	76	M	M	-4.4	100	-4.4	10	1	975.6	NA	0.0000	-SN BR	2300	0	0	0	3120
2019/04/19 20:10:01	BASE	0.00	78	M	M	-4.4	100	-4.4	9	0	975.6	NA	0.0000	-SN BR	2100	0	0	0	3220
2019/04/19 20:11:01	BASE	0.00	79	M	M	-4.4	100	-4.4	9	0	975.6	NA	0.0000	-SN BR	2200	0	0	0	3480
2019/04/19 20:12:01	BASE	0.04	80	1.03	82	-4.4	100	-4.4	9	1	975.6	NA	0.0000	-SN BR	2200	0	0	0	3540
2019/04/19 20:13:01	BASE	0.22	83	1.13	87	-4.4	100	-4.4	9	0	975.6	NA	0.0000	-SN BR	2000	0	0	0	3670
2019/04/19 20:14:01	BASE	0.74	86	1.18	87	-4.4	100	-4.4	8	1	975.6	NA	0.0000	-SN BR	1700	0	0	0	3640
2019/04/19 20:15:01	BASE	1.04	87	1.18	87	-4.4	100	-4.4	8	1	975.6	NA	0.0000	-SN BR	1700	0	0	0	3610
2019/04/19 20:16:01	BASE	1.03	88	1.18	87	-4.4	100	-4.4	8	1	975.6	NA	0.0000	-SN BR	1900	0	0	0	3770
2019/04/19 20:17:01	BASE	0.67	89	1.18	87	-4.4	100	-4.4	7	1	975.6	NA	0.0000	-SN BR	2200	0	0	0	3710
2019/04/19 20:18:01	BASE	0.63	91	1.18	87	-4.4	100	-4.4	7	0	975.8	NA	0.0000	-SN BR	2100	0	0	0	3580
2019/04/19 20:19:01	BASE	1.06	93	1.18	87	-4.4	100	-4.4	7	0	975.8	NA	0.0000	-SN BR	1900	0	0	0	3610
2019/04/19 20:20:01	BASE	1.11	95	1.18	98	-4.4	100	-4.4	6	1	975.8	NA	0.0000	-SN BR	1900	0	0	0	3540
2019/04/19 20:21:01	BASE	1.13	97	1.29	98	-4.4	100	-4.4	6	0	975.8	NA	0.0000	-SN BR	2000	0	0	0	3610
2019/04/19 20:22:01	BASE	1.18	99	1.29	98	-4.4	100	-4.4	6	0	975.8	NA	0.0000	-SN BR	2100	0	0	0	3480
2019/04/19 20:23:00	BASE	1.25	100	1.44	101	-4.4	100	-4.4	5	0	975.8	NA	0.0000	-SN BR	1900	0	0	0	3380
2019/04/19 20:24:01	BASE	1.28	101	1.44	101	-4.4	100	-4.4	5	1	975.8	NA	0.0000	-SN BR	2000	0	0	0	3380
2019/04/19 20:25:01	BASE	1.21	103	1.44	101	-4.4	100	-4.4	5	1	975.8	NA	0.0000	-SN BR	2000	0	0	0	3450
2019/04/19 20:26:01	BASE	1.09	104	1.44	101	-4.4	100	-4.4	5	1	975.8	NA	0.0000	-SN BR	1700	0	0	0	3350
2019/04/19 20:27:00	BASE	0.73	104	1.44	101	-4.4	100	-4.4	4	1	975.8	NA	0.0000	-SN BR	1600	0	0	0	3310
2019/04/19 20:28:01	BASE	0.78	104	1.44	101	-4.4	100	-4.4	4	0	975.8	NA	0.0000	-SN BR	1700	0	0	0	3220
2019/04/19 20:29:01	BASE	0.99	103	1.44	101	-4.4	100	-4.4	4	1	975.8	NA	0.0000	-SN BR	1900	0	0	0	3180
2019/04/19 20:30:01	BASE	0.97	105	1.44	101	-4.4	100	-4.4	4	0	975.8	NA	0.0000	-SN BR	2000	0	0	0	3080
2019/04/19 20:31:00	BASE	0.85	107	1.44	101	-4.4	100	-4.4	3	1	975.8	NA	0.0000	-SN BR	1900	0	0	0	2990
2019/04/19 20:32:00	BASE	0.37	108	1.44	101	-4.4	100	-4.4	3	0	975.8	NA	0.0000	-SN BR	1800	0	0	0	2920
2019/04/19 20:33:01	BASE	0.17	111	1.39	101	-4.4	100	-4.4	3	1	975.8	NA	0.0000	-SN BR	1800	0	0	0	2790
2019/04/19 20:34:00	BASE	0.38	116	1.23	121	-4.4	100	-4.4	3	0	975.8	NA	0.0000	-SN BR	1700	0	0	0	2720
2019/04/19 20:35:01	BASE	0.48	117	1.23	121	-4.4	100	-4.4	3	0	975.8	NA	0.0000	-SN BR	1500	0	0	0	2620
2019/04/19 20:36:00	BASE	0.32	112	1.23	121	-4.4	100	-4.4	3	1	975.8	NA	0.0000	-SN BR	1400	0	0	0	2560
2019/04/19 20:37:00	BASE	0.73	107	1.39	100	-4.3	100	-4.3	2	0	975.8	NA	0.0000	-SN BR	1500	0	0	0	2530
2019/04/19 20:38:00	BASE	1.30	108	1.54	111	-4.3	100	-4.3	2	0	975.8	NA	0.0000	-SN BR	1600	0	0	0	2490
2019/04/19 20:39:00	BASE	1.37	110	1.54	110	-4.3	100	-4.3	2	0	975.8	NA	0.0000	-SN BR	1500	0	0	0	2460
2019/04/19 20:40:00	BASE	1.35	109	1.54	110	-4.3	100	-4.3	2	0	975.8	NA	0.0000	-SN BR	1400	0	0	0	2400
2019/04/19 20:41:00	BASE	1.01	105	1.54	110	-4.3	100	-4.3	2	1	975.8	NA	0.0000	-SN BR	1500	0	0	0	2330
2019/04/19 20:42:00	BASE	0.90	102	1.54	110	-4.3	100	-4.3	2	0	975.8	NA	0.0000	-SN BR	1400	0	0	0	2260
2019/04/19 20:43:00	BASE	1.21	105	1.54	110	-4.3	100	-4.3	2	0	975.8	NA	0.0000	-SN BR	1200	0	0	0	2200
2019/04/19 20:44:01	BASE	1.46	109	1.75	113	-4.3	100	-4.3	1	1	975.8	NA	0.0000	-SN BR	1200	0	0	0	2170
2019/04/19 20:45:00	BASE	1.47	110	1.75	113	-4.3	100	-4.3	1	0	975.9	NA	0.0000	-SN BR	1000	0	0	0	2100
2019/04/19 20:46:00	BASE	1.49	112	1.85	122	-4.3	100	-4.3	1	0	975.9	NA	0.0000	-SN BR	0900	0	0	0	2100
2019/04/19 20:47:00	BASE	1.55	113	1.85	122	-4.3	100	-4.3	1	0	975.9	NA	0.0000	-SN BR	0900	0	0	0	2100
2019/04/19 20:48:00	BASE	1.54	116	1.85	122	-4.3	100	-4.3	1	0	975.9	NA	0.0000	-SN BR	0750	0	0	0	2070
2019/04/19 20:49:00	BASE	1.67	120	1.95	121	-4.3	100	-4.3	1	0	975.9	NA	0.0000	+SN BR	0650	0	0	0	2100
2019/04/19 20:50:00	BASE	1.84	119	2.11	115	-4.3	100	-4.3	1	0	975.9	NA	0.0000	+SN BR	0750	0	0	0	2100
2019/04/19 20:51:00	BASE	1.75	118	2.11	115	-4.3	100	-4.3	1	0	975.9	NA	0.0000	+SN BR	0800	0	0	0	2170
2019/04/19 20:52:00	BASE	1.75	118	2.11	128	-4.3	100	-4.3	1	1	975.9	NA	0.0000	SN FZFG	0750	0	0	0	2130
2019/04/19 20:53:00	BASE	1.82	116	2.11	128	-4.3	100	-4.3	1	0	975.9	NA	0.0000	SN FZFG	0750	0	0	0	2200
2019/04/19 20:54:00	BASE	1.91	116	2.21	115	-4.3	100	-4.3	1	0	975.9	NA	0.0000	SN FZFG	0700	0	0	0	2230
2019/04/19 20:55:00	BASE	2.10	120	2.31	123	-4.2	100	-4.2	1	1	975.9	NA	0.0000	SN FZFG	0750	0	0	0	2260
2019/04/19 20:56:00	BASE	1.95	118	2.31	123	-4.2	100	-4.2	1	1	975.9	NA	0.0000	SN FZFG	0800	0	0	0	2330
2019/04/19 20:57:00	BASE	1.84	114	2.31	123	-4.2	100	-4.2	1	0	975.9	NA	0.0000	SN FZFG	0900	0	0	0	2330
2019/04/19 20:58:00	BASE	2.03	115	2.42	124	-4.2	100	-4.2	1	0	975.9	NA	0.0000	SN FZFG	1000	0	0	0	2300
2019/04/19 20:59:00	BASE	2.10	118	2.42	124	-4.2	100	-4.2	1	0	975.9	NA	0.0000	SN FZFG	1000	0	0	0	2330
2019/04/19 21:00:00	BASE	2.18	122	2.68	127	-4.2	100	-4.2	0	0	975.9	NA	0.0000	SN FZFG	0800	0	0	0	2490
2019/04/19 21:01:00	BASE	2.19	122	2.68	127	-4.2	100	-4.2	0	0	975.9	NA	0.0000	SN FZFG	0700	0	0	0	2460
2019/04/19 21:02:00	BASE	2.11	118	2.68	127	-4.2	100	-4.2	0	0	975.9	NA	0.0000	SN FZFG	0650	0	0	0	2430
2019/04/19 21:03:00	BASE	2.34	117	2.68	127	-4.2	100	-4.2	0	0	975.9	NA	0.0000	SN FZFG	0650	0	0	0	2490
2019/04/19 21:04:00	BASE	2.41	116	2.78	118	-4.2	100	-4.2	0	0	975.9	NA	0.0000	SN FZFG	0800	0	0	0	2790
2019/04/19 21:05:00	BASE	2.41	116	3.19	117	-4.2	100	-4.2	0	0	975.9	NA	0.0000	SN FZFG	1100	0	0	0	2890
2019/04/19 21:06:00	BASE	2.77	115	3.19	118	-4.2	100	-4.2	0	0	975.9	NA	0.0000	SN BR	2000	0	0	0	2920
2019/04/19 21:07:00	BASE	2.92	115	3.24	118	-4.3	100	-4.3	0	0	975.9	NA	0.0000	SN BR	2100	0	0	0	2920
2019/04/19 21:08:00	BASE	2.86	115	3.24	118	-4.3	100	-4.3	0	0	975.9	NA	0.0000	SN BR	2100	0	0	0	3020
2019/04/19 21:09:00	BASE	2.86	112	3.24	118	-4.3	100	-4.3	0	1	975.9	NA	0.0000	SN BR	1900	0	0	0	3310
2019/04/19 21:10:00	BASE	2.77	107	3.24	118	-4.3	100	-4.3	0	0	975.9	NA	0.0000	-SN BR	2300	0	0	0	3480
2019/04/19 21:11:00	BASE	2.91	104	3.34	109	-4.3	100	-4.3	0	1	975.9	NA	0.0000	-SN BR	2600	0	0	0	3280
2019/04/19 21:12:00	BASE	3.18	104	3.60	101	-4.3	100	-4.3	0	0	975.9	NA	0.0000	-SN BR	2500	0	0	0	3350
2019/04/19 21:13:00	BASE	3.50	105	3.91	96	-4.3	100	-4.3	0	0	975.9	NA	0.0000	-SN BR	2600	0	0	0	4170
2019/04/19 21:14:00	BASE	3.81	106	4.22	107	-4.3	100	-4.3	0	0	975.9	NA	0.0000	-SN BR	2000	0	0	0	3410
2019/04/19 21:15:00	BASE	3.80	109	4.22	107	-4.3	100	-4.3	0	1	975.9	NA	0.0000	-SN BR	1900	0	0	0	3310
2019/04/19 21:16:00	BASE	3.72	112	4.32	106	-4.3	100	-4.3	0	0	975.9	NA	0.0000	-SN BR	2300	0	0	0	4170
2019/04/19 21:17:00	BASE	3.59	113	4.32	106	-4.3	100	-4.3	0	0	975.9	NA	0.2540	-SN BR	2300	0	0	0	4130
2019/04/19 21:18:00	BASE	3.48	115	4.32	106	-4.3	100	-4.3	0	0	975.9	NA	0.0000	-SN BR	2500	0	0	0	4200
2019/04/19 21:19:00	BASE	3.71	115	4.78	113	-4.3	100	-4.3	0	1	975.9	NA	0.0000	-SN BR	2700	0	0	0	4200
2019/04/19 21:20:00	BASE	4.19	115	4.78	107	-4.3	100	-4.3	0	0	975.9	NA	0.0000	-SN BR	3000	0	0	0	4170
2019/04/19 21:21:00	BASE	4.66	113	5.09	111	-4.3	100	-4.3	0	0	975.9	NA	0.0000	-SN BR	3300	0	0	0	4100
2019/04/19 21:22:00	BASE	4.56	110	5.09	111	-4.3	100	-4.3	0	2	975.9	NA	0.0000	-SN BR	2900	0	0	0	4130
2019/04/19 21:23:00	BASE	4.37	108	5.09	111	-4.3	100	-4.3	0	0	975.9	NA	0.0000	-SN BR	3100	0	0	0	4170
2019/04/19 21:24:00	BASE	4.53	106	5.09	111	-4.3	100	-4.3	0	0	975.9	NA	0.0000	-SN BR	3100	0	0	0	4070
2019/04/19 21:25:00	BASE	4.77	104	5.09	111	-4.3	100	-4.3	0	0	975.9	NA	0.0000	-SN BR	3100	330	3770	0	0
2019/04/19 21:26:00	BASE	4.84	103	5.09	111	-4.3	100	-4.3	0	0	975.9	NA	0.0000	-SN BR	3300	300	3810	0	0
2019/04/19 21:27:00	BASE	4.83	102	5.09	111	-4.3	100	-4.3	0	0	975.9	NA	0.0000	-SN BR	3400	300	3840	0	0
2019/04/19 21:28:00	BASE	4.88	100	5.09	111	-4.3	100	-4.3	0	2	975.9	NA	0.0000	-SN BR	3500	300	3150	0	0
2019/04/19 21:29:00	BASE	4.89	100	5.09	111	-4.3	100	-4.3	0	1	975.9	NA	0.0000	-SN BR	3400	300	2990	0	0
2019/04/19 21:30:00	BASE	4.92	101	5.09	111	-4.4	100	-4.4	0	1	975.9	NA	0.0000	-SN BR	3500	300	3870	0	0
2019/04/19 21:31:00	BASE	4.92	101	5.04	100	-4.4	100	-4.4	0	0	975.9	NA	0.0000	-SN BR	3700	330	2820	0	0
2019/04/19 21:32:00	BASE	4.87	102	5.04	100	-4.4	100	-4.4	0	1	975.9	NA	0.0000	-SN BR	3500	330	2760	0	0
2019/04/19 21:33:00	BASE	4.87	102	5.09	101	-4.4	100	-4.4	0	0	975.9	NA	0.0000	-SN BR	4200	330	3670	0	0
2019/04/19 21:34:00	BASE	4.87	103	5.09	101	-4.4	100	-4.4	0	2	975.9	NA	0.0000	-SN BR	4700	330	3540	0	0
2019/04/19 21:35:00	BASE	4.72	105	5.09	101	-4.4	100	-4.4	0	0	975.9	NA	0.0000	-SN BR	4400	330	3540	0	0
2019/04/19 21:36:00	BASE	4.64	105	5.09	101	-4.4	100	-4.4	0	0	975.9	NA	0.0000	-SN BR	4500	330	0	0	0
2019/04/19 21:37:00	BASE	4.70	106	5.09	101	-4.4	100	-4.4	0	0	975.9	NA	0.0000	-SN BR	4500	330	0	0	0
2019/04/19 21:38:00	BASE	4.93	107	5.45	108	-4.4	100	-4.4	0	0	975.9	NA	0.0000	-SN BR	4800	330	0	0	0
2019/04/19 21:39:00	BASE	5.17	108	5.61	110	-4.4	100	-4.4	0	0	975.9	NA	0.0000	-SN BR	5000	360	0	0	0
2019/04/19 21:40:00	BASE	4.93	110	5.61	110	-4.4	100	-4.4	0	1	975.9	NA	0.0000	-SN BR	6000	390	0	0	0
2019/04/19 21:41:00	BASE	4.66	110	5.61	110	-4.4	100	-4.4	0	1	975.9	NA	0.0000	-SN BR	6000	3410	0	0	0
2019/04/19 21:42:00	BASE	4.94	109	5.61	110	-4.4	100	-4.4	0	0	975.9	NA	0.0000	-SN BR	6000	3280	0	0	0
2019/04/19 21:43:00	BASE	5.20	110	5.61	110	-4.4	100	-4.4	0	1	975.8	NA	0.0000	-SN BR	5000	3250	0	0	0
2019/04/19 21:44:00	BASE	5.24	109	5.81	110	-4.4	100	-4.4	0	1	975.8	NA	0.0000	-SN BR	6000	390	0	0	0
2019/04/19 21:45:00	BASE	5.26	109	5.81	110	-4.4	100	-4.4	0	0	975.8	NA	0.0000	-SN BR	6000	1770	0	0	0
2019/04/19 21:46:00	BASE	5.12	108	5.81	110	-4.4	100	-4.4	0	0	975.8	NA	0.0000	-SN BR	5000	1640	0	0	0
2019/04/19 21:47:00	BASE	5.27	106	5.81	105	-4.4	100	-4.4	0	0	975.8	NA	0.0000	-SN BR	5000	390	0	0	0
2019/04/19 21:48:00	BASE	5.32	106	5.81	105	-4.4	100	-4.4	0	0	975.8	NA	0.0000	-SN BR	5000	390	0	0	0
2019/04/19 21:49:00	BASE	5.27	107	5.81	105	-4.4	100	-4.4	0	1	975.8	NA	0.0000	-SN BR	5000	1150	0	0	0
2019/04/19 21:50:00	BASE	5.39	108	5.81	105	-4.4	100	-4.4	0	0	975.8	NA	0.0000	-SN BR	4800	390	0	0	0
2019/04/19 21:51:00	BASE	5.23	109	5.81	105	-4.4	100	-4.4	0	0	975.8	NA	0.0000	-SN BR	4500	3020	0	0	0
2019/04/19 21:52:00	BASE	5.10	110	5.81	105	-4.4	100	-4.4	0	0	975.7	NA	0.0000	-SN BR	4400	390	0	0	0
2019/04/19 21:53:00	BASE	5.22	110	5.92	110	-4.4	100	-4.4	0	0	975.8	NA	0.0000	-SN BR	3900	390	0	0	0
2019/04/19 21:54:00	BASE	5.39	111	6.02	106	-4.4	100	-4.4	0	0	975.7	NA	0.0000	-SN BR	4100	3050	0	0	0
2019/04/19 21:55:00	BASE	5.52	111	6.17	115	-4.4	100	-4.4	0	1	975.7	NA	0.0000	-SN BR	4200	390	0	0	0
2019/04/19 21:56:00	BASE	5.66	111	6.17	110	-4.3	100	-4.3	0	1	975.6	NA	0.0000	-SN BR	3700	390	0	0	0
2019/04/19 21:57:00	BASE	5.90	111	6.58	116	-4.3	100	-4.3	0	1	975.6	NA	0.0000	-SN BR	4100	360	0	0	0
2019/04/19 21:58:00	BASE	6.39	114	7.31	113	-4.3	100	-4.3	0	0	975.6	NA	0.0000	-SN BR	4400	360	0	0	0
2019/04/19 21:59:00	BASE	6.84	114	7.31	116	-4.3	100	-4.3	0	2	975.6	NA	0.0000	-SN BR	5000	2690	0	0	0
2019/04/19 22:00:00	BASE	7.06	115	7.41	116	-4.3	100	-4.3	0	0	975.6	NA	0.0000	-SN BR	7000	2590	0	0	0
2019/04/19 22:01:00	BASE	6.84	118	7.46	119	-4.3	100	-4.3	0	0	975.6	NA	0.0000	-SN BR	6000	750	0	0	0
2019/04/19 22:02:00	BASE	6.74	120	7.46	119	-4.3	100	-4.3	0	0	975.6	NA	0.0000	-SN BR	7000	2890	0	0	0
2019/04/19 22:03:00	BASE	6.90	120	7.46	119	-4.3	100	-4.3	0	0	975.6	NA	0.0000	-SN BR	5000	2850	0	0	0
2019/04/19 22:04:00	BASE	6.56	120	7.46	119	-4.3	100	-4.3	0	1	975.6	NA	0.0000	-SN BR	5000	2890	0	0	0
2019/04/19 22:05:00	BASE	6.27	122	7.46	119	-4.3	100	-4.3	0	1	975.6	NA	0.0000	-SN BR	6000	2720	0	0	0
2019/04/19 22:06:00	BASE	6.38	122	7.46	119	-4.3	100	-4.3	0	0	975.6	NA	0.0000	-SN BR	6000	2660	0	0	0
2019/04/19 22:07:00	BASE	6.18	123	7.46	119	-4.3	100	-4.3	0	1	975.6	NA	0.0000	-SN BR	5000	2850	0	0	0
2019/04/19 22:08:00	BASE	6.04	126	7.46	119	-4.3	100	-4.3	0	0	975.7	NA	0.0000	-SN BR	7000	2950	0	0	0
2019/04/19 22:09:00	BASE	6.35	126	7.46	119	-4.3	100	-4.3	0	1	975.6	NA	0.0000	-SN BR	9000	2490	0	0	0
2019/04/19 22:10:00	BASE	6.27	124	7.46	119	-4.2	100	-4.2	0	0	975.6	NA	0.0000	-SN BR	7000	2660	0	0	0
2019/04/19 22:11:00	BASE	6.15	125	7.41	120	-4.2	100	-4.2	0	1	975.7	NA	0.0000	-SN BR	6000	2660	0	0	0
2019/04/19 22:12:00	BASE	6.22	126	7.41	120	-4.2	100	-4.2	0	0	975.6	NA	0.0000	-SN BR	7000	2720	0	0	0
2019/04/19 22:13:00	BASE	5.97	128	6.89	128	-4.2	100	-4.2	0	1	975.6	NA	0.0000	-SN BR	9999	2850	0	0	0
2019/04/19 22:14:00	BASE	5.76	131	6.89	128	-4.2	100	-4.2	0	0	975.6	NA	0.0000	-SN BR	9999	2890	0	0	0
2019/04/19 22:15:00	BASE	5.89	129	6.89	128	-4.2	100	-4.2	0	1	975.6	NA	0.0000	-SN BR	9999	2820	0	0	0
2019/04/19 22:16:00	BASE	6.32	127	7.31	132	-4.2	100	-4.2	0	2	975.6	NA	0.0000	-SN BR	9999	2760	0	0	0
2019/04/19 22:17:00	BASE	6.29	126	7.31	132	-4.2	100	-4.2	0	1	975.7	NA	0.0000	-SN BR	9999	2660	0	0	0
2019/04/19 22:18:00	BASE	5.61	125	7.31	132	-4.2	100	-4.2	0	2	975.7	NA	0.0000	-SN BR	9000	2620	0	0	0
2019/04/19 22:19:00	BASE	5.98	127	7.31	130	-4.1	100	-4.1	0	2	975.7	NA	0.0000	-SN BR	9999	2660	0	0	0
2019/04/19 22:20:16	BASE	6.71	126	7.31	130	-4.1	100	-4.1	0	1	975.7	NA	0.0000	-SN BR	9999	2590	0	0	0
2019/04/19 22:21:00	BASE	6.70	125	7.31	130	-4.1	100	-4.1	0	1	975.7	NA	0.0000	-SN	9999	2530	0	0	0
2019/04/19 22:22:00	BASE	6.24	127	7.31	130	-4.1	100	-4.1	0	0	975.7	NA	0.0000	-SN	9000	2490	0	0	0
2019/04/19 22:23:00	BASE	5.94	127	7.31	130	-4.1	100	-4.1	0	0	975.7	NA	0.0000	-SN	7000	2590	0	0	0
2019/04/19 22:24:00	BASE	6.16	128	7.31	130	-4.1	100	-4.1	0	0	975.7	NA	0.0000	-SN BR	7000	2590	0	0	0
2019/04/19 22:25:00	BASE	6.20	129	7.31	130	-4.1	100	-4.1	0	0	975.7	NA	0.0000	-SN BR	5000	2460	0	0	0
2019/04/19 22:26:00	BASE	6.10	129	7.31	130	-4.1	100	-4.1	0	0	975.6	NA	0.0000	-SN BR	6000	2070	0	0	0
2019/04/19 22:27:00	BASE	6.25	131	7.31	130	-4.0	100	-4.0	0	1	975.6	NA	0.0000	-SN BR	9000	2130	0	0	0
2019/04/19 22:28:00	BASE	6.52	131	7.56	125	-4.0	100	-4.0	0	0	975.6	NA	0.0000	-SN BR	9999	2170	0	0	0
2019/04/19 22:29:00	BASE	6.47	129	7.56	125	-4.0	100	-4.0	0	1	975.6	NA	0.0000	-SN BR	9999	2300	0	0	0
2019/04/19 22:30:00	BASE	6.42	129	7.56	125	-4.0	100	-4.0	0	2	975.6	NA	0.0000	-SN BR	9999	2230	0	0	0
2019/04/19 22:31:00	BASE	6.63	127	7.56	125	-4.0	100	-4.0	0	0	975.6	NA	0.0000	-SN BR	9999	2360	0	0	0
2019/04/19 22:32:00	BASE	6.66	126	7.56	125	-4.0	100	-4.0	0	0	975.6	NA	0.0000	-SN BR	9999	2460	0	0	0
2019/04/19 22:33:00	BASE	6.67	126	7.56	125	-4.0	100	-4.0	0	0	975.6	NA	0.0000	-SN BR	9999	2430	0	0	0
2019/04/19 22:34:00	BASE	6.34	126	7.56	125	-4.0	100	-4.0	0	1	975.6	NA	0.0000	-SN BR	9999	2490	0	0	0
2019/04/19 22:35:00	BASE	6.32	125	7.56	125	-4.0	100	-4.0	0	1	975.6	NA	0.0000	-SN	9999	2490	0	0	0
2019/04/19 22:36:01	BASE	6.97	124	7.92	122	-4.0	100	-4.0	0	0	975.6	NA	0.0000	-SN	9999	2430	0	0	0
2019/04/19 22:37:00	BASE	7.26	125	7.92	122	-4.0	100	-4.0	0	0	975.6	NA	0.0000	-SN	9999	2400	0	0	0
2019/04/19 22:38:00	BASE	7.08	125	8.08	121	-4.0	100	-4.0	0	0	975.6	NA	0.0000	-SN	9999	2330	0	0	0
2019/04/19 22:39:00	BASE	7.19	124	8.08	121	-4.0	100	-4.0	0	0	975.6	NA	0.0000	-SN	9999	2260	0	0	0
2019/04/19 22:40:00	BASE	7.51	123	8.18	123	-4.0	100	-4.0	0	0	975.6	NA	0.0000	-SN	9999	2300	0	0	0
2019/04/19 22:41:00	BASE	7.62	123	8.18	123	-4.0	100	-4.0	0	0	975.6	NA	0.0000	-SN	9999	1800	0	0	0
2019/04/19 22:42:01	BASE	7.56	123	8.18	123	-4.0	100	-4.0	0	0	975.6	NA	0.0000	-SN	9999	1870	0	0	0
2019/04/19 22:43:01	BASE	7.21	126	8.18	123	-4.0	100	-4.0	0	1	975.6	NA	0.0000	-SN	9999	1900	0	0	0
2019/04/19 22:44:01	BASE	6.86	124	8.18	123	-4.0	100	-4.0	0	0	975.6	NA	0.0000	-SN	9999	2000	0	0	0
2019/04/19 22:45:01	BASE	7.00	121	8.18	123	-4.0	100	-4.0	0	0	975.6	NA	0.0000	-SN	9999	1970	0	0	0
2019/04/19 22:46:00	BASE	7.23	122	8.18	123	-4.0	100	-4.0	0	0	975.6	NA	0.0000	-SN	9999	2070	0	0	0
2019/04/19 22:47:00	BASE	7.29	122	8.18	123	-4.0	100	-4.0	0	0	975.6	NA	0.0000	-SN	9999	2130	0	0	0
2019/04/19 22:48:00	BASE	7.07	123	8.18	123	-4.0	100	-4.0	0	0	975.6	NA	0.0000	-SN	9999	2170	0	0	0
2019/04/19 22:49:00	BASE	7.00	125	8.18	123	-4.0	100	-4.0	0	2	975.6	NA	0.0000	-SN	9999	2200	0	0	0
2019/04/19 22:50:00	BASE	7.19	126	8.08	125	-3.9	100	-3.9	0	0	975.6	NA	0.0000	-SN	9999	2230	0	0	0
2019/04/19 22:51:00	BASE	7.05	129	8.08	125	-3.9	100	-3.9	0	0	975.6	NA	0.0000	-SN	9999	2100	0	0	0
2019/04/19 22:52:00	BASE	6.67	130	8.08	125	-3.9	100	-3.9	0	0	975.6	NA	0.0000	-SN	9999	2000	0	0	0
2019/04/19 22:53:00	BASE	6.13	130	8.08	125	-3.9	100	-3.9	0	0	975.6	NA	0.0000	-SN	9999	2000	0	0	0
2019/04/19 22:54:00	BASE	6.28	132	8.08	125	-3.9	100	-3.9	0	0	975.6	NA	0.0000	-SN	9999	1970	0	0	0
2019/04/19 22:55:00	BASE	6.63	131	8.08	125	-3.9	100	-3.9	0	1	975.6	NA	0.0000	-SN	9999	2030	0	0	0
2019/04/19 22:56:00	BASE	6.83	129	8.08	125	-3.9	100	-3.9	0	0	975.6	NA	0.0000	-SN	9999	1710	0	0	0
2019/04/19 22:57:00	BASE	7.26	128	8.03	130	-3.9	100	-3.9	0	0	975.6	NA	0.0000	-SN	9999	1570	0	0	0
2019/04/19 22:58:00	BASE	7.75	127	8.54	123	-3.9	100	-3.9	0	0	975.6	NA	0.0000	-SN	9999	1640	0	0	0
2019/04/19 22:59:00	BASE	7.90	126	8.54	126	-3.9	100	-3.9	0	0	975.6	NA	0.0000	-SN	9999	1770	0	0	0
2019/04/19 23:00:00	BASE	8.27	125	9.41	124	-3.9	100	-3.9	0	0	975.6	NA	0.0000	-SN	9999	1940	0	0	0
2019/04/19 23:01:00	BASE	8.61	123	9.41	124	-3.8	100	-3.8	0	0	975.6	NA	0.0000		9999	1940	2690	0	0
2019/04/19 23:02:00	BASE	8.11	122	9.41	124	-3.8	100	-3.8	0	2	975.6	NA	0.0000		9999	2460	0	0	0
2019/04/19 23:03:00	BASE	7.32	120	9.41	124	-3.8	100	-3.8	0	0	975.6	NA	0.0000		9999	2070	0	0	0
2019/04/19 23:04:00	BASE	7.72	119	9.41	124	-3.8	100	-3.8	0	0	975.6	NA	0.0000		9999	2070	2690	0	0
2019/04/19 23:05:00	BASE	8.27	119	9.41	124	-3.8	100	-3.8	0	1	975.6	NA	0.0000		9999	2130	0	0	0
2019/04/19 23:06:00	BASE	7.80	120	9.41	124	-3.8	100	-3.8	0	1	975.6	NA	0.0000		9999	2230	0	0	0
2019/04/19 23:07:00	BASE	7.55	121	9.41	124	-3.8	100	-3.8	0	1	975.5	NA	0.0000		9999	2230	0	0	0
2019/04/19 23:08:00	BASE	7.81	121	9.41	124	-3.8	100	-3.8	0	0	975.4	NA	0.0000		9999	2230	0	0	0
2019/04/19 23:09:00	BASE	7.70	118	9.41	124	-3.8	100	-3.8	0	0	975.5	NA	0.0000		9999	2260	2920	0	0
2019/04/19 23:10:00	BASE	7.04	117	9.05	118	-3.8	100	-3.8	0	0	975.5	NA	0.0000		9999	2170	0	0	0
2019/04/19 23:11:00	BASE	6.68	115	9.05	118	-3.9	100	-3.9	0	1	975.4	NA	0.0000		9999	0	0	0	0
2019/04/19 23:12:00	BASE	6.58	113	9.05	118	-3.9	100	-3.9	0	0	975.4	NA	0.0000		9999	0	0	0	0
2019/04/19 23:13:00	BASE	6.73	112	9.05	118	-4.0	100	-4.0	0	0	975.4	NA	0.0000		9999	0	0	0	0
2019/04/19 23:14:00	BASE	6.65	112	8.54	120	-4.1	100	-4.1	0	0	975.4	NA	0.0000		9999	0	0	0	0
2019/04/19 23:15:00	BASE	6.34	114	8.54	120	-4.1	100	-4.1	0	2	975.5	NA	0.0000		9999	0	0	0	0
2019/04/19 23:16:00	BASE	5.76	115	8.54	120	-4.2	100	-4.2	0	0	975.6	NA	0.0000		9999	0	0	0	0
2019/04/19 23:17:00	BASE	5.29	116	8.54	120	-4.2	100	-4.2	0	1	975.6	NA	0.0000		9999	0	0	0	0
2019/04/19 23:18:00	BASE	5.30	117	8.18	119	-4.3	100	-4.3	0	0	975.6	NA	0.0000		9999	0	0	0	0
2019/04/19 23:19:00	BASE	5.36	119	7.56	121	-4.3	100	-4.3	0	1	975.6	NA	0.0000		9999	17230	0	0	0
2019/04/19 23:20:00	BASE	5.30	122	7.46	112	-4.3	100	-4.3	0	0	975.6	NA	0.0000		9999	0	0	0	0
2019/04/19 23:21:00	BASE	4.65	122	7.46	112	-4.3	100	-4.3	0	1	975.6	NA	0.0000		9999	0	0	0	0
2019/04/19 23:22:00	BASE	4.69	122	7.46	112	-4.3	100	-4.3	0	0	975.6	NA	0.0000		9999	0	0	0	0
2019/04/19 23:23:00	BASE	5.40	121	6.94	110	-4.3	100	-4.3	0	0	975.6	NA	0.0000		9999	0	0	0	0
2019/04/19 23:24:00	BASE	5.36	122	6.48	113	-4.3	100	-4.3	0	0	975.6	NA	0.0000		9999	0	0	0	0
2019/04/19 23:25:00	BASE	5.26	123	6.28	118	-4.2	100	-4.2	0	0	975.6	NA	0.0000		9999	0	0	0	0
2019/04/19 23:26:00	BASE	5.50	122	7.31	130	-4.2	100	-4.2	0	0	975.6	NA	0.0000		9999	0	0	0	0
2019/04/19 23:27:00	BASE	5.79	124	7.31	130	-4.1	100	-4.1	0	1	975.6	NA	0.0000		9999	0	0	0	0
2019/04/19 23:28:00	BASE	5.97	119	7.31	130	-4.1	100	-4.1	0	0	975.6	NA	0.0000		9999	0	0	0	0
2019/04/19 23:29:00	BASE	6.03	117	7.31	130	-4.1	100	-4.1	0	1	975.6	NA	0.0000		9999	0	0	0	0
2019/04/19 23:30:00	BASE	5.70	121	7.31	130	-4.1	100	-4.1	0	0	975.6	NA	0.0000		9999	0	0	0	0
2019/04/19 23:31:00	BASE	5.92	121	7.41	117	-4.1	100	-4.1	0	0	975.6	NA	0.0000		9999	0	0	0	0
2019/04/19 23:32:00	BASE	6.67	121	7.67	122	-4.2	100	-4.2	0	0	975.5	NA	0.0000		9999	0	0	0	0
2019/04/19 23:33:00	BASE	6.73	122	7.67	122	-4.2	100	-4.2	0	0	975.5	NA	0.0000		9999	0	0	0	0
2019/04/19 23:34:00	BASE	6.86	123	7.82	122	-4.1	100	-4.1	0	0	975.5	NA	0.0000		9999	0	0	0	0
2019/04/19 23:35:00	BASE	6.61	124	7.82	122	-4.1	100	-4.1	0	1	975.6	NA	0.0000		9999	0	0	0	0
2019/04/19 23:36:00	BASE	6.45	125	7.82	122	-4.0	100	-4.0	0	0	975.5	NA	0.0000		9999	0	0	0	0
2019/04/19 23:37:00	BASE	6.81	123	7.82	122	-4.0	100	-4.0	0	1	975.6	NA	0.0000		9999	0	0	0	0
2019/04/19 23:38:01	BASE	6.26	122	7.82	122	-4.0	100	-4.0	0	0	975.6	NA	0.0000		9999	0	0	0	0
2019/04/19 23:39:01	BASE	6.34	123	7.82	122	-4.0	100	-4.0	0	0	975.6	NA	0.0000		9999	0	0	0	0
2019/04/19 23:40:01	BASE	6.23	125	7.82	122	-4.1	100	-4.1	0	0	975.6	NA	0.0000		9999	0	0	0	0
2019/04/19 23:41:01	BASE	5.40	123	7.82	122	-4.1	100	-4.1	0	0	975.6	NA	0.0000		9999	0	0	0	0
2019/04/19 23:42:01	BASE	5.09	120	7.82	122	-4.2	100	-4.2	0	0	975.6	NA	0.0000		9999	0	0	0	0
2019/04/19 23:43:01	BASE	4.99	119	7.82	122	-4.2	100	-4.2	0	1	975.6	NA	0.0000		9999	0	0	0	0
2019/04/19 23:44:01	BASE	4.41	111	7.72	122	-4.2	100	-4.2	0	0	975.6	NA	0.0000		9999	0	0	0	0
2019/04/19 23:45:01	BASE	3.48	105	7.72	122	-4.2	100	-4.2	0	1	975.6	NA	0.0000		9999	0	0	0	0
2019/04/19 23:46:01	BASE	3.23	107	7.41	126	-4.1	100	-4.1	0	0	975.6	NA	0.0000		9999	0	0	0	0
2019/04/19 23:47:01	BASE	3.27	110	7.41	126	-4.2	100	-4.2	0	0	975.6	NA	0.0000		9999	0	0	0	0
2019/04/19 23:48:01	BASE	3.62	110	7.41	126	-4.3	100	-4.3	0	0	975.6	NA	0.0000		9999	0	0	0	0
2019/04/19 23:49:01	BASE	4.18	104	6.84	125	-4.4	100	-4.4	0	2	975.6	NA	0.0000		9999	0	0	0	0
2019/04/19 23:50:01	BASE	4.57	106	5.92	125	-4.5	100	-4.5	0	1	975.6	NA	0.0000		9999	0	0	0	0
2019/04/19 23:51:01	BASE	4.95	116	5.92	125	-4.7	100	-4.7	0	0	975.6	NA	0.0000		9999	0	0	0	0
2019/04/19 23:52:01	BASE	4.74	122	5.81	128	-4.7	100	-4.7	0	0	975.6	NA	0.0000		9999	0	0	0	0
2019/04/19 23:53:01	BASE	3.91	117	5.81	128	-4.7	100	-4.8	0	0	975.6	NA	0.0000		9999	0	0	0	0
2019/04/19 23:54:01	BASE	3.45	112	5.81	128	-4.8	100	-4.8	0	0	975.6	NA	0.0000		9999	0	0	0	0
2019/04/19 23:55:01	BASE	3.80	108	5.81	128	-4.8	100	-4.8	0	2	975.6	NA	0.0000		9999	0	0	0	0
2019/04/19 23:56:01	BASE	4.21	104	5.81	128	-4.8	100	-4.8	0	0	975.6	NA	0.0000		9999	0	0	0	0
2019/04/19 23:57:01	BASE	3.81	95	5.81	128	-4.8	100	-4.8	0	2	975.6	NA	0.0000		9999	0	0	0	0
2019/04/19 23:58:01	BASE	3.39	94	5.81	128	-4.8	100	-4.8	0	0	975.6	NA	0.0000		9999	0	0	0	0
2019/04/19 23:59:01	BASE	3.20	104	5.81	128	-4.7	100	-4.7	0	0	975.6	NA	0.0000		9999	0	0	0	0